Time,TemperatureF,DewpointF,PressureIn,WindDirection,WindDirectionDegrees,WindSpeedMPH,WindSpeedGustMPH,Humidity,HourlyPrecipIn,Conditions,Clouds,dailyrainin,SoftwareType,DateUTC
2013-02-21 00:00:00,23.2,14.9,29.91,WNW,285,0.0,10.7,70,0.00,,---,0.00,VWS V14.01,2013-02-21 05:00:00,
2013-02-21 00:01:00,23.2,14.8,29.91,WNW,294,5.2,9.4,70,0.00,,---,0.00,VWS V14.01,2013-02-21 05:01:00,
2013-02-21 00:02:00,23.2,14.9,29.91,WNW,285,0.0,10.7,70,0.00,,,0.00,VWS V14.01,2013-02-21 05:02:00,
2013-02-21 00:03:00,23.2,14.8,29.91,WNW,294,5.2,9.4,70,0.00,,,0.00,VWS V14.01,2013-02-21 05:03:00,
2013-02-21 00:04:00,23.2,14.8,29.91,North,3,0.0,4.4,70,0.00,,---,0.00,VWS V14.01,2013-02-21 05:04:00,
2013-02-21 00:05:00,23.3,14.9,29.91,NNW,342,3.2,7.8,70,0.00,,,0.00,VWS V14.01,2013-02-21 05:05:00,
2013-02-21 00:06:00,23.3,15.1,29.91,NW,316,6.6,6.6,70,0.00,,,0.00,VWS V14.01,2013-02-21 05:06:00,
2013-02-21 00:07:00,23.2,14.9,29.91,WNW,300,5.5,9.8,70,0.00,,,0.00,VWS V14.01,2013-02-21 05:07:00,
2013-02-21 00:08:00,23.3,14.8,29.91,West,267,0.0,8.9,69,0.00,,,0.00,VWS V14.01,2013-02-21 05:08:00,
2013-02-21 00:09:00,23.3,14.9,29.91,WNW,294,8.1,13.2,70,0.00,,---,0.00,VWS V14.01,2013-02-21 05:09:00,
2013-02-21 00:10:00,23.3,14.9,29.91,NW,311,8.1,8.1,70,0.00,,,0.00,VWS V14.01,2013-02-21 05:10:00,
2013-02-21 00:11:00,23.3,14.7,29.91,NW,319,3.3,13.2,69,0.00,,,0.00,VWS V14.01,2013-02-21 05:11:00,
2013-02-21 00:12:00,23.3,14.9,29.90,West,270,0.0,9.5,70,0.00,,,0.00,VWS V14.01,2013-02-21 05:12:00,
2013-02-21 00:13:00,23.3,14.9,29.91,WNW,297,5.5,9.4,70,0.00,,,0.00,VWS V14.01,2013-02-21 05:13:00,
2013-02-21 00:14:00,23.4,15.1,29.91,WSW,253,3.5,3.5,70,0.00,,---,0.00,VWS V14.01,2013-02-21 05:14:00,
2013-02-21 00:15:00,23.4,15.2,29.91,WNW,297,0.0,3.4,70,0.00,,,0.00,VWS V14.01,2013-02-21 05:15:00,
2013-02-21 00:16:00,23.4,15.0,29.91,NW,323,5.0,5.3,70,0.00,,,0.00,VWS V14.01,2013-02-21 05:16:00,
2013-02-21 00:17:00,23.4,15.0,29.91,WNW,297,11.6,11.7,70,0.00,,,0.00,VWS V14.01,2013-02-21 05:17:00,
2013-02-21 00:18:00,23.4,14.9,29.91,WNW,295,0.0,11.6,70,0.00,,,0.00,VWS V14.01,2013-02-21 05:18:00,
2013-02-21 00:19:00,23.4,14.9,29.91,North,4,0.0,0.0,70,0.00,,---,0.00,VWS V14.01,2013-02-21 05:19:00,
2013-02-21 00:20:00,23.3,14.9,29.91,North,4,0.0,8.6,70,0.00,,,0.00,VWS V14.01,2013-02-21 05:20:00,
2013-02-21 00:21:00,23.4,15.0,29.91,North,4,0.0,0.0,70,0.00,,,0.00,VWS V14.01,2013-02-21 05:21:00,
2013-02-21 00:22:00,23.4,15.0,29.91,WNW,291,8.6,10.5,70,0.00,,,0.00,VWS V14.01,2013-02-21 05:22:00,
2013-02-21 00:23:00,23.4,15.0,29.91,NNW,329,7.2,10.9,70,0.00,,,0.00,VWS V14.01,2013-02-21 05:23:00,
2013-02-21 00:24:00,23.4,15.2,29.91,NW,322,0.0,0.0,70,0.00,,---,0.00,VWS V14.01,2013-02-21 05:24:00,
2013-02-21 00:25:00,23.4,15.0,29.91,NW,322,0.0,0.0,70,0.00,,,0.00,VWS V14.01,2013-02-21 05:25:00,
2013-02-21 00:26:00,23.4,15.2,29.91,NW,322,0.0,0.0,70,0.00,,,0.00,VWS V14.01,2013-02-21 05:26:00,
2013-02-21 00:27:00,23.5,15.3,29.91,NW,322,0.0,0.0,70,0.00,,,0.00,VWS V14.01,2013-02-21 05:27:00,
2013-02-21 00:28:00,23.5,15.3,29.91,NW,322,0.0,0.0,70,0.00,,,0.00,VWS V14.01,2013-02-21 05:28:00,
2013-02-21 00:29:00,23.4,15.0,29.90,NW,315,6.7,11.5,70,0.00,,---,0.00,VWS V14.01,2013-02-21 05:29:00,
2013-02-21 00:30:00,23.4,15.0,29.90,West,278,5.6,9.6,70,0.00,,,0.00,VWS V14.01,2013-02-21 05:30:00,
2013-02-21 00:31:00,23.4,14.9,29.90,NNW,329,0.0,11.5,70,0.00,,,0.00,VWS V14.01,2013-02-21 05:31:00,
2013-02-21 00:32:00,23.4,15.0,29.91,WNW,297,13.0,15.3,70,0.00,,,0.00,VWS V14.01,2013-02-21 05:32:00,
2013-02-21 00:33:00,23.3,14.8,29.91,West,270,7.4,13.0,69,0.00,,,0.00,VWS V14.01,2013-02-21 05:33:00,
2013-02-21 00:34:00,23.3,14.8,29.90,WNW,285,0.0,7.5,69,0.00,,---,0.00,VWS V14.01,2013-02-21 05:34:00,
2013-02-21 00:35:00,23.4,14.9,29.91,North,357,6.2,9.3,70,0.00,,,0.00,VWS V14.01,2013-02-21 05:35:00,
2013-02-21 00:36:00,23.3,14.9,29.90,WNW,285,0.0,7.5,70,0.00,,,0.00,VWS V14.01,2013-02-21 05:36:00,
2013-02-21 00:37:00,23.4,15.0,29.90,WNW,297,0.0,5.7,70,0.00,,,0.00,VWS V14.01,2013-02-21 05:37:00,
2013-02-21 00:38:00,23.4,15.0,29.91,WNW,297,0.0,0.0,70,0.00,,,0.00,VWS V14.01,2013-02-21 05:38:00,
2013-02-21 00:39:00,23.5,15.3,29.91,West,273,0.0,7.0,70,0.00,,---,0.00,VWS V14.01,2013-02-21 05:39:00,
2013-02-21 00:40:00,23.4,15.2,29.91,WNW,297,0.0,0.0,70,0.00,,,0.00,VWS V14.01,2013-02-21 05:40:00,
2013-02-21 00:41:00,23.5,15.6,29.91,NW,318,4.5,7.0,71,0.00,,,0.00,VWS V14.01,2013-02-21 05:41:00,
2013-02-21 00:42:00,23.5,15.2,29.91,NW,318,0.0,4.5,70,0.00,,,0.00,VWS V14.01,2013-02-21 05:42:00,
2013-02-21 00:43:00,23.4,15.0,29.91,NW,318,0.0,0.0,70,0.00,,,0.00,VWS V14.01,2013-02-21 05:43:00,
2013-02-21 00:44:00,23.4,14.9,29.90,NNW,340,4.8,9.8,70,0.00,,---,0.00,VWS V14.01,2013-02-21 05:44:00,
2013-02-21 00:45:00,23.4,14.9,29.90,NW,312,7.3,11.3,70,0.00,,,0.00,VWS V14.01,2013-02-21 05:45:00,
2013-02-21 00:46:00,23.4,14.9,29.90,NNW,340,0.0,9.8,70,0.00,,,0.00,VWS V14.01,2013-02-21 05:46:00,
2013-02-21 00:47:00,23.4,15.0,29.90,NW,315,6.9,9.6,70,0.00,,,0.00,VWS V14.01,2013-02-21 05:47:00,
2013-02-21 00:48:00,23.4,15.0,29.90,North,357,0.0,8.1,70,0.00,,,0.00,VWS V14.01,2013-02-21 05:48:00,
2013-02-21 00:49:00,23.3,14.9,29.90,WNW,284,9.2,12.5,70,0.00,,---,0.00,VWS V14.01,2013-02-21 05:49:00,
2013-02-21 00:50:00,23.4,15.1,29.90,NW,304,4.2,8.7,70,0.00,,,0.00,VWS V14.01,2013-02-21 05:50:00,
2013-02-21 00:51:00,23.3,14.9,29.90,SW,229,3.4,12.5,70,0.00,,,0.00,VWS V14.01,2013-02-21 05:51:00,
2013-02-21 00:52:00,23.3,15.2,29.90,WSW,248,5.2,8.8,71,0.00,,,0.00,VWS V14.01,2013-02-21 05:52:00,
2013-02-21 00:53:00,23.3,15.1,29.90,NNW,328,0.0,6.9,70,0.00,,,0.00,VWS V14.01,2013-02-21 05:53:00,
2013-02-21 00:54:00,23.3,15.1,29.90,West,273,0.0,13.5,70,0.00,,---,0.00,VWS V14.01,2013-02-21 05:54:00,
2013-02-21 00:55:00,23.4,15.4,29.90,NNW,328,0.0,0.0,71,0.00,,,0.00,VWS V14.01,2013-02-21 05:55:00,
2013-02-21 00:56:00,23.4,15.2,29.90,WNW,295,6.3,13.5,70,0.00,,,0.00,VWS V14.01,2013-02-21 05:56:00,
2013-02-21 00:57:00,23.3,15.1,29.90,WNW,287,0.0,8.9,70,0.00,,,0.00,VWS V14.01,2013-02-21 05:57:00,
2013-02-21 00:58:00,23.4,15.4,29.90,NW,322,0.0,12.1,71,0.00,,,0.00,VWS V14.01,2013-02-21 05:58:00,
2013-02-21 00:59:00,23.3,15.1,29.90,West,266,0.0,10.1,70,0.00,,---,0.00,VWS V14.01,2013-02-21 05:59:00,
2013-02-21 01:00:00,23.4,15.2,29.90,WNW,301,0.0,8.6,70,0.00,,,0.00,VWS V14.01,2013-02-21 06:00:00,
2013-02-21 01:01:00,23.3,15.1,29.90,West,266,0.0,10.1,70,0.00,,,0.00,VWS V14.01,2013-02-21 06:01:00,
2013-02-21 01:02:00,23.3,15.1,29.90,NW,323,8.3,10.9,70,0.00,,,0.00,VWS V14.01,2013-02-21 06:02:00,
2013-02-21 01:03:00,23.3,15.1,29.90,NNE,22,6.0,8.3,70,0.00,,,0.00,VWS V14.01,2013-02-21 06:03:00,
2013-02-21 01:04:00,23.2,14.9,29.90,NW,321,4.5,4.5,70,0.00,,---,0.00,VWS V14.01,2013-02-21 06:04:00,
2013-02-21 01:05:00,23.2,15.1,29.90,North,6,3.4,9.1,71,0.00,,,0.00,VWS V14.01,2013-02-21 06:05:00,
2013-02-21 01:06:00,23.2,14.9,29.90,NW,309,0.0,13.0,70,0.00,,,0.00,VWS V14.01,2013-02-21 06:06:00,
2013-02-21 01:07:00,23.2,15.0,29.90,NNW,335,0.0,4.5,70,0.00,,,0.00,VWS V14.01,2013-02-21 06:07:00,
2013-02-21 01:08:00,23.2,15.0,29.90,North,359,0.0,11.1,70,0.00,,,0.00,VWS V14.01,2013-02-21 06:08:00,
2013-02-21 01:09:00,23.2,15.1,29.91,WSW,246,4.3,5.5,71,0.00,,---,0.00,VWS V14.01,2013-02-21 06:09:00,
2013-02-21 01:10:00,23.2,15.1,29.91,NW,322,0.0,3.4,71,0.00,,,0.00,VWS V14.01,2013-02-21 06:10:00,
2013-02-21 01:11:00,23.2,15.1,29.91,SW,225,5.2,9.6,70,0.00,,,0.00,VWS V14.01,2013-02-21 06:11:00,
2013-02-21 01:12:00,23.3,15.2,29.91,WSW,246,0.0,5.5,71,0.00,,,0.00,VWS V14.01,2013-02-21 06:12:00,
2013-02-21 01:13:00,23.2,15.2,29.91,WSW,246,0.0,0.0,71,0.00,,,0.00,VWS V14.01,2013-02-21 06:13:00,
2013-02-21 01:14:00,23.3,15.4,29.90,WSW,248,0.0,0.0,71,0.00,,---,0.00,VWS V14.01,2013-02-21 06:14:00,
2013-02-21 01:15:00,23.3,15.4,29.90,WSW,248,0.0,6.8,71,0.00,,,0.00,VWS V14.01,2013-02-21 06:15:00,
2013-02-21 01:16:00,23.3,15.4,29.90,WSW,248,0.0,0.0,71,0.00,,,0.00,VWS V14.01,2013-02-21 06:16:00,
2013-02-21 01:17:00,23.3,15.3,29.90,WSW,248,0.0,0.0,71,0.00,,,0.00,VWS V14.01,2013-02-21 06:17:00,
2013-02-21 01:18:00,23.3,15.2,29.90,West,269,8.3,8.3,71,0.00,,,0.00,VWS V14.01,2013-02-21 06:18:00,
2013-02-21 01:19:00,23.2,15.3,29.90,NW,309,7.0,8.1,71,0.00,,---,0.00,VWS V14.01,2013-02-21 06:19:00,
2013-02-21 01:20:00,23.2,15.2,29.90,NNW,342,5.5,9.9,71,0.00,,,0.00,VWS V14.01,2013-02-21 06:20:00,
2013-02-21 01:21:00,23.2,15.3,29.90,NW,307,5.8,9.1,71,0.00,,,0.00,VWS V14.01,2013-02-21 06:21:00,
2013-02-21 01:22:00,23.1,15.0,29.91,NW,304,0.0,8.1,71,0.00,,,0.00,VWS V14.01,2013-02-21 06:22:00,
2013-02-21 01:23:00,23.2,15.3,29.91,WNW,292,7.5,8.5,71,0.00,,,0.00,VWS V14.01,2013-02-21 06:23:00,
2013-02-21 01:24:00,23.1,15.0,29.90,WNW,288,5.7,10.4,71,0.00,,---,0.00,VWS V14.01,2013-02-21 06:24:00,
2013-02-21 01:25:00,23.2,15.2,29.90,SW,226,0.0,8.6,71,0.00,,,0.00,VWS V14.01,2013-02-21 06:25:00,
2013-02-21 01:26:00,23.1,15.2,29.90,WNW,291,9.8,12.1,71,0.00,,,0.00,VWS V14.01,2013-02-21 06:26:00,
2013-02-21 01:27:00,23.2,15.4,29.90,WNW,288,5.5,10.4,72,0.00,,,0.00,VWS V14.01,2013-02-21 06:27:00,
2013-02-21 01:28:00,23.2,15.3,29.90,NNW,340,0.0,7.6,71,0.00,,,0.00,VWS V14.01,2013-02-21 06:28:00,
2013-02-21 01:29:00,23.1,15.2,29.90,NNW,345,2.9,7.5,71,0.00,,---,0.00,VWS V14.01,2013-02-21 06:29:00,
2013-02-21 01:30:00,23.1,15.2,29.91,NNW,340,0.0,0.0,71,0.00,,,0.00,VWS V14.01,2013-02-21 06:30:00,
2013-02-21 01:31:00,23.1,15.2,29.90,NNW,333,6.5,13.2,71,0.00,,,0.00,VWS V14.01,2013-02-21 06:31:00,
2013-02-21 01:32:00,23.1,15.3,29.90,NW,316,4.6,9.4,72,0.00,,,0.00,VWS V14.01,2013-02-21 06:32:00,
2013-02-21 01:33:00,23.0,15.2,29.90,NE,44,3.2,8.0,72,0.00,,,0.00,VWS V14.01,2013-02-21 06:33:00,
2013-02-21 01:34:00,22.9,15.2,29.90,North,350,0.0,7.9,72,0.00,,---,0.00,VWS V14.01,2013-02-21 06:34:00,
2013-02-21 01:35:00,23.0,15.1,29.90,NNW,330,0.0,10.0,71,0.00,,,0.00,VWS V14.01,2013-02-21 06:35:00,
2013-02-21 01:36:00,22.9,15.1,29.90,NNW,332,7.8,14.7,72,0.00,,,0.00,VWS V14.01,2013-02-21 06:36:00,
2013-02-21 01:37:00,22.9,15.3,29.90,NW,318,5.3,10.5,72,0.00,,,0.00,VWS V14.01,2013-02-21 06:37:00,
2013-02-21 01:38:00,22.9,15.4,29.90,West,263,11.7,11.7,72,0.00,,,0.00,VWS V14.01,2013-02-21 06:38:00,
2013-02-21 01:39:00,22.8,15.1,29.89,WNW,295,7.5,9.3,72,0.00,,---,0.00,VWS V14.01,2013-02-21 06:39:00,
2013-02-21 01:40:00,22.9,15.5,29.90,NW,322,7.0,8.1,73,0.00,,,0.00,VWS V14.01,2013-02-21 06:40:00,
2013-02-21 01:41:00,22.8,15.2,29.90,WNW,284,9.3,11.4,72,0.00,,,0.00,VWS V14.01,2013-02-21 06:41:00,
2013-02-21 01:42:00,22.8,15.4,29.90,West,259,1.9,9.3,73,0.00,,,0.00,VWS V14.01,2013-02-21 06:42:00,
2013-02-21 01:43:00,22.8,15.4,29.90,NW,314,10.0,14.5,73,0.00,,,0.00,VWS V14.01,2013-02-21 06:43:00,
2013-02-21 01:44:00,22.8,15.3,29.90,WNW,294,6.5,11.1,73,0.00,,---,0.00,VWS V14.01,2013-02-21 06:44:00,
2013-02-21 01:45:00,22.8,15.4,29.90,NW,312,0.0,9.6,73,0.00,,,0.00,VWS V14.01,2013-02-21 06:45:00,
2013-02-21 01:46:00,22.8,15.4,29.90,WNW,284,11.1,11.4,73,0.00,,,0.00,VWS V14.01,2013-02-21 06:46:00,
2013-02-21 01:47:00,22.8,15.5,29.90,NW,325,5.3,11.3,73,0.00,,,0.00,VWS V14.01,2013-02-21 06:47:00,
2013-02-21 01:48:00,22.8,15.4,29.90,NW,307,0.0,10.1,73,0.00,,,0.00,VWS V14.01,2013-02-21 06:48:00,
2013-02-21 01:49:00,22.8,15.3,29.90,West,273,8.1,8.7,73,0.00,,---,0.00,VWS V14.01,2013-02-21 06:49:00,
2013-02-21 01:50:00,22.8,15.2,29.90,WNW,284,8.6,16.2,72,0.00,,,0.00,VWS V14.01,2013-02-21 06:50:00,
2013-02-21 01:51:00,22.8,15.1,29.90,West,270,0.0,15.2,72,0.00,,,0.00,VWS V14.01,2013-02-21 06:51:00,
2013-02-21 01:52:00,22.8,15.6,29.90,WNW,294,3.1,8.7,73,0.00,,,0.00,VWS V14.01,2013-02-21 06:52:00,
2013-02-21 01:53:00,22.8,15.7,29.91,West,266,7.0,7.0,74,0.00,,,0.00,VWS V14.01,2013-02-21 06:53:00,
2013-02-21 01:54:00,22.8,15.3,29.91,NW,307,8.9,11.9,72,0.00,,---,0.00,VWS V14.01,2013-02-21 06:54:00,
2013-02-21 01:55:00,22.8,15.2,29.91,West,276,7.1,8.8,72,0.00,,,0.00,VWS V14.01,2013-02-21 06:55:00,
2013-02-21 01:56:00,22.7,15.2,29.91,NNW,339,4.6,14.2,72,0.00,,,0.00,VWS V14.01,2013-02-21 06:56:00,
2013-02-21 01:57:00,22.7,15.1,29.90,WNW,298,5.3,11.9,72,0.00,,,0.00,VWS V14.01,2013-02-21 06:57:00,
2013-02-21 01:58:00,22.8,15.3,29.91,WNW,298,0.0,5.3,72,0.00,,,0.00,VWS V14.01,2013-02-21 06:58:00,
2013-02-21 01:59:00,22.7,15.2,29.90,West,267,15.2,15.2,73,0.00,,---,0.00,VWS V14.01,2013-02-21 06:59:00,
2013-02-21 02:00:00,22.8,15.4,29.90,West,269,9.7,12.6,73,0.00,,,0.00,VWS V14.01,2013-02-21 07:00:00,
2013-02-21 02:01:00,22.8,15.3,29.90,West,274,5.4,12.1,72,0.00,,,0.00,VWS V14.01,2013-02-21 07:01:00,
2013-02-21 02:02:00,22.7,15.1,29.90,West,264,8.5,15.2,72,0.00,,,0.00,VWS V14.01,2013-02-21 07:02:00,
2013-02-21 02:03:00,22.7,15.2,29.90,WNW,291,0.0,12.2,72,0.00,,,0.00,VWS V14.01,2013-02-21 07:03:00,
2013-02-21 02:04:00,22.6,15.5,29.91,NW,307,5.8,9.0,74,0.00,,---,0.00,VWS V14.01,2013-02-21 07:04:00,
2013-02-21 02:05:00,22.6,15.4,29.91,WNW,302,6.4,9.2,73,0.00,,,0.00,VWS V14.01,2013-02-21 07:05:00,
2013-02-21 02:06:00,22.6,15.3,29.91,WNW,287,5.7,11.0,73,0.00,,,0.00,VWS V14.01,2013-02-21 07:06:00,
2013-02-21 02:07:00,22.6,15.4,29.90,NW,309,5.5,9.0,73,0.00,,,0.00,VWS V14.01,2013-02-21 07:07:00,
2013-02-21 02:08:00,22.6,15.4,29.90,NW,309,0.0,5.5,74,0.00,,,0.00,VWS V14.01,2013-02-21 07:08:00,
2013-02-21 02:09:00,22.5,15.3,29.90,West,267,5.1,7.3,73,0.00,,---,0.00,VWS V14.01,2013-02-21 07:09:00,
2013-02-21 02:10:00,22.6,15.4,29.90,West,260,9.8,10.9,74,0.00,,,0.00,VWS V14.01,2013-02-21 07:10:00,
2013-02-21 02:11:00,22.5,15.1,29.90,North,4,0.0,11.0,73,0.00,,,0.00,VWS V14.01,2013-02-21 07:11:00,
2013-02-21 02:12:00,22.5,15.1,29.90,NW,323,8.0,8.5,73,0.00,,,0.00,VWS V14.01,2013-02-21 07:12:00,
2013-02-21 02:13:00,22.5,15.1,29.90,NW,316,3.5,9.4,73,0.00,,,0.00,VWS V14.01,2013-02-21 07:13:00,
2013-02-21 02:14:00,22.5,15.2,29.90,NW,315,5.0,7.6,73,0.00,,,0.00,VWS V14.01,2013-02-21 07:14:00,
2013-02-21 02:15:00,22.5,15.2,29.90,SW,214,4.2,9.6,73,0.00,,---,0.00,VWS V14.01,2013-02-21 07:15:00,
2013-02-21 02:16:00,22.5,15.2,29.90,West,260,3.3,14.2,73,0.00,,,0.00,VWS V14.01,2013-02-21 07:16:00,
2013-02-21 02:17:00,22.5,15.3,29.90,NW,319,5.9,9.6,73,0.00,,,0.00,VWS V14.01,2013-02-21 07:17:00,
2013-02-21 02:18:00,22.5,15.1,29.90,West,277,5.3,7.9,73,0.00,,,0.00,VWS V14.01,2013-02-21 07:18:00,
2013-02-21 02:19:00,22.6,15.3,29.91,WNW,290,8.9,10.7,73,0.00,,,0.00,VWS V14.01,2013-02-21 07:19:00,
2013-02-21 02:20:00,22.6,15.6,29.91,WNW,291,0.0,6.8,74,0.00,,---,0.00,VWS V14.01,2013-02-21 07:20:00,
2013-02-21 02:21:00,22.6,15.6,29.91,WNW,301,0.0,6.1,74,0.00,,,0.00,VWS V14.01,2013-02-21 07:21:00,
2013-02-21 02:22:00,22.6,15.4,29.91,NW,305,6.5,12.4,74,0.00,,,0.00,VWS V14.01,2013-02-21 07:22:00,
2013-02-21 02:23:00,22.5,15.1,29.91,NW,312,5.0,10.2,73,0.00,,,0.00,VWS V14.01,2013-02-21 07:23:00,
2013-02-21 02:24:00,22.6,15.4,29.90,West,274,9.8,11.1,73,0.00,,,0.00,VWS V14.01,2013-02-21 07:24:00,
2013-02-21 02:25:00,22.5,15.3,29.91,West,263,0.0,6.5,73,0.00,,---,0.00,VWS V14.01,2013-02-21 07:25:00,
2013-02-21 02:26:00,22.6,15.3,29.90,WNW,283,6.5,8.6,73,0.00,,,0.00,VWS V14.01,2013-02-21 07:26:00,
2013-02-21 02:27:00,22.5,15.4,29.91,WSW,250,5.4,7.1,74,0.00,,,0.00,VWS V14.01,2013-02-21 07:27:00,
2013-02-21 02:28:00,22.5,15.4,29.91,WSW,250,0.0,5.4,74,0.00,,,0.00,VWS V14.01,2013-02-21 07:28:00,
2013-02-21 02:29:00,22.5,15.4,29.91,WSW,250,0.0,0.0,74,0.00,,,0.00,VWS V14.01,2013-02-21 07:29:00,
2013-02-21 02:30:00,22.5,15.3,29.91,NW,312,3.2,4.2,73,0.00,,---,0.00,VWS V14.01,2013-02-21 07:30:00,
2013-02-21 02:31:00,22.5,15.2,29.90,WNW,295,0.0,12.1,73,0.00,,,0.00,VWS V14.01,2013-02-21 07:31:00,
2013-02-21 02:32:00,22.5,15.2,29.91,NW,312,0.0,4.2,73,0.00,,,0.00,VWS V14.01,2013-02-21 07:32:00,
2013-02-21 02:33:00,22.5,15.3,29.90,NW,312,0.0,3.4,73,0.00,,,0.00,VWS V14.01,2013-02-21 07:33:00,
2013-02-21 02:34:00,22.5,15.5,29.91,North,10,0.0,6.5,74,0.00,,,0.00,VWS V14.01,2013-02-21 07:34:00,
2013-02-21 02:35:00,22.3,15.2,29.90,North,359,0.0,0.0,74,0.00,,---,0.00,VWS V14.01,2013-02-21 07:35:00,
2013-02-21 02:36:00,22.4,15.4,29.90,North,359,0.0,6.9,74,0.00,,,0.00,VWS V14.01,2013-02-21 07:36:00,
2013-02-21 02:37:00,22.4,15.3,29.90,West,277,10.0,10.0,74,0.00,,,0.00,VWS V14.01,2013-02-21 07:37:00,
2013-02-21 02:38:00,22.3,15.3,29.91,WSW,250,6.4,10.9,74,0.00,,,0.00,VWS V14.01,2013-02-21 07:38:00,
2013-02-21 02:39:00,22.3,15.1,29.90,West,281,9.4,11.4,74,0.00,,,0.00,VWS V14.01,2013-02-21 07:39:00,
2013-02-21 02:40:00,22.4,15.5,29.90,WNW,300,0.0,0.0,74,0.00,,---,0.00,VWS V14.01,2013-02-21 07:40:00,
2013-02-21 02:41:00,22.4,15.5,29.90,WNW,300,0.0,3.4,74,0.00,,,0.00,VWS V14.01,2013-02-21 07:41:00,
2013-02-21 02:42:00,22.4,15.4,29.90,WNW,300,0.0,0.0,74,0.00,,,0.00,VWS V14.01,2013-02-21 07:42:00,
2013-02-21 02:43:00,22.3,15.4,29.90,West,267,5.1,5.8,74,0.00,,,0.00,VWS V14.01,2013-02-21 07:43:00,
2013-02-21 02:44:00,22.3,15.2,29.90,WNW,288,5.2,9.9,74,0.00,,,0.00,VWS V14.01,2013-02-21 07:44:00,
2013-02-21 02:45:00,22.3,15.2,29.90,NW,325,0.0,13.8,74,0.00,,---,0.00,VWS V14.01,2013-02-21 07:45:00,
2013-02-21 02:46:00,22.3,15.2,29.91,West,276,11.3,12.8,74,0.00,,,0.00,VWS V14.01,2013-02-21 07:46:00,
2013-02-21 02:47:00,22.3,15.2,29.90,West,267,7.7,13.8,74,0.00,,,0.00,VWS V14.01,2013-02-21 07:47:00,
2013-02-21 02:48:00,22.3,15.2,29.90,WNW,297,0.0,7.7,74,0.00,,,0.00,VWS V14.01,2013-02-21 07:48:00,
2013-02-21 02:49:00,22.3,15.1,29.90,NNW,330,0.0,7.3,73,0.00,,,0.00,VWS V14.01,2013-02-21 07:49:00,
2013-02-21 02:50:00,22.4,15.5,29.90,WNW,292,0.0,0.0,74,0.00,,---,0.00,VWS V14.01,2013-02-21 07:50:00,
2013-02-21 02:51:00,22.3,15.3,29.90,WNW,292,0.0,0.0,74,0.00,,,0.00,VWS V14.01,2013-02-21 07:51:00,
2013-02-21 02:52:00,22.4,15.5,29.90,WNW,292,0.0,0.0,74,0.00,,,0.00,VWS V14.01,2013-02-21 07:52:00,
2013-02-21 02:53:00,22.3,15.6,29.90,NW,316,0.0,3.4,75,0.00,,,0.00,VWS V14.01,2013-02-21 07:53:00,
2013-02-21 02:54:00,22.3,15.4,29.90,WNW,284,3.4,6.5,74,0.00,,,0.00,VWS V14.01,2013-02-21 07:54:00,
2013-02-21 02:55:00,22.3,15.7,29.90,NW,322,0.0,5.7,75,0.00,,---,0.00,VWS V14.01,2013-02-21 07:55:00,
2013-02-21 02:56:00,22.3,15.8,29.90,WNW,300,5.7,7.8,76,0.00,,,0.00,VWS V14.01,2013-02-21 07:56:00,
2013-02-21 02:57:00,22.3,15.8,29.90,NW,322,0.0,5.7,76,0.00,,,0.00,VWS V14.01,2013-02-21 07:57:00,
2013-02-21 02:58:00,22.4,16.1,29.90,WNW,298,0.0,8.1,76,0.00,,,0.00,VWS V14.01,2013-02-21 07:58:00,
2013-02-21 02:59:00,22.4,15.8,29.90,NW,315,5.2,7.3,75,0.00,,,0.00,VWS V14.01,2013-02-21 07:59:00,
2013-02-21 03:00:00,22.3,15.7,29.90,NNW,335,0.0,5.1,75,0.00,,---,0.00,VWS V14.01,2013-02-21 08:00:00,
2013-02-21 03:01:00,22.4,15.9,29.90,NW,318,5.1,10.6,76,0.00,,,0.00,VWS V14.01,2013-02-21 08:01:00,
2013-02-21 03:02:00,22.3,15.7,29.90,NNW,335,0.0,5.1,75,0.00,,,0.00,VWS V14.01,2013-02-21 08:02:00,
2013-02-21 03:03:00,22.3,15.6,29.90,West,266,0.0,8.3,75,0.00,,,0.00,VWS V14.01,2013-02-21 08:03:00,
2013-02-21 03:04:00,22.3,15.6,29.90,West,266,0.0,0.0,75,0.00,,,0.00,VWS V14.01,2013-02-21 08:04:00,
2013-02-21 03:05:00,22.3,15.6,29.90,West,260,0.0,5.9,75,0.00,,---,0.00,VWS V14.01,2013-02-21 08:05:00,
2013-02-21 03:06:00,22.3,15.5,29.90,West,270,5.9,10.8,75,0.00,,,0.00,VWS V14.01,2013-02-21 08:06:00,
2013-02-21 03:07:00,22.3,15.6,29.90,West,260,0.0,5.9,75,0.00,,,0.00,VWS V14.01,2013-02-21 08:07:00,
2013-02-21 03:08:00,22.3,15.5,29.90,West,259,0.0,8.6,75,0.00,,,0.00,VWS V14.01,2013-02-21 08:08:00,
2013-02-21 03:09:00,22.3,15.5,29.90,West,277,7.8,7.8,75,0.00,,,0.00,VWS V14.01,2013-02-21 08:09:00,
2013-02-21 03:10:00,22.3,15.5,29.89,WNW,284,5.0,6.5,75,0.00,,---,0.00,VWS V14.01,2013-02-21 08:10:00,
2013-02-21 03:11:00,22.3,15.6,29.90,WNW,290,0.0,5.1,75,0.00,,,0.00,VWS V14.01,2013-02-21 08:11:00,
2013-02-21 03:12:00,22.3,15.5,29.90,West,281,3.4,6.5,75,0.00,,,0.00,VWS V14.01,2013-02-21 08:12:00,
2013-02-21 03:13:00,22.3,15.6,29.90,SW,226,10.7,11.3,75,0.00,,,0.00,VWS V14.01,2013-02-21 08:13:00,
2013-02-21 03:14:00,22.3,15.4,29.90,WSW,246,0.0,10.7,74,0.00,,,0.00,VWS V14.01,2013-02-21 08:14:00,
2013-02-21 03:15:00,22.4,15.6,29.89,NW,304,9.3,12.4,75,0.00,,---,0.00,VWS V14.01,2013-02-21 08:15:00,
2013-02-21 03:16:00,22.4,15.5,29.89,West,278,0.0,10.3,74,0.00,,,0.00,VWS V14.01,2013-02-21 08:16:00,
2013-02-21 03:17:00,22.4,15.7,29.89,West,273,6.5,12.4,75,0.00,,,0.00,VWS V14.01,2013-02-21 08:17:00,
2013-02-21 03:18:00,22.4,15.6,29.89,West,259,0.0,6.5,75,0.00,,,0.00,VWS V14.01,2013-02-21 08:18:00,
2013-02-21 03:19:00,22.4,15.8,29.89,West,273,8.8,10.3,75,0.00,,,0.00,VWS V14.01,2013-02-21 08:19:00,
2013-02-21 03:20:00,22.4,15.6,29.89,WNW,291,0.0,5.5,75,0.00,,---,0.00,VWS V14.01,2013-02-21 08:20:00,
2013-02-21 03:21:00,22.4,15.6,29.89,WNW,291,5.5,6.2,75,0.00,,,0.00,VWS V14.01,2013-02-21 08:21:00,
2013-02-21 03:22:00,22.4,15.6,29.89,WNW,291,0.0,5.5,75,0.00,,,0.00,VWS V14.01,2013-02-21 08:22:00,
2013-02-21 03:23:00,22.5,16.0,29.89,WNW,291,0.0,0.0,76,0.00,,,0.00,VWS V14.01,2013-02-21 08:23:00,
2013-02-21 03:24:00,22.5,15.8,29.89,WNW,291,0.0,0.0,75,0.00,,,0.00,VWS V14.01,2013-02-21 08:24:00,
2013-02-21 03:25:00,22.5,15.6,29.89,WNW,284,4.6,8.2,74,0.00,,---,0.00,VWS V14.01,2013-02-21 08:25:00,
2013-02-21 03:26:00,22.5,15.9,29.90,WNW,297,7.9,10.1,75,0.00,,,0.00,VWS V14.01,2013-02-21 08:26:00,
2013-02-21 03:27:00,22.5,15.6,29.90,WSW,255,5.0,8.2,74,0.00,,,0.00,VWS V14.01,2013-02-21 08:27:00,
2013-02-21 03:28:00,22.5,15.7,29.89,WSW,255,0.0,5.0,75,0.00,,,0.00,VWS V14.01,2013-02-21 08:28:00,
2013-02-21 03:29:00,22.5,15.7,29.89,WSW,255,0.0,0.0,75,0.00,,,0.00,VWS V14.01,2013-02-21 08:29:00,
2013-02-21 03:30:00,22.5,15.7,29.89,West,266,0.0,0.0,75,0.00,,---,0.00,VWS V14.01,2013-02-21 08:30:00,
2013-02-21 03:31:00,22.5,15.7,29.90,West,266,0.0,6.0,75,0.00,,,0.00,VWS V14.01,2013-02-21 08:31:00,
2013-02-21 03:32:00,22.5,15.7,29.90,West,266,0.0,0.0,75,0.00,,,0.00,VWS V14.01,2013-02-21 08:32:00,
2013-02-21 03:33:00,22.5,15.7,29.90,West,266,0.0,0.0,75,0.00,,,0.00,VWS V14.01,2013-02-21 08:33:00,
2013-02-21 03:34:00,22.5,15.7,29.90,West,266,0.0,3.2,75,0.00,,,0.00,VWS V14.01,2013-02-21 08:34:00,
2013-02-21 03:35:00,22.6,15.9,29.89,West,266,0.0,0.0,75,0.00,,---,0.00,VWS V14.01,2013-02-21 08:35:00,
2013-02-21 03:36:00,22.6,15.8,29.90,West,266,0.0,0.0,75,0.00,,,0.00,VWS V14.01,2013-02-21 08:36:00,
2013-02-21 03:37:00,22.6,15.9,29.90,West,266,0.0,0.0,75,0.00,,,0.00,VWS V14.01,2013-02-21 08:37:00,
2013-02-21 03:38:00,22.6,15.9,29.89,West,266,0.0,0.0,75,0.00,,,0.00,VWS V14.01,2013-02-21 08:38:00,
2013-02-21 03:39:00,22.6,15.8,29.90,West,267,0.0,6.8,75,0.00,,,0.00,VWS V14.01,2013-02-21 08:39:00,
2013-02-21 03:40:00,22.6,15.9,29.89,NW,319,5.1,6.2,75,0.00,,---,0.00,VWS V14.01,2013-02-21 08:40:00,
2013-02-21 03:41:00,22.5,15.6,29.89,NW,321,6.2,11.9,74,0.00,,,0.00,VWS V14.01,2013-02-21 08:41:00,
2013-02-21 03:42:00,22.5,15.8,29.90,North,349,4.5,6.2,75,0.00,,,0.00,VWS V14.01,2013-02-21 08:42:00,
2013-02-21 03:43:00,22.6,16.2,29.90,NNE,15,0.0,6.3,76,0.00,,,0.00,VWS V14.01,2013-02-21 08:43:00,
2013-02-21 03:44:00,22.5,15.9,29.90,West,276,14.5,14.5,76,0.00,,,0.00,VWS V14.01,2013-02-21 08:44:00,
2013-02-21 03:45:00,22.5,16.0,29.90,WNW,294,8.0,8.0,76,0.00,,---,0.00,VWS V14.01,2013-02-21 08:45:00,
2013-02-21 03:46:00,22.5,15.8,29.90,WSW,250,0.0,0.0,75,0.00,,,0.00,VWS V14.01,2013-02-21 08:46:00,
2013-02-21 03:47:00,22.5,16.0,29.90,WNW,294,9.3,9.3,76,0.00,,,0.00,VWS V14.01,2013-02-21 08:47:00,
2013-02-21 03:48:00,22.5,15.9,29.90,WSW,256,0.0,9.4,75,0.00,,,0.00,VWS V14.01,2013-02-21 08:48:00,
2013-02-21 03:49:00,22.5,16.1,29.90,WSW,256,0.0,3.4,76,0.00,,,0.00,VWS V14.01,2013-02-21 08:49:00,
2013-02-21 03:50:00,22.5,16.1,29.90,WSW,238,0.0,0.0,76,0.00,,---,0.00,VWS V14.01,2013-02-21 08:50:00,
2013-02-21 03:51:00,22.5,16.0,29.90,WSW,238,0.0,5.4,76,0.00,,,0.00,VWS V14.01,2013-02-21 08:51:00,
2013-02-21 03:52:00,22.5,16.1,29.90,WSW,238,0.0,0.0,76,0.00,,,0.00,VWS V14.01,2013-02-21 08:52:00,
2013-02-21 03:53:00,22.5,16.2,29.90,WSW,238,0.0,0.0,76,0.00,,,0.00,VWS V14.01,2013-02-21 08:53:00,
2013-02-21 03:54:00,22.5,15.9,29.90,West,271,0.0,7.3,75,0.00,,,0.00,VWS V14.01,2013-02-21 08:54:00,
2013-02-21 03:55:00,22.5,16.1,29.90,West,277,5.3,5.3,76,0.00,,---,0.00,VWS V14.01,2013-02-21 08:55:00,
2013-02-21 03:56:00,22.5,15.9,29.90,WNW,298,4.2,10.3,75,0.00,,,0.00,VWS V14.01,2013-02-21 08:56:00,
2013-02-21 03:57:00,22.5,16.1,29.90,WNW,297,6.3,6.3,76,0.00,,,0.00,VWS V14.01,2013-02-21 08:57:00,
2013-02-21 03:58:00,22.5,16.0,29.90,WNW,285,6.6,10.0,76,0.00,,,0.00,VWS V14.01,2013-02-21 08:58:00,
2013-02-21 03:59:00,22.5,15.9,29.90,West,263,5.0,9.8,75,0.00,,,0.00,VWS V14.01,2013-02-21 08:59:00,
2013-02-21 04:00:00,22.5,16.1,29.90,SW,214,0.0,0.0,76,0.00,,---,0.00,VWS V14.01,2013-02-21 09:00:00,
2013-02-21 04:01:00,22.5,16.0,29.90,SW,214,0.0,7.5,76,0.00,,,0.00,VWS V14.01,2013-02-21 09:01:00,
2013-02-21 04:02:00,22.5,16.1,29.90,SW,214,0.0,0.0,76,0.00,,,0.00,VWS V14.01,2013-02-21 09:02:00,
2013-02-21 04:03:00,22.6,16.2,29.90,WNW,283,7.4,7.4,76,0.00,,,0.00,VWS V14.01,2013-02-21 09:03:00,
2013-02-21 04:04:00,22.5,16.0,29.90,West,263,3.3,8.9,76,0.00,,,0.00,VWS V14.01,2013-02-21 09:04:00,
2013-02-21 04:05:00,22.6,16.2,29.90,West,263,0.0,0.0,76,0.00,,---,0.00,VWS V14.01,2013-02-21 09:05:00,
2013-02-21 04:06:00,22.6,16.1,29.90,West,263,0.0,0.0,76,0.00,,,0.00,VWS V14.01,2013-02-21 09:06:00,
2013-02-21 04:07:00,22.6,16.2,29.90,West,263,0.0,0.0,76,0.00,,,0.00,VWS V14.01,2013-02-21 09:07:00,
2013-02-21 04:08:00,22.6,16.1,29.91,West,263,0.0,0.0,76,0.00,,,0.00,VWS V14.01,2013-02-21 09:08:00,
2013-02-21 04:09:00,22.6,16.1,29.90,West,260,0.0,7.3,76,0.00,,,0.00,VWS V14.01,2013-02-21 09:09:00,
2013-02-21 04:10:00,22.6,16.2,29.91,SSW,205,10.3,13.4,76,0.00,,---,0.00,VWS V14.01,2013-02-21 09:10:00,
2013-02-21 04:11:00,22.6,16.1,29.91,WNW,285,7.1,7.9,76,0.00,,,0.00,VWS V14.01,2013-02-21 09:11:00,
2013-02-21 04:12:00,22.6,16.2,29.91,SSW,205,10.3,13.4,76,0.00,,,0.00,VWS V14.01,2013-02-21 09:12:00,
2013-02-21 04:13:00,22.6,16.2,29.91,WNW,291,0.0,10.3,76,0.00,,,0.00,VWS V14.01,2013-02-21 09:13:00,
2013-02-21 04:14:00,22.6,16.1,29.91,West,277,7.6,9.6,76,0.00,,,0.00,VWS V14.01,2013-02-21 09:14:00,
2013-02-21 04:15:00,22.6,16.0,29.91,WSW,245,2.9,6.8,75,0.00,,---,0.00,VWS V14.01,2013-02-21 09:15:00,
2013-02-21 04:16:00,22.6,15.8,29.91,NW,316,0.0,6.8,75,0.00,,,0.00,VWS V14.01,2013-02-21 09:16:00,
2013-02-21 04:17:00,22.6,16.0,29.91,WSW,245,2.9,6.8,75,0.00,,,0.00,VWS V14.01,2013-02-21 09:17:00,
2013-02-21 04:18:00,22.6,16.2,29.91,WSW,245,0.0,2.9,76,0.00,,,0.00,VWS V14.01,2013-02-21 09:18:00,
2013-02-21 04:19:00,22.7,16.2,29.91,NW,305,5.6,9.4,76,0.00,,,0.00,VWS V14.01,2013-02-21 09:19:00,
2013-02-21 04:20:00,22.7,15.9,29.91,North,359,5.3,6.2,75,0.00,,---,0.00,VWS V14.01,2013-02-21 09:20:00,
2013-02-21 04:21:00,22.7,16.1,29.91,West,273,0.0,0.0,75,0.00,,,0.00,VWS V14.01,2013-02-21 09:21:00,
2013-02-21 04:22:00,22.7,15.9,29.91,North,359,5.3,6.2,75,0.00,,,0.00,VWS V14.01,2013-02-21 09:22:00,
2013-02-21 04:23:00,22.7,15.7,29.90,West,274,0.0,7.4,74,0.00,,,0.00,VWS V14.01,2013-02-21 09:23:00,
2013-02-21 04:24:00,22.7,16.2,29.91,NW,314,3.4,5.7,76,0.00,,,0.00,VWS V14.01,2013-02-21 09:24:00,
2013-02-21 04:25:00,22.7,15.6,29.90,West,281,0.0,0.0,74,0.00,,---,0.00,VWS V14.01,2013-02-21 09:25:00,
2013-02-21 04:26:00,22.6,15.9,29.91,West,281,0.0,0.0,75,0.00,,,0.00,VWS V14.01,2013-02-21 09:26:00,
2013-02-21 04:27:00,22.7,15.6,29.90,West,281,0.0,0.0,74,0.00,,,0.00,VWS V14.01,2013-02-21 09:27:00,
2013-02-21 04:28:00,22.7,15.8,29.91,West,281,0.0,0.0,74,0.00,,,0.00,VWS V14.01,2013-02-21 09:28:00,
2013-02-21 04:29:00,22.6,15.6,29.91,West,273,11.8,11.8,74,0.00,,,0.00,VWS V14.01,2013-02-21 09:29:00,
2013-02-21 04:30:00,22.4,15.0,29.91,NW,316,6.8,8.2,73,0.00,,---,0.00,VWS V14.01,2013-02-21 09:30:00,
2013-02-21 04:31:00,22.6,15.3,29.91,WNW,284,5.4,14.6,73,0.00,,,0.00,VWS V14.01,2013-02-21 09:31:00,
2013-02-21 04:32:00,22.5,15.1,29.91,NNW,338,8.2,20.6,73,0.00,,,0.00,VWS V14.01,2013-02-21 09:32:00,
2013-02-21 04:33:00,22.6,15.7,29.91,NW,314,2.7,8.2,74,0.00,,,0.00,VWS V14.01,2013-02-21 09:33:00,
2013-02-21 04:34:00,22.6,15.4,29.91,NW,304,10.1,22.0,73,0.00,,,0.00,VWS V14.01,2013-02-21 09:34:00,
2013-02-21 04:35:00,22.6,15.4,29.91,West,281,0.0,0.0,74,0.00,,---,0.00,VWS V14.01,2013-02-21 09:35:00,
2013-02-21 04:36:00,22.6,15.2,29.91,West,281,0.0,10.6,73,0.00,,,0.00,VWS V14.01,2013-02-21 09:36:00,
2013-02-21 04:37:00,22.6,15.4,29.91,West,281,0.0,0.0,73,0.00,,,0.00,VWS V14.01,2013-02-21 09:37:00,
2013-02-21 04:38:00,22.6,15.6,29.91,West,281,0.0,0.0,74,0.00,,,0.00,VWS V14.01,2013-02-21 09:38:00,
2013-02-21 04:39:00,22.7,15.6,29.91,NW,305,0.0,3.3,74,0.00,,,0.00,VWS V14.01,2013-02-21 09:39:00,
2013-02-21 04:40:00,22.7,15.7,29.92,WNW,302,0.0,3.2,74,0.00,,---,0.00,VWS V14.01,2013-02-21 09:40:00,
2013-02-21 04:41:00,22.7,16.0,29.91,WSW,246,4.7,6.2,75,0.00,,,0.00,VWS V14.01,2013-02-21 09:41:00,
2013-02-21 04:42:00,22.7,15.8,29.92,WNW,302,3.2,12.4,74,0.00,,,0.00,VWS V14.01,2013-02-21 09:42:00,
2013-02-21 04:43:00,22.6,15.4,29.91,NNE,14,3.4,8.0,73,0.00,,,0.00,VWS V14.01,2013-02-21 09:43:00,
2013-02-21 04:44:00,22.6,15.5,29.91,WNW,283,0.0,8.8,74,0.00,,,0.00,VWS V14.01,2013-02-21 09:44:00,
2013-02-21 04:45:00,22.6,15.6,29.91,West,274,6.4,8.1,74,0.00,,---,0.00,VWS V14.01,2013-02-21 09:45:00,
2013-02-21 04:46:00,22.6,15.3,29.91,WNW,287,0.0,8.9,73,0.00,,,0.00,VWS V14.01,2013-02-21 09:46:00,
2013-02-21 04:47:00,22.6,15.7,29.91,NW,319,7.0,13.4,74,0.00,,,0.00,VWS V14.01,2013-02-21 09:47:00,
2013-02-21 04:48:00,22.6,15.3,29.91,West,269,5.7,14.4,73,0.00,,,0.00,VWS V14.01,2013-02-21 09:48:00,
2013-02-21 04:49:00,22.5,15.2,29.91,WSW,240,11.0,17.7,73,0.00,,,0.00,VWS V14.01,2013-02-21 09:49:00,
2013-02-21 04:50:00,22.5,15.7,29.91,NW,322,0.0,0.0,75,0.00,,---,0.00,VWS V14.01,2013-02-21 09:50:00,
2013-02-21 04:51:00,22.5,15.6,29.91,West,262,0.0,16.8,74,0.00,,,0.00,VWS V14.01,2013-02-21 09:51:00,
2013-02-21 04:52:00,22.5,15.8,29.91,NW,322,0.0,6.9,75,0.00,,,0.00,VWS V14.01,2013-02-21 09:52:00,
2013-02-21 04:53:00,22.5,15.4,29.91,NW,322,0.0,0.0,74,0.00,,,0.00,VWS V14.01,2013-02-21 09:53:00,
2013-02-21 04:54:00,22.5,15.6,29.91,WNW,292,3.0,12.1,74,0.00,,,0.00,VWS V14.01,2013-02-21 09:54:00,
2013-02-21 04:55:00,22.5,15.8,29.91,NNW,336,6.2,6.6,75,0.00,,---,0.00,VWS V14.01,2013-02-21 09:55:00,
2013-02-21 04:56:00,22.5,15.7,29.91,West,269,5.7,9.9,75,0.00,,,0.00,VWS V14.01,2013-02-21 09:56:00,
2013-02-21 04:57:00,22.5,15.7,29.91,WNW,288,0.0,7.5,75,0.00,,,0.00,VWS V14.01,2013-02-21 09:57:00,
2013-02-21 04:58:00,22.4,16.3,29.91,NNW,329,0.0,6.6,77,0.00,,,0.00,VWS V14.01,2013-02-21 09:58:00,
2013-02-21 04:59:00,22.5,16.2,29.91,West,270,6.3,7.1,76,0.00,,,0.00,VWS V14.01,2013-02-21 09:59:00,
2013-02-21 05:00:00,22.4,15.7,29.92,NW,304,0.0,0.0,75,0.00,,---,0.00,VWS V14.01,2013-02-21 10:00:00,
2013-02-21 05:01:00,22.4,15.5,29.91,West,264,3.3,8.5,74,0.00,,,0.00,VWS V14.01,2013-02-21 10:01:00,
2013-02-21 05:02:00,22.4,15.8,29.92,NW,304,0.0,8.6,75,0.00,,,0.00,VWS V14.01,2013-02-21 10:02:00,
2013-02-21 05:03:00,22.4,15.6,29.92,West,280,15.1,15.1,75,0.00,,,0.00,VWS V14.01,2013-02-21 10:03:00,
2013-02-21 05:04:00,22.3,15.3,29.92,WNW,284,8.1,19.9,74,0.00,,,0.00,VWS V14.01,2013-02-21 10:04:00,
2013-02-21 05:05:00,22.4,15.9,29.92,NW,307,6.0,6.7,76,0.00,,---,0.00,VWS V14.01,2013-02-21 10:05:00,
2013-02-21 05:06:00,22.3,15.6,29.92,NW,322,5.0,8.8,75,0.00,,,0.00,VWS V14.01,2013-02-21 10:06:00,
2013-02-21 05:07:00,22.4,15.8,29.92,NW,322,5.2,8.5,75,0.00,,,0.00,VWS V14.01,2013-02-21 10:07:00,
2013-02-21 05:08:00,22.4,15.5,29.92,WNW,302,5.5,6.7,74,0.00,,,0.00,VWS V14.01,2013-02-21 10:08:00,
2013-02-21 05:09:00,22.4,15.8,29.92,North,1,0.0,11.8,75,0.00,,,0.00,VWS V14.01,2013-02-21 10:09:00,
2013-02-21 05:10:00,22.5,15.6,29.92,NNE,20,0.0,5.4,74,0.00,,---,0.00,VWS V14.01,2013-02-21 10:10:00,
2013-02-21 05:11:00,22.5,16.0,29.92,NW,311,7.1,13.9,76,0.00,,,0.00,VWS V14.01,2013-02-21 10:11:00,
2013-02-21 05:12:00,22.4,15.8,29.92,NNE,20,5.4,7.1,75,0.00,,,0.00,VWS V14.01,2013-02-21 10:12:00,
2013-02-21 05:13:00,22.5,15.8,29.93,NNE,20,0.0,5.4,75,0.00,,,0.00,VWS V14.01,2013-02-21 10:13:00,
2013-02-21 05:14:00,22.5,16.0,29.93,NNE,20,0.0,0.0,76,0.00,,,0.00,VWS V14.01,2013-02-21 10:14:00,
2013-02-21 05:15:00,22.4,15.7,29.93,WNW,294,8.8,9.6,75,0.00,,---,0.00,VWS V14.01,2013-02-21 10:15:00,
2013-02-21 05:16:00,22.5,15.7,29.93,WSW,256,0.0,7.6,75,0.00,,,0.00,VWS V14.01,2013-02-21 10:16:00,
2013-02-21 05:17:00,22.4,16.1,29.93,SW,224,4.6,15.7,76,0.00,,,0.00,VWS V14.01,2013-02-21 10:17:00,
2013-02-21 05:18:00,22.3,15.6,29.92,NW,321,8.8,10.1,75,0.00,,,0.00,VWS V14.01,2013-02-21 10:18:00,
2013-02-21 05:19:00,22.3,15.6,29.93,NW,316,0.0,10.4,75,0.00,,,0.00,VWS V14.01,2013-02-21 10:19:00,
2013-02-21 05:20:00,22.4,16.3,29.93,West,277,15.3,18.5,77,0.00,,---,0.00,VWS V14.01,2013-02-21 10:20:00,
2013-02-21 05:21:00,22.4,16.1,29.93,WNW,292,7.6,9.9,76,0.00,,,0.00,VWS V14.01,2013-02-21 10:21:00,
2013-02-21 05:22:00,22.4,16.0,29.93,West,273,5.2,9.8,76,0.00,,,0.00,VWS V14.01,2013-02-21 10:22:00,
2013-02-21 05:23:00,22.4,15.9,29.93,North,7,3.4,18.5,76,0.00,,,0.00,VWS V14.01,2013-02-21 10:23:00,
2013-02-21 05:24:00,22.4,15.6,29.93,NW,319,4.9,17.6,75,0.00,,,0.00,VWS V14.01,2013-02-21 10:24:00,
2013-02-21 05:25:00,22.5,15.9,29.93,NW,319,8.2,9.9,75,0.00,,---,0.00,VWS V14.01,2013-02-21 10:25:00,
2013-02-21 05:26:00,22.5,15.8,29.93,NW,308,0.0,8.0,75,0.00,,,0.00,VWS V14.01,2013-02-21 10:26:00,
2013-02-21 05:27:00,22.5,15.8,29.93,West,264,0.0,12.0,75,0.00,,,0.00,VWS V14.01,2013-02-21 10:27:00,
2013-02-21 05:28:00,22.5,16.0,29.93,NNW,342,0.0,9.9,76,0.00,,,0.00,VWS V14.01,2013-02-21 10:28:00,
2013-02-21 05:29:00,22.5,16.1,29.93,West,273,3.4,10.6,76,0.00,,,0.00,VWS V14.01,2013-02-21 10:29:00,
2013-02-21 05:30:00,22.4,15.7,29.93,WNW,300,3.5,9.6,75,0.00,,---,0.00,VWS V14.01,2013-02-21 10:30:00,
2013-02-21 05:31:00,22.5,15.9,29.93,West,267,2.6,10.4,75,0.00,,,0.00,VWS V14.01,2013-02-21 10:31:00,
2013-02-21 05:32:00,22.4,15.8,29.93,WNW,298,8.8,8.8,75,0.00,,,0.00,VWS V14.01,2013-02-21 10:32:00,
2013-02-21 05:33:00,22.4,15.6,29.92,NW,308,6.1,9.6,75,0.00,,,0.00,VWS V14.01,2013-02-21 10:33:00,
2013-02-21 05:34:00,22.4,15.9,29.92,WNW,287,6.8,10.9,76,0.00,,,0.00,VWS V14.01,2013-02-21 10:34:00,
2013-02-21 05:35:00,22.3,15.8,29.92,WNW,297,6.4,12.1,76,0.00,,---,0.00,VWS V14.01,2013-02-21 10:35:00,
2013-02-21 05:36:00,22.3,15.8,29.92,West,273,6.2,10.1,76,0.00,,,0.00,VWS V14.01,2013-02-21 10:36:00,
2013-02-21 05:37:00,22.3,16.2,29.92,NW,311,0.0,13.2,77,0.00,,,0.00,VWS V14.01,2013-02-21 10:37:00,
2013-02-21 05:38:00,22.4,16.1,29.92,West,281,0.0,12.1,76,0.00,,,0.00,VWS V14.01,2013-02-21 10:38:00,
2013-02-21 05:39:00,22.4,15.9,29.92,West,280,0.0,14.7,76,0.00,,,0.00,VWS V14.01,2013-02-21 10:39:00,
2013-02-21 05:40:00,22.2,15.4,29.92,West,269,4.8,11.1,75,0.00,,---,0.00,VWS V14.01,2013-02-21 10:40:00,
2013-02-21 05:41:00,22.3,15.6,29.92,NW,321,5.5,14.5,75,0.00,,,0.00,VWS V14.01,2013-02-21 10:41:00,
2013-02-21 05:42:00,22.1,15.2,29.92,WNW,290,9.3,15.7,74,0.00,,,0.00,VWS V14.01,2013-02-21 10:42:00,
2013-02-21 05:43:00,22.2,15.5,29.92,NW,315,0.0,11.1,75,0.00,,,0.00,VWS V14.01,2013-02-21 10:43:00,
2013-02-21 05:44:00,22.2,15.3,29.92,WNW,290,6.6,13.0,74,0.00,,,0.00,VWS V14.01,2013-02-21 10:44:00,
2013-02-21 05:45:00,22.2,15.4,29.92,West,277,11.9,18.1,75,0.00,,,0.00,VWS V14.01,2013-02-21 10:45:00,
2013-02-21 05:46:00,22.3,15.8,29.92,WNW,287,10.9,10.9,76,0.00,,---,0.00,VWS V14.01,2013-02-21 10:46:00,
2013-02-21 05:47:00,22.3,15.6,29.92,WNW,284,9.8,11.7,75,0.00,,,0.00,VWS V14.01,2013-02-21 10:47:00,
2013-02-21 05:48:00,22.2,15.6,29.92,West,276,6.0,10.9,75,0.00,,,0.00,VWS V14.01,2013-02-21 10:48:00,
2013-02-21 05:49:00,22.3,15.8,29.92,SW,217,2.4,11.0,76,0.00,,,0.00,VWS V14.01,2013-02-21 10:49:00,
2013-02-21 05:50:00,22.2,15.5,29.92,NNW,330,0.0,10.6,75,0.00,,,0.00,VWS V14.01,2013-02-21 10:50:00,
2013-02-21 05:51:00,22.2,15.2,29.92,North,359,4.2,15.7,74,0.00,,---,0.00,VWS V14.01,2013-02-21 10:51:00,
2013-02-21 05:52:00,22.1,15.1,29.92,WNW,287,12.9,17.5,74,0.00,,,0.00,VWS V14.01,2013-02-21 10:52:00,
2013-02-21 05:53:00,22.1,15.3,29.92,WNW,301,6.6,15.7,75,0.00,,,0.00,VWS V14.01,2013-02-21 10:53:00,
2013-02-21 05:54:00,22.1,15.3,29.92,NW,323,8.3,21.8,75,0.00,,,0.00,VWS V14.01,2013-02-21 10:54:00,
2013-02-21 05:55:00,22.1,15.1,29.92,NW,315,5.5,13.3,74,0.00,,,0.00,VWS V14.01,2013-02-21 10:55:00,
2013-02-21 05:56:00,22.2,15.4,29.92,West,280,8.1,12.0,75,0.00,,---,0.00,VWS V14.01,2013-02-21 10:56:00,
2013-02-21 05:57:00,22.2,15.4,29.92,WNW,295,6.9,16.3,75,0.00,,,0.00,VWS V14.01,2013-02-21 10:57:00,
2013-02-21 05:58:00,22.2,15.2,29.92,West,271,12.0,13.5,74,0.00,,,0.00,VWS V14.01,2013-02-21 10:58:00,
2013-02-21 05:59:00,22.2,15.4,29.92,NW,305,0.0,12.2,75,0.00,,,0.00,VWS V14.01,2013-02-21 10:59:00,
2013-02-21 06:00:00,22.1,15.2,29.92,WSW,257,5.5,11.0,74,0.00,,,0.00,VWS V14.01,2013-02-21 11:00:00,
2013-02-21 06:01:00,22.2,15.5,29.92,WNW,288,8.0,10.8,75,0.00,,---,0.00,VWS V14.01,2013-02-21 11:01:00,
2013-02-21 06:02:00,22.1,15.5,29.92,West,276,9.3,12.4,75,0.00,,,0.00,VWS V14.01,2013-02-21 11:02:00,
2013-02-21 06:03:00,22.1,15.4,29.92,WNW,302,0.0,10.8,75,0.00,,,0.00,VWS V14.01,2013-02-21 11:03:00,
2013-02-21 06:04:00,22.2,15.7,29.92,NNW,346,5.0,13.6,76,0.00,,,0.00,VWS V14.01,2013-02-21 11:04:00,
2013-02-21 06:05:00,22.1,15.9,29.92,West,271,4.3,11.6,77,0.00,,,0.00,VWS V14.01,2013-02-21 11:05:00,
2013-02-21 06:06:00,22.0,15.1,29.91,WNW,288,13.5,14.7,74,0.00,,---,0.00,VWS V14.01,2013-02-21 11:06:00,
2013-02-21 06:07:00,22.1,15.6,29.92,WNW,294,11.4,13.5,76,0.00,,,0.00,VWS V14.01,2013-02-21 11:07:00,
2013-02-21 06:08:00,22.1,15.2,29.91,NNW,332,4.2,14.7,74,0.00,,,0.00,VWS V14.01,2013-02-21 11:08:00,
2013-02-21 06:09:00,21.9,15.1,29.91,West,260,5.8,14.9,75,0.00,,,0.00,VWS V14.01,2013-02-21 11:09:00,
2013-02-21 06:10:00,22.0,15.4,29.91,WNW,292,0.0,14.4,75,0.00,,,0.00,VWS V14.01,2013-02-21 11:10:00,
2013-02-21 06:11:00,22.0,15.2,29.92,NW,323,5.7,19.5,75,0.00,,---,0.00,VWS V14.01,2013-02-21 11:11:00,
2013-02-21 06:12:00,22.0,15.3,29.92,NW,304,13.5,16.7,75,0.00,,,0.00,VWS V14.01,2013-02-21 11:12:00,
2013-02-21 06:13:00,22.0,15.2,29.92,West,263,0.0,19.5,75,0.00,,,0.00,VWS V14.01,2013-02-21 11:13:00,
2013-02-21 06:14:00,22.0,15.6,29.92,WNW,284,3.5,11.9,76,0.00,,,0.00,VWS V14.01,2013-02-21 11:14:00,
2013-02-21 06:15:00,22.0,15.7,29.92,NW,309,8.1,12.4,76,0.00,,,0.00,VWS V14.01,2013-02-21 11:15:00,
2013-02-21 06:16:00,22.0,15.5,29.92,WNW,287,6.6,9.0,76,0.00,,---,0.00,VWS V14.01,2013-02-21 11:16:00,
2013-02-21 06:17:00,22.0,15.2,29.92,West,274,7.4,10.7,75,0.00,,,0.00,VWS V14.01,2013-02-21 11:17:00,
2013-02-21 06:18:00,22.0,15.4,29.92,NW,322,4.5,9.0,75,0.00,,,0.00,VWS V14.01,2013-02-21 11:18:00,
2013-02-21 06:19:00,22.1,15.5,29.92,North,359,0.0,7.8,75,0.00,,,0.00,VWS V14.01,2013-02-21 11:19:00,
2013-02-21 06:20:00,22.1,15.1,29.92,NW,316,0.0,12.0,74,0.00,,,0.00,VWS V14.01,2013-02-21 11:20:00,
2013-02-21 06:21:00,22.1,15.7,29.92,WNW,295,8.8,12.1,76,0.00,,---,0.00,VWS V14.01,2013-02-21 11:21:00,
2013-02-21 06:22:00,22.1,15.4,29.92,West,271,0.0,5.5,75,0.00,,,0.00,VWS V14.01,2013-02-21 11:22:00,
2013-02-21 06:23:00,22.2,15.5,29.92,WSW,252,3.4,12.1,75,0.00,,,0.00,VWS V14.01,2013-02-21 11:23:00,
2013-02-21 06:24:00,22.2,15.3,29.92,SW,217,2.9,5.6,74,0.00,,,0.00,VWS V14.01,2013-02-21 11:24:00,
2013-02-21 06:25:00,22.2,15.5,29.92,NNW,340,0.0,7.6,75,0.00,,,0.00,VWS V14.01,2013-02-21 11:25:00,
2013-02-21 06:26:00,22.1,14.8,29.92,WSW,257,12.1,14.8,73,0.00,,---,0.00,VWS V14.01,2013-02-21 11:26:00,
2013-02-21 06:27:00,22.1,14.8,29.92,West,266,14.1,18.3,73,0.00,,,0.00,VWS V14.01,2013-02-21 11:27:00,
2013-02-21 06:28:00,22.0,14.8,29.92,WNW,290,9.4,14.8,73,0.00,,,0.00,VWS V14.01,2013-02-21 11:28:00,
2013-02-21 06:29:00,22.1,15.1,29.92,NW,316,3.3,14.7,74,0.00,,,0.00,VWS V14.01,2013-02-21 11:29:00,
2013-02-21 06:30:00,22.1,15.0,29.92,NNW,328,0.0,6.9,74,0.00,,,0.00,VWS V14.01,2013-02-21 11:30:00,
2013-02-21 06:31:00,22.1,15.6,29.92,NW,323,5.7,9.9,76,0.00,,---,0.00,VWS V14.01,2013-02-21 11:31:00,
2013-02-21 06:32:00,22.1,15.2,29.92,WNW,287,6.0,10.3,74,0.00,,,0.00,VWS V14.01,2013-02-21 11:32:00,
2013-02-21 06:33:00,22.1,15.5,29.92,WNW,288,6.5,9.9,75,0.00,,,0.00,VWS V14.01,2013-02-21 11:33:00,
2013-02-21 06:34:00,22.0,14.9,29.92,WNW,301,12.9,17.1,74,0.00,,,0.00,VWS V14.01,2013-02-21 11:34:00,
2013-02-21 06:35:00,22.1,14.9,29.92,West,277,8.3,12.9,73,0.00,,,0.00,VWS V14.01,2013-02-21 11:35:00,
2013-02-21 06:36:00,22.1,15.1,29.92,WNW,284,0.0,8.0,74,0.00,,---,0.00,VWS V14.01,2013-02-21 11:36:00,
2013-02-21 06:37:00,22.1,15.1,29.92,West,270,8.0,9.8,74,0.00,,,0.00,VWS V14.01,2013-02-21 11:37:00,
2013-02-21 06:38:00,22.1,15.1,29.92,WNW,284,0.0,8.0,74,0.00,,,0.00,VWS V14.01,2013-02-21 11:38:00,
2013-02-21 06:39:00,22.1,15.2,29.92,NW,321,0.0,5.0,74,0.00,,,0.00,VWS V14.01,2013-02-21 11:39:00,
2013-02-21 06:40:00,22.1,15.1,29.92,NW,326,0.0,7.7,74,0.00,,,0.00,VWS V14.01,2013-02-21 11:40:00,
2013-02-21 06:41:00,22.1,15.3,29.92,West,260,0.0,10.1,75,0.00,,---,0.00,VWS V14.01,2013-02-21 11:41:00,
2013-02-21 06:42:00,22.1,15.5,29.92,WNW,300,5.7,6.7,75,0.00,,,0.00,VWS V14.01,2013-02-21 11:42:00,
2013-02-21 06:43:00,22.1,15.5,29.92,WNW,292,8.6,10.2,75,0.00,,,0.00,VWS V14.01,2013-02-21 11:43:00,
2013-02-21 06:44:00,22.0,15.1,29.92,West,273,9.2,12.6,74,0.00,,,0.00,VWS V14.01,2013-02-21 11:44:00,
2013-02-21 06:45:00,22.0,15.0,29.92,West,273,5.3,15.3,74,0.00,,,0.00,VWS V14.01,2013-02-21 11:45:00,
2013-02-21 06:46:00,22.1,15.0,29.92,WNW,300,8.7,15.1,74,0.00,,---,0.00,VWS V14.01,2013-02-21 11:46:00,
2013-02-21 06:47:00,22.0,14.7,29.92,WSW,253,0.0,15.7,73,0.00,,,0.00,VWS V14.01,2013-02-21 11:47:00,
2013-02-21 06:48:00,22.0,14.7,29.92,West,273,7.6,15.1,73,0.00,,,0.00,VWS V14.01,2013-02-21 11:48:00,
2013-02-21 06:49:00,22.0,14.9,29.91,NW,316,7.1,12.7,74,0.00,,,0.00,VWS V14.01,2013-02-21 11:49:00,
2013-02-21 06:50:00,22.0,15.1,29.91,West,278,5.8,7.1,74,0.00,,,0.00,VWS V14.01,2013-02-21 11:50:00,
2013-02-21 06:51:00,22.1,15.2,29.92,WNW,287,0.0,4.4,74,0.00,,---,0.00,VWS V14.01,2013-02-21 11:51:00,
2013-02-21 06:52:00,22.1,15.2,29.92,West,273,3.5,7.5,74,0.00,,,0.00,VWS V14.01,2013-02-21 11:52:00,
2013-02-21 06:53:00,22.1,15.2,29.92,WNW,287,0.0,4.4,74,0.00,,,0.00,VWS V14.01,2013-02-21 11:53:00,
2013-02-21 06:54:00,22.1,15.3,29.92,SSW,204,3.1,5.3,75,0.00,,,0.00,VWS V14.01,2013-02-21 11:54:00,
2013-02-21 06:55:00,22.1,15.4,29.92,SSW,204,0.0,3.1,75,0.00,,,0.00,VWS V14.01,2013-02-21 11:55:00,
2013-02-21 06:56:00,22.1,14.9,29.92,West,276,5.3,12.6,73,0.00,,---,0.00,VWS V14.01,2013-02-21 11:56:00,
2013-02-21 06:57:00,22.1,15.0,29.92,WNW,294,8.2,14.6,74,0.00,,,0.00,VWS V14.01,2013-02-21 11:57:00,
2013-02-21 06:58:00,22.1,14.9,29.92,North,7,5.0,12.6,73,0.00,,,0.00,VWS V14.01,2013-02-21 11:58:00,
2013-02-21 06:59:00,22.0,14.6,29.92,WNW,297,10.8,13.6,73,0.00,,,0.00,VWS V14.01,2013-02-21 11:59:00,
2013-02-21 07:00:00,22.0,15.2,29.91,NW,304,0.0,10.8,75,0.00,,,0.00,VWS V14.01,2013-02-21 12:00:00,
2013-02-21 07:01:00,22.0,15.0,29.91,WNW,288,12.7,12.7,74,0.00,,---,0.00,VWS V14.01,2013-02-21 12:01:00,
2013-02-21 07:02:00,21.9,14.8,29.91,WNW,288,0.0,3.1,74,0.00,,,0.00,VWS V14.01,2013-02-21 12:02:00,
2013-02-21 07:03:00,21.9,14.9,29.91,North,359,5.7,12.7,74,0.00,,,0.00,VWS V14.01,2013-02-21 12:03:00,
2013-02-21 07:04:00,22.0,15.1,29.91,NW,323,6.5,8.3,74,0.00,,,0.00,VWS V14.01,2013-02-21 12:04:00,
2013-02-21 07:05:00,22.0,14.8,29.91,NW,305,0.0,9.8,73,0.00,,,0.00,VWS V14.01,2013-02-21 12:05:00,
2013-02-21 07:06:00,22.1,15.2,29.91,WNW,295,9.6,15.0,74,0.00,,---,0.00,VWS V14.01,2013-02-21 12:06:00,
2013-02-21 07:07:00,22.0,14.7,29.91,WNW,290,15.0,15.0,73,0.00,,,0.00,VWS V14.01,2013-02-21 12:07:00,
2013-02-21 07:08:00,22.1,15.0,29.91,NNW,329,7.5,15.0,74,0.00,,,0.00,VWS V14.01,2013-02-21 12:08:00,
2013-02-21 07:09:00,22.1,14.6,29.91,NW,305,6.3,15.9,72,0.00,,,0.00,VWS V14.01,2013-02-21 12:09:00,
2013-02-21 07:10:00,22.1,15.2,29.91,WNW,294,6.3,16.0,74,0.00,,,0.00,VWS V14.01,2013-02-21 12:10:00,
2013-02-21 07:11:00,22.2,15.1,29.92,WNW,283,13.0,13.0,74,0.00,,---,0.00,VWS V14.01,2013-02-21 12:11:00,
2013-02-21 07:12:00,22.1,15.0,29.91,North,1,6.9,10.7,74,0.00,,,0.00,VWS V14.01,2013-02-21 12:12:00,
2013-02-21 07:13:00,22.1,15.0,29.92,WSW,255,7.8,13.0,74,0.00,,,0.00,VWS V14.01,2013-02-21 12:13:00,
2013-02-21 07:14:00,22.1,14.8,29.92,NW,316,0.0,7.8,73,0.00,,,0.00,VWS V14.01,2013-02-21 12:14:00,
2013-02-21 07:15:00,22.2,15.0,29.92,NW,322,4.2,5.1,74,0.00,,,0.00,VWS V14.01,2013-02-21 12:15:00,
2013-02-21 07:16:00,22.1,14.8,29.92,West,267,0.0,5.6,73,0.00,,---,0.00,VWS V14.01,2013-02-21 12:16:00,
2013-02-21 07:17:00,22.1,14.7,29.92,NW,316,5.6,8.9,73,0.00,,,0.00,VWS V14.01,2013-02-21 12:17:00,
2013-02-21 07:18:00,22.2,14.9,29.92,NW,311,7.8,9.4,73,0.00,,,0.00,VWS V14.01,2013-02-21 12:18:00,
2013-02-21 07:19:00,22.1,14.8,29.92,NW,314,8.7,8.7,73,0.00,,,0.00,VWS V14.01,2013-02-21 12:19:00,
2013-02-21 07:20:00,22.1,14.8,29.92,North,359,0.0,8.7,73,0.00,,,0.00,VWS V14.01,2013-02-21 12:20:00,
2013-02-21 07:21:00,22.1,14.4,29.92,WNW,294,2.2,12.0,72,0.00,,---,0.00,VWS V14.01,2013-02-21 12:21:00,
2013-02-21 07:22:00,22.1,14.5,29.92,NW,314,0.0,8.0,72,0.00,,,0.00,VWS V14.01,2013-02-21 12:22:00,
2013-02-21 07:23:00,22.1,14.4,29.92,WNW,294,0.0,12.0,72,0.00,,,0.00,VWS V14.01,2013-02-21 12:23:00,
2013-02-21 07:24:00,22.2,15.0,29.92,NW,305,0.0,3.4,73,0.00,,,0.00,VWS V14.01,2013-02-21 12:24:00,
2013-02-21 07:25:00,22.2,14.7,29.92,WNW,295,0.0,10.1,72,0.00,,,0.00,VWS V14.01,2013-02-21 12:25:00,
2013-02-21 07:26:00,22.2,14.7,29.92,WNW,295,3.0,14.1,72,0.00,,---,0.00,VWS V14.01,2013-02-21 12:26:00,
2013-02-21 07:27:00,22.2,14.8,29.92,NW,309,8.9,16.1,73,0.00,,,0.00,VWS V14.01,2013-02-21 12:27:00,
2013-02-21 07:28:00,22.2,14.7,29.92,West,276,5.9,14.1,72,0.00,,,0.00,VWS V14.01,2013-02-21 12:28:00,
2013-02-21 07:29:00,22.3,14.8,29.92,West,269,8.1,12.6,72,0.00,,,0.00,VWS V14.01,2013-02-21 12:29:00,
2013-02-21 07:30:00,22.4,15.1,29.92,NW,325,0.0,8.5,73,0.00,,,0.00,VWS V14.01,2013-02-21 12:30:00,
2013-02-21 07:31:00,22.4,14.9,29.92,West,277,8.2,10.8,72,0.00,,---,0.00,VWS V14.01,2013-02-21 12:31:00,
2013-02-21 07:32:00,22.5,15.1,29.92,North,359,4.2,5.5,73,0.00,,,0.00,VWS V14.01,2013-02-21 12:32:00,
2013-02-21 07:33:00,22.5,15.0,29.92,WSW,255,7.2,10.8,72,0.00,,,0.00,VWS V14.01,2013-02-21 12:33:00,
2013-02-21 07:34:00,22.3,14.7,29.92,West,281,0.0,9.3,72,0.00,,,0.00,VWS V14.01,2013-02-21 12:34:00,
2013-02-21 07:35:00,22.4,14.9,29.92,NNW,332,4.7,8.1,72,0.00,,,0.00,VWS V14.01,2013-02-21 12:35:00,
2013-02-21 07:36:00,22.5,15.3,29.92,WNW,302,0.0,3.4,73,0.00,,---,0.00,VWS V14.01,2013-02-21 12:36:00,
2013-02-21 07:37:00,22.5,15.1,29.92,WNW,302,3.4,7.9,73,0.00,,,0.00,VWS V14.01,2013-02-21 12:37:00,
2013-02-21 07:38:00,22.5,15.3,29.92,WNW,302,0.0,3.4,73,0.00,,,0.00,VWS V14.01,2013-02-21 12:38:00,
2013-02-21 07:39:00,22.6,15.4,29.92,West,274,6.5,7.5,73,0.00,,,0.00,VWS V14.01,2013-02-21 12:39:00,
2013-02-21 07:40:00,22.5,14.8,29.92,West,267,7.9,11.1,72,0.00,,,0.00,VWS V14.01,2013-02-21 12:40:00,
2013-02-21 07:41:00,22.6,14.8,29.93,NW,319,4.8,10.6,71,0.00,,---,0.00,VWS V14.01,2013-02-21 12:41:00,
2013-02-21 07:42:00,22.6,14.9,29.92,WSW,252,6.9,10.4,72,0.00,,,0.00,VWS V14.01,2013-02-21 12:42:00,
2013-02-21 07:43:00,22.6,14.8,29.93,NW,319,4.8,10.6,71,0.00,,,0.00,VWS V14.01,2013-02-21 12:43:00,
2013-02-21 07:44:00,22.6,14.7,29.93,WNW,295,0.0,4.8,71,0.00,,,0.00,VWS V14.01,2013-02-21 12:44:00,
2013-02-21 07:45:00,22.6,15.0,29.93,NW,307,5.0,10.9,72,0.00,,,0.00,VWS V14.01,2013-02-21 12:45:00,
2013-02-21 07:46:00,22.8,15.1,29.93,NW,315,5.0,5.6,72,0.00,,---,0.00,VWS V14.01,2013-02-21 12:46:00,
2013-02-21 07:47:00,22.7,14.8,29.93,West,276,0.0,6.8,71,0.00,,,0.00,VWS V14.01,2013-02-21 12:47:00,
2013-02-21 07:48:00,22.8,15.1,29.93,NW,315,5.0,5.6,72,0.00,,,0.00,VWS V14.01,2013-02-21 12:48:00,
2013-02-21 07:49:00,22.8,14.8,29.93,NNW,346,0.0,12.3,71,0.00,,,0.00,VWS V14.01,2013-02-21 12:49:00,
2013-02-21 07:50:00,22.8,14.7,29.93,WNW,290,5.7,8.4,71,0.00,,,0.00,VWS V14.01,2013-02-21 12:50:00,
2013-02-21 07:51:00,22.9,14.9,29.93,WNW,301,0.0,0.0,71,0.00,,---,0.00,VWS V14.01,2013-02-21 12:51:00,
2013-02-21 07:52:00,22.9,14.8,29.93,WNW,301,0.0,9.3,71,0.00,,,0.00,VWS V14.01,2013-02-21 12:52:00,
2013-02-21 07:53:00,22.9,14.9,29.93,WNW,301,0.0,0.0,71,0.00,,,0.00,VWS V14.01,2013-02-21 12:53:00,
2013-02-21 07:54:00,22.9,15.0,29.93,WNW,301,0.0,0.0,71,0.00,,,0.00,VWS V14.01,2013-02-21 12:54:00,
2013-02-21 07:55:00,22.9,14.8,29.93,WNW,298,0.0,5.8,71,0.00,,,0.00,VWS V14.01,2013-02-21 12:55:00,
2013-02-21 07:56:00,23.0,15.0,29.93,WNW,295,0.0,7.9,71,0.00,,---,0.00,VWS V14.01,2013-02-21 12:56:00,
2013-02-21 07:57:00,22.9,14.8,29.93,NW,305,5.5,6.2,71,0.00,,,0.00,VWS V14.01,2013-02-21 12:57:00,
2013-02-21 07:58:00,23.0,15.0,29.93,WNW,295,0.0,7.9,71,0.00,,,0.00,VWS V14.01,2013-02-21 12:58:00,
2013-02-21 07:59:00,22.9,15.1,29.93,West,267,0.0,6.8,71,0.00,,,0.00,VWS V14.01,2013-02-21 12:59:00,
2013-02-21 08:00:00,22.9,14.7,29.93,WNW,302,0.0,8.8,70,0.00,,,0.00,VWS V14.01,2013-02-21 13:00:00,
2013-02-21 08:01:00,22.9,14.8,29.93,WNW,302,10.7,15.9,71,0.00,,---,0.00,VWS V14.01,2013-02-21 13:01:00,
2013-02-21 08:02:00,23.0,14.7,29.93,NW,315,0.0,9.6,70,0.00,,,0.00,VWS V14.01,2013-02-21 13:02:00,
2013-02-21 08:03:00,22.9,14.8,29.93,WNW,302,10.8,15.9,71,0.00,,,0.00,VWS V14.01,2013-02-21 13:03:00,
2013-02-21 08:04:00,22.9,14.4,29.93,NW,314,10.5,10.8,69,0.00,,,0.00,VWS V14.01,2013-02-21 13:04:00,
2013-02-21 08:05:00,22.9,14.6,29.93,West,273,11.1,11.1,70,0.00,,,0.00,VWS V14.01,2013-02-21 13:05:00,
2013-02-21 08:06:00,23.0,14.7,29.92,SW,231,0.0,6.0,70,0.00,,---,0.00,VWS V14.01,2013-02-21 13:06:00,
2013-02-21 08:07:00,22.9,14.5,29.93,WNW,290,0.0,11.8,70,0.00,,,0.00,VWS V14.01,2013-02-21 13:07:00,
2013-02-21 08:08:00,23.0,14.7,29.92,SW,231,0.0,6.0,70,0.00,,,0.00,VWS V14.01,2013-02-21 13:08:00,
2013-02-21 08:09:00,23.0,15.2,29.93,WNW,288,3.5,10.6,72,0.00,,,0.00,VWS V14.01,2013-02-21 13:09:00,
2013-02-21 08:10:00,23.1,14.9,29.92,NNW,330,7.6,10.3,70,0.00,,,0.00,VWS V14.01,2013-02-21 13:10:00,
2013-02-21 08:11:00,23.2,14.6,29.92,NNW,340,0.0,9.1,69,0.00,,---,0.00,VWS V14.01,2013-02-21 13:11:00,
2013-02-21 08:12:00,23.2,15.0,29.92,SW,225,0.0,9.7,70,0.00,,,0.00,VWS V14.01,2013-02-21 13:12:00,
2013-02-21 08:13:00,23.2,14.7,29.92,NNW,342,9.1,10.4,69,0.00,,,0.00,VWS V14.01,2013-02-21 13:13:00,
2013-02-21 08:14:00,23.2,14.9,29.92,NW,318,6.8,9.1,70,0.00,,,0.00,VWS V14.01,2013-02-21 13:14:00,
2013-02-21 08:15:00,23.3,15.3,29.93,SW,214,7.5,8.9,71,0.00,,,0.00,VWS V14.01,2013-02-21 13:15:00,
2013-02-21 08:16:00,23.4,14.8,29.93,NW,316,0.0,6.3,69,0.00,,---,0.00,VWS V14.01,2013-02-21 13:16:00,
2013-02-21 08:17:00,23.4,14.9,29.92,WNW,285,9.5,16.0,69,0.00,,,0.00,VWS V14.01,2013-02-21 13:17:00,
2013-02-21 08:18:00,23.4,14.8,29.93,NW,307,6.3,16.0,69,0.00,,,0.00,VWS V14.01,2013-02-21 13:18:00,
2013-02-21 08:19:00,23.5,15.0,29.93,NW,308,6.1,6.3,69,0.00,,,0.00,VWS V14.01,2013-02-21 13:19:00,
2013-02-21 08:20:00,23.5,15.3,29.93,NW,316,11.1,11.1,70,0.00,,,0.00,VWS V14.01,2013-02-21 13:20:00,
2013-02-21 08:21:00,23.4,14.8,29.93,NNW,329,0.0,3.3,69,0.00,,---,0.00,VWS V14.01,2013-02-21 13:21:00,
2013-02-21 08:22:00,23.4,14.5,29.93,NNW,329,0.0,9.9,68,0.00,,,0.00,VWS V14.01,2013-02-21 13:22:00,
2013-02-21 08:23:00,23.4,14.9,29.93,NNW,329,3.3,3.3,69,0.00,,,0.00,VWS V14.01,2013-02-21 13:23:00,
2013-02-21 08:24:00,23.4,14.9,29.93,WNW,287,2.9,3.3,69,0.00,,,0.00,VWS V14.01,2013-02-21 13:24:00,
2013-02-21 08:25:00,23.5,14.8,29.93,WNW,283,8.7,9.2,69,0.00,,,0.00,VWS V14.01,2013-02-21 13:25:00,
2013-02-21 08:26:00,23.5,14.6,29.93,West,277,6.0,9.9,68,0.00,,---,0.00,VWS V14.01,2013-02-21 13:26:00,
2013-02-21 08:27:00,23.6,14.9,29.93,NW,308,8.5,17.9,69,0.00,,,0.00,VWS V14.01,2013-02-21 13:27:00,
2013-02-21 08:28:00,23.6,14.7,29.93,West,267,9.9,14.6,68,0.00,,,0.00,VWS V14.01,2013-02-21 13:28:00,
2013-02-21 08:29:00,23.6,15.1,29.93,WNW,284,7.9,10.1,69,0.00,,,0.00,VWS V14.01,2013-02-21 13:29:00,
2013-02-21 08:30:00,23.6,14.7,29.93,North,359,5.7,9.8,68,0.00,,,0.00,VWS V14.01,2013-02-21 13:30:00,
2013-02-21 08:31:00,23.8,15.6,29.93,WNW,300,0.0,0.0,70,0.00,,---,0.00,VWS V14.01,2013-02-21 13:31:00,
2013-02-21 08:32:00,23.8,15.5,29.93,North,359,0.0,6.6,70,0.00,,,0.00,VWS V14.01,2013-02-21 13:32:00,
2013-02-21 08:33:00,23.9,15.4,29.93,WNW,300,0.0,14.0,70,0.00,,,0.00,VWS V14.01,2013-02-21 13:33:00,
2013-02-21 08:34:00,23.9,15.2,29.93,WNW,287,5.1,6.1,69,0.00,,,0.00,VWS V14.01,2013-02-21 13:34:00,
2013-02-21 08:35:00,24.0,15.4,29.93,WNW,298,0.0,6.9,69,0.00,,,0.00,VWS V14.01,2013-02-21 13:35:00,
2013-02-21 08:36:00,23.8,14.7,29.93,NW,304,5.5,8.6,68,0.00,,---,0.00,VWS V14.01,2013-02-21 13:36:00,
2013-02-21 08:37:00,24.0,15.3,29.93,West,270,8.6,11.1,69,0.00,,,0.00,VWS V14.01,2013-02-21 13:37:00,
2013-02-21 08:38:00,23.8,14.8,29.93,NW,326,6.9,11.3,68,0.00,,,0.00,VWS V14.01,2013-02-21 13:38:00,
2013-02-21 08:39:00,23.9,14.8,29.93,NNW,332,0.0,8.6,68,0.00,,,0.00,VWS V14.01,2013-02-21 13:39:00,
2013-02-21 08:40:00,23.8,15.0,29.93,SW,235,0.0,9.1,69,0.00,,,0.00,VWS V14.01,2013-02-21 13:40:00,
2013-02-21 08:41:00,24.0,14.8,29.93,NNW,336,0.0,5.2,68,0.00,,---,0.00,VWS V14.01,2013-02-21 13:41:00,
2013-02-21 08:42:00,24.0,15.3,29.93,NNW,342,4.3,8.4,69,0.00,,,0.00,VWS V14.01,2013-02-21 13:42:00,
2013-02-21 08:43:00,24.0,14.9,29.93,NNW,336,5.2,7.6,68,0.00,,,0.00,VWS V14.01,2013-02-21 13:43:00,
2013-02-21 08:44:00,24.1,15.3,29.93,NNW,336,0.0,5.2,69,0.00,,,0.00,VWS V14.01,2013-02-21 13:44:00,
2013-02-21 08:45:00,24.1,15.1,29.93,WSW,243,0.0,9.1,68,0.00,,,0.00,VWS V14.01,2013-02-21 13:45:00,
2013-02-21 08:46:00,24.3,15.0,29.93,NNW,330,7.3,8.5,67,0.00,,---,0.00,VWS V14.01,2013-02-21 13:46:00,
2013-02-21 08:47:00,24.3,15.1,29.93,NW,304,0.0,13.9,68,0.00,,,0.00,VWS V14.01,2013-02-21 13:47:00,
2013-02-21 08:48:00,24.3,15.1,29.93,North,350,4.5,8.1,67,0.00,,,0.00,VWS V14.01,2013-02-21 13:48:00,
2013-02-21 08:49:00,24.2,14.6,29.93,SW,221,0.0,9.4,66,0.00,,,0.00,VWS V14.01,2013-02-21 13:49:00,
2013-02-21 08:50:00,24.3,15.1,29.93,NNW,336,7.9,12.4,67,0.00,,,0.00,VWS V14.01,2013-02-21 13:50:00,
2013-02-21 08:51:00,24.1,14.7,29.93,WNW,301,5.5,9.6,67,0.00,,---,0.00,VWS V14.01,2013-02-21 13:51:00,
2013-02-21 08:52:00,24.2,14.9,29.93,NW,311,6.6,12.4,67,0.00,,,0.00,VWS V14.01,2013-02-21 13:52:00,
2013-02-21 08:53:00,24.2,15.0,29.93,NNW,342,8.8,10.9,67,0.00,,,0.00,VWS V14.01,2013-02-21 13:53:00,
2013-02-21 08:54:00,24.2,14.9,29.93,West,260,0.0,9.6,67,0.00,,,0.00,VWS V14.01,2013-02-21 13:54:00,
2013-02-21 08:55:00,24.3,15.3,29.93,WSW,239,8.9,14.5,68,0.00,,,0.00,VWS V14.01,2013-02-21 13:55:00,
2013-02-21 08:56:00,24.4,15.2,29.93,West,271,9.9,12.2,68,0.00,,,0.00,VWS V14.01,2013-02-21 13:56:00,
2013-02-21 08:57:00,24.5,15.2,29.93,West,278,0.0,0.0,67,0.00,,---,0.00,VWS V14.01,2013-02-21 13:57:00,
2013-02-21 08:58:00,24.5,15.2,29.92,West,278,0.0,8.5,67,0.00,,,0.00,VWS V14.01,2013-02-21 13:58:00,
2013-02-21 08:59:00,24.5,15.3,29.93,West,260,0.0,6.3,67,0.00,,,0.00,VWS V14.01,2013-02-21 13:59:00,
2013-02-21 09:00:00,24.5,15.2,29.93,NNW,335,0.0,6.3,67,0.00,,,0.00,VWS V14.01,2013-02-21 14:00:00,
2013-02-21 09:01:00,24.6,15.5,29.93,North,359,5.6,9.2,68,0.00,,,0.00,VWS V14.01,2013-02-21 14:01:00,
2013-02-21 09:02:00,24.5,14.8,29.93,WNW,290,4.1,12.1,66,0.00,,---,0.00,VWS V14.01,2013-02-21 14:02:00,
2013-02-21 09:03:00,24.5,14.8,29.93,NW,311,5.6,11.4,66,0.00,,,0.00,VWS V14.01,2013-02-21 14:03:00,
2013-02-21 09:04:00,24.5,15.0,29.93,North,359,6.0,12.1,67,0.00,,,0.00,VWS V14.01,2013-02-21 14:04:00,
2013-02-21 09:05:00,24.5,15.1,29.93,NE,39,5.9,9.0,67,0.00,,,0.00,VWS V14.01,2013-02-21 14:05:00,
2013-02-21 09:06:00,24.6,15.3,29.93,West,260,7.1,11.2,67,0.00,,,0.00,VWS V14.01,2013-02-21 14:06:00,
2013-02-21 09:07:00,24.7,15.0,29.93,WNW,287,3.4,12.6,66,0.00,,---,0.00,VWS V14.01,2013-02-21 14:07:00,
2013-02-21 09:08:00,24.7,15.0,29.93,NNW,335,8.2,8.2,66,0.00,,,0.00,VWS V14.01,2013-02-21 14:08:00,
2013-02-21 09:09:00,24.7,15.0,29.93,West,273,5.3,12.6,66,0.00,,,0.00,VWS V14.01,2013-02-21 14:09:00,
2013-02-21 09:10:00,24.7,14.8,29.92,NNW,329,10.9,10.9,66,0.00,,,0.00,VWS V14.01,2013-02-21 14:10:00,
2013-02-21 09:11:00,24.8,15.0,29.92,NW,314,0.0,11.9,66,0.00,,,0.00,VWS V14.01,2013-02-21 14:11:00,
2013-02-21 09:12:00,24.8,14.7,29.92,WSW,252,12.5,14.4,65,0.00,,---,0.00,VWS V14.01,2013-02-21 14:12:00,
2013-02-21 09:13:00,24.6,14.5,29.92,NW,311,0.0,14.0,65,0.00,,,0.00,VWS V14.01,2013-02-21 14:13:00,
2013-02-21 09:14:00,24.7,14.7,29.92,West,274,20.8,20.8,65,0.00,,,0.00,VWS V14.01,2013-02-21 14:14:00,
2013-02-21 09:15:00,24.7,14.8,29.92,West,274,14.0,20.8,66,0.00,,,0.00,VWS V14.01,2013-02-21 14:15:00,
2013-02-21 09:16:00,24.7,14.6,29.92,North,10,7.1,17.6,65,0.00,,,0.00,VWS V14.01,2013-02-21 14:16:00,
2013-02-21 09:17:00,24.7,14.9,29.93,NW,323,2.1,11.8,66,0.00,,---,0.00,VWS V14.01,2013-02-21 14:17:00,
2013-02-21 09:18:00,24.6,14.5,29.93,NW,312,8.2,16.5,65,0.00,,,0.00,VWS V14.01,2013-02-21 14:18:00,
2013-02-21 09:19:00,24.6,14.7,29.93,NNW,343,8.2,11.9,66,0.00,,,0.00,VWS V14.01,2013-02-21 14:19:00,
2013-02-21 09:20:00,24.6,14.5,29.93,WNW,288,10.1,13.3,65,0.00,,,0.00,VWS V14.01,2013-02-21 14:20:00,
2013-02-21 09:21:00,24.6,14.6,29.93,SSW,211,4.9,11.4,65,0.00,,,0.00,VWS V14.01,2013-02-21 14:21:00,
2013-02-21 09:22:00,25.0,14.8,29.93,NW,304,0.0,0.0,65,0.00,,---,0.00,VWS V14.01,2013-02-21 14:22:00,
2013-02-21 09:23:00,24.9,14.9,29.93,NW,304,0.0,6.0,65,0.00,,,0.00,VWS V14.01,2013-02-21 14:23:00,
2013-02-21 09:24:00,25.0,14.9,29.93,NNW,336,5.3,6.3,65,0.00,,,0.00,VWS V14.01,2013-02-21 14:24:00,
2013-02-21 09:25:00,25.1,15.3,29.93,West,276,16.2,17.8,66,0.00,,,0.00,VWS V14.01,2013-02-21 14:25:00,
2013-02-21 09:26:00,25.2,15.1,29.92,West,277,0.0,16.2,65,0.00,,,0.00,VWS V14.01,2013-02-21 14:26:00,
2013-02-21 09:27:00,25.4,15.0,29.93,WNW,298,12.7,12.7,64,0.00,,---,0.00,VWS V14.01,2013-02-21 14:27:00,
2013-02-21 09:28:00,25.4,15.4,29.93,North,1,5.0,11.9,65,0.00,,,0.00,VWS V14.01,2013-02-21 14:28:00,
2013-02-21 09:29:00,25.4,14.9,29.93,West,277,12.1,18.1,64,0.00,,,0.00,VWS V14.01,2013-02-21 14:29:00,
2013-02-21 09:30:00,25.3,14.8,29.93,NW,314,0.0,19.0,64,0.00,,,0.00,VWS V14.01,2013-02-21 14:30:00,
2013-02-21 09:31:00,25.4,14.9,29.93,North,359,6.5,11.7,64,0.00,,,0.00,VWS V14.01,2013-02-21 14:31:00,
2013-02-21 09:32:00,25.4,14.9,29.93,NNW,332,4.3,9.1,64,0.00,,---,0.00,VWS V14.01,2013-02-21 14:32:00,
2013-02-21 09:33:00,25.4,15.2,29.93,NNW,342,6.0,10.4,65,0.00,,,0.00,VWS V14.01,2013-02-21 14:33:00,
2013-02-21 09:34:00,25.4,14.8,29.93,NNW,330,8.6,9.1,64,0.00,,,0.00,VWS V14.01,2013-02-21 14:34:00,
2013-02-21 09:35:00,25.4,14.7,29.93,North,359,0.0,10.3,63,0.00,,,0.00,VWS V14.01,2013-02-21 14:35:00,
2013-02-21 09:36:00,25.6,15.2,29.93,WSW,249,0.0,9.1,64,0.00,,,0.00,VWS V14.01,2013-02-21 14:36:00,
2013-02-21 09:37:00,25.7,14.8,29.94,NW,307,8.1,9.1,63,0.00,,---,0.00,VWS V14.01,2013-02-21 14:37:00,
2013-02-21 09:38:00,25.7,15.0,29.94,SW,226,4.7,13.4,63,0.00,,,0.00,VWS V14.01,2013-02-21 14:38:00,
2013-02-21 09:39:00,25.7,14.8,29.94,NW,308,5.3,9.1,63,0.00,,,0.00,VWS V14.01,2013-02-21 14:39:00,
2013-02-21 09:40:00,25.7,14.9,29.94,NW,318,0.0,5.3,63,0.00,,,0.00,VWS V14.01,2013-02-21 14:40:00,
2013-02-21 09:41:00,25.8,15.1,29.94,North,352,0.0,6.6,63,0.00,,,0.00,VWS V14.01,2013-02-21 14:41:00,
2013-02-21 09:42:00,25.8,14.9,29.94,NW,326,11.5,11.5,63,0.00,,---,0.00,VWS V14.01,2013-02-21 14:42:00,
2013-02-21 09:43:00,25.7,14.7,29.93,NNE,28,5.3,17.3,63,0.00,,,0.00,VWS V14.01,2013-02-21 14:43:00,
2013-02-21 09:44:00,25.7,14.8,29.94,NW,321,9.9,11.5,63,0.00,,,0.00,VWS V14.01,2013-02-21 14:44:00,
2013-02-21 09:45:00,25.9,15.2,29.94,NW,308,0.0,9.9,63,0.00,,,0.00,VWS V14.01,2013-02-21 14:45:00,
2013-02-21 09:46:00,26.0,15.5,29.93,West,269,5.5,11.6,64,0.00,,,0.00,VWS V14.01,2013-02-21 14:46:00,
2013-02-21 09:47:00,26.1,15.0,29.93,North,7,6.0,15.8,62,0.00,,---,0.00,VWS V14.01,2013-02-21 14:47:00,
2013-02-21 09:48:00,26.0,14.8,29.93,NE,44,2.8,13.3,62,0.00,,,0.00,VWS V14.01,2013-02-21 14:48:00,
2013-02-21 09:49:00,26.1,15.0,29.93,North,7,0.0,15.8,62,0.00,,,0.00,VWS V14.01,2013-02-21 14:49:00,
2013-02-21 09:50:00,26.1,14.7,29.93,WNW,290,6.1,11.1,62,0.00,,,0.00,VWS V14.01,2013-02-21 14:50:00,
2013-02-21 09:51:00,26.2,14.8,29.93,North,8,0.0,16.0,61,0.00,,,0.00,VWS V14.01,2013-02-21 14:51:00,
2013-02-21 09:52:00,26.1,14.6,29.93,North,353,4.8,9.8,61,0.00,,---,0.00,VWS V14.01,2013-02-21 14:52:00,
2013-02-21 09:53:00,26.1,14.9,29.93,West,271,7.2,13.5,62,0.00,,,0.00,VWS V14.01,2013-02-21 14:53:00,
2013-02-21 09:54:00,26.1,14.6,29.93,NNW,342,6.1,9.8,61,0.00,,,0.00,VWS V14.01,2013-02-21 14:54:00,
2013-02-21 09:55:00,26.3,15.0,29.93,NNW,330,10.3,12.4,62,0.00,,,0.00,VWS V14.01,2013-02-21 14:55:00,
2013-02-21 09:56:00,25.9,14.1,29.93,NW,325,9.8,15.3,60,0.00,,,0.00,VWS V14.01,2013-02-21 14:56:00,
2013-02-21 09:57:00,26.0,14.8,29.94,NW,321,0.0,9.3,62,0.00,,---,0.00,VWS V14.01,2013-02-21 14:57:00,
2013-02-21 09:58:00,26.1,14.8,29.94,WNW,287,4.8,14.8,62,0.00,,,0.00,VWS V14.01,2013-02-21 14:58:00,
2013-02-21 09:59:00,26.0,14.7,29.94,NW,321,0.0,9.3,62,0.00,,,0.00,VWS V14.01,2013-02-21 14:59:00,
2013-02-21 10:00:00,26.0,14.6,29.94,WNW,288,12.8,14.0,62,0.00,,,0.00,VWS V14.01,2013-02-21 15:00:00,
2013-02-21 10:01:00,26.1,15.0,29.94,NNW,345,3.4,13.2,62,0.00,,,0.00,VWS V14.01,2013-02-21 15:01:00,
2013-02-21 10:02:00,26.4,15.3,29.94,NW,315,7.0,12.0,62,0.00,,---,0.00,VWS V14.01,2013-02-21 15:02:00,
2013-02-21 10:03:00,26.2,14.9,29.94,NNE,22,0.0,12.7,62,0.00,,,0.00,VWS V14.01,2013-02-21 15:03:00,
2013-02-21 10:04:00,26.4,15.3,29.94,NW,315,7.0,12.0,62,0.00,,,0.00,VWS V14.01,2013-02-21 15:04:00,
2013-02-21 10:05:00,26.3,14.7,29.94,NW,315,8.1,13.5,61,0.00,,,0.00,VWS V14.01,2013-02-21 15:05:00,
2013-02-21 10:06:00,26.3,14.7,29.94,NW,315,0.0,11.7,61,0.00,,,0.00,VWS V14.01,2013-02-21 15:06:00,
2013-02-21 10:07:00,26.4,14.9,29.94,NW,311,5.5,16.7,61,0.00,,---,0.00,VWS V14.01,2013-02-21 15:07:00,
2013-02-21 10:08:00,26.4,15.1,29.94,WNW,292,0.0,10.6,62,0.00,,,0.00,VWS V14.01,2013-02-21 15:08:00,
2013-02-21 10:09:00,26.4,14.9,29.94,NW,311,5.5,16.7,61,0.00,,,0.00,VWS V14.01,2013-02-21 15:09:00,
2013-02-21 10:10:00,26.5,14.6,29.94,WNW,288,7.0,15.3,60,0.00,,,0.00,VWS V14.01,2013-02-21 15:10:00,
2013-02-21 10:11:00,26.5,14.9,29.93,WNW,295,0.0,7.5,61,0.00,,,0.00,VWS V14.01,2013-02-21 15:11:00,
2013-02-21 10:12:00,26.7,15.2,29.94,WNW,291,0.0,3.1,61,0.00,,---,0.00,VWS V14.01,2013-02-21 15:12:00,
2013-02-21 10:13:00,26.5,14.9,29.94,North,354,0.0,10.6,61,0.00,,,0.00,VWS V14.01,2013-02-21 15:13:00,
2013-02-21 10:14:00,26.7,15.2,29.94,WNW,291,0.0,3.1,61,0.00,,,0.00,VWS V14.01,2013-02-21 15:14:00,
2013-02-21 10:15:00,26.7,15.3,29.94,WNW,291,0.0,0.0,62,0.00,,,0.00,VWS V14.01,2013-02-21 15:15:00,
2013-02-21 10:16:00,26.9,15.4,29.94,WNW,302,0.0,5.7,61,0.00,,,0.00,VWS V14.01,2013-02-21 15:16:00,
2013-02-21 10:17:00,27.1,15.9,29.94,NW,325,10.2,17.1,62,0.00,,---,0.00,VWS V14.01,2013-02-21 15:17:00,
2013-02-21 10:18:00,27.0,15.4,29.94,West,273,5.5,6.8,61,0.00,,,0.00,VWS V14.01,2013-02-21 15:18:00,
2013-02-21 10:19:00,27.1,15.9,29.94,NW,325,10.2,17.1,62,0.00,,,0.00,VWS V14.01,2013-02-21 15:19:00,
2013-02-21 10:20:00,26.8,14.9,29.94,West,274,12.3,13.2,60,0.00,,,0.00,VWS V14.01,2013-02-21 15:20:00,
2013-02-21 10:21:00,27.0,15.4,29.94,WNW,302,8.7,12.3,61,0.00,,,0.00,VWS V14.01,2013-02-21 15:21:00,
2013-02-21 10:22:00,27.2,15.6,29.94,WNW,298,0.0,0.0,61,0.00,,---,0.00,VWS V14.01,2013-02-21 15:22:00,
2013-02-21 10:23:00,27.2,15.1,29.94,WNW,298,0.0,6.1,60,0.00,,,0.00,VWS V14.01,2013-02-21 15:23:00,
2013-02-21 10:24:00,27.2,15.6,29.94,WNW,298,0.0,0.0,61,0.00,,,0.00,VWS V14.01,2013-02-21 15:24:00,
2013-02-21 10:25:00,27.3,15.5,29.94,WNW,298,0.0,0.0,61,0.00,,,0.00,VWS V14.01,2013-02-21 15:25:00,
2013-02-21 10:26:00,27.4,15.3,29.94,West,259,5.3,8.2,60,0.00,,,0.00,VWS V14.01,2013-02-21 15:26:00,
2013-02-21 10:27:00,26.9,14.5,29.94,NNW,340,6.0,9.9,59,0.00,,---,0.00,VWS V14.01,2013-02-21 15:27:00,
2013-02-21 10:28:00,27.3,14.4,29.94,West,263,3.5,14.2,58,0.00,,,0.00,VWS V14.01,2013-02-21 15:28:00,
2013-02-21 10:29:00,27.0,14.2,29.94,NNW,345,7.6,11.1,58,0.00,,,0.00,VWS V14.01,2013-02-21 15:29:00,
2013-02-21 10:30:00,26.9,14.2,29.94,WNW,297,4.3,14.8,58,0.00,,,0.00,VWS V14.01,2013-02-21 15:30:00,
2013-02-21 10:31:00,26.9,14.6,29.94,NNW,335,5.7,5.7,59,0.00,,,0.00,VWS V14.01,2013-02-21 15:31:00,
2013-02-21 10:32:00,26.9,14.9,29.95,NW,314,6.3,9.6,60,0.00,,---,0.00,VWS V14.01,2013-02-21 15:32:00,
2013-02-21 10:33:00,26.8,15.2,29.94,WNW,285,0.0,9.2,61,0.00,,,0.00,VWS V14.01,2013-02-21 15:33:00,
2013-02-21 10:34:00,27.0,15.1,29.94,WNW,285,0.0,0.0,60,0.00,,,0.00,VWS V14.01,2013-02-21 15:34:00,
2013-02-21 10:35:00,26.9,14.5,29.94,NNW,336,11.6,14.9,59,0.00,,,0.00,VWS V14.01,2013-02-21 15:35:00,
2013-02-21 10:36:00,26.8,14.4,29.94,NNW,339,0.0,13.6,59,0.00,,,0.00,VWS V14.01,2013-02-21 15:36:00,
2013-02-21 10:37:00,26.9,14.9,29.94,WNW,290,9.7,14.9,60,0.00,,---,0.00,VWS V14.01,2013-02-21 15:37:00,
2013-02-21 10:38:00,26.8,14.6,29.94,WNW,285,6.4,13.2,60,0.00,,,0.00,VWS V14.01,2013-02-21 15:38:00,
2013-02-21 10:39:00,26.9,15.0,29.94,NNW,335,10.9,11.1,60,0.00,,,0.00,VWS V14.01,2013-02-21 15:39:00,
2013-02-21 10:40:00,26.8,14.5,29.94,WNW,302,4.2,14.9,59,0.00,,,0.00,VWS V14.01,2013-02-21 15:40:00,
2013-02-21 10:41:00,26.8,14.6,29.94,WNW,287,9.8,14.1,60,0.00,,,0.00,VWS V14.01,2013-02-21 15:41:00,
2013-02-21 10:42:00,27.0,14.8,29.94,NW,307,5.8,5.8,60,0.00,,---,0.00,VWS V14.01,2013-02-21 15:42:00,
2013-02-21 10:43:00,26.9,14.6,29.94,NNE,14,4.7,12.7,59,0.00,,,0.00,VWS V14.01,2013-02-21 15:43:00,
2013-02-21 10:44:00,26.9,14.6,29.94,NNW,329,0.0,10.4,59,0.00,,,0.00,VWS V14.01,2013-02-21 15:44:00,
2013-02-21 10:45:00,27.0,15.3,29.94,WSW,255,5.2,12.0,61,0.00,,,0.00,VWS V14.01,2013-02-21 15:45:00,
2013-02-21 10:46:00,27.0,14.8,29.94,North,359,8.1,9.5,60,0.00,,,0.00,VWS V14.01,2013-02-21 15:46:00,
2013-02-21 10:47:00,27.3,15.0,29.94,West,259,6.5,8.0,59,0.00,,---,0.00,VWS V14.01,2013-02-21 15:47:00,
2013-02-21 10:48:00,27.1,14.6,29.94,WNW,285,8.3,15.0,59,0.00,,,0.00,VWS V14.01,2013-02-21 15:48:00,
2013-02-21 10:49:00,27.3,14.9,29.94,NW,315,8.0,13.2,59,0.00,,,0.00,VWS V14.01,2013-02-21 15:49:00,
2013-02-21 10:50:00,27.3,14.9,29.94,NW,325,3.2,11.4,59,0.00,,,0.00,VWS V14.01,2013-02-21 15:50:00,
2013-02-21 10:51:00,27.5,14.8,29.94,North,354,0.0,5.5,58,0.00,,,0.00,VWS V14.01,2013-02-21 15:51:00,
2013-02-21 10:52:00,28.0,15.0,29.95,West,280,4.4,5.0,58,0.00,,---,0.00,VWS V14.01,2013-02-21 15:52:00,
2013-02-21 10:53:00,27.8,15.0,29.94,NW,305,7.2,7.2,58,0.00,,,0.00,VWS V14.01,2013-02-21 15:53:00,
2013-02-21 10:54:00,28.0,15.0,29.94,NW,323,1.7,7.3,58,0.00,,,0.00,VWS V14.01,2013-02-21 15:54:00,
2013-02-21 10:55:00,28.3,15.0,29.94,West,267,0.0,5.0,57,0.00,,,0.00,VWS V14.01,2013-02-21 15:55:00,
2013-02-21 10:56:00,28.1,15.4,29.94,NW,312,0.0,4.2,58,0.00,,,0.00,VWS V14.01,2013-02-21 15:56:00,
2013-02-21 10:57:00,28.1,14.1,29.95,NW,309,6.9,8.5,55,0.00,,---,0.00,VWS V14.01,2013-02-21 15:57:00,
2013-02-21 10:58:00,28.2,15.2,29.95,NNW,330,3.2,6.8,58,0.00,,,0.00,VWS V14.01,2013-02-21 15:58:00,
2013-02-21 10:59:00,28.1,14.2,29.95,North,354,8.5,15.5,55,0.00,,,0.00,VWS V14.01,2013-02-21 15:59:00,
2013-02-21 11:00:00,28.0,14.7,29.95,NW,322,0.0,8.5,57,0.00,,,0.00,VWS V14.01,2013-02-21 16:00:00,
2013-02-21 11:01:00,28.0,14.9,29.95,NW,322,0.0,0.0,57,0.00,,,0.00,VWS V14.01,2013-02-21 16:01:00,
2013-02-21 11:02:00,28.4,15.6,29.95,WNW,295,0.0,0.0,58,0.00,,---,0.00,VWS V14.01,2013-02-21 16:02:00,
2013-02-21 11:03:00,28.4,15.0,29.95,WNW,283,0.0,4.3,57,0.00,,,0.00,VWS V14.01,2013-02-21 16:03:00,
2013-02-21 11:04:00,28.4,15.4,29.95,WNW,295,0.0,3.1,58,0.00,,,0.00,VWS V14.01,2013-02-21 16:04:00,
2013-02-21 11:05:00,28.3,14.8,29.95,WNW,297,6.3,8.7,56,0.00,,,0.00,VWS V14.01,2013-02-21 16:05:00,
2013-02-21 11:06:00,28.3,14.8,29.95,NNW,340,5.8,9.8,56,0.00,,,0.00,VWS V14.01,2013-02-21 16:06:00,
2013-02-21 11:07:00,28.2,14.9,29.95,WNW,301,7.8,15.2,57,0.00,,---,0.00,VWS V14.01,2013-02-21 16:07:00,
2013-02-21 11:08:00,28.3,15.3,29.95,WNW,301,0.0,8.3,58,0.00,,,0.00,VWS V14.01,2013-02-21 16:08:00,
2013-02-21 11:09:00,28.4,15.7,29.95,WSW,243,15.2,15.2,58,0.00,,,0.00,VWS V14.01,2013-02-21 16:09:00,
2013-02-21 11:10:00,28.3,15.3,29.95,NNW,330,9.5,15.2,58,0.00,,,0.00,VWS V14.01,2013-02-21 16:10:00,
2013-02-21 11:11:00,28.1,15.1,29.95,WNW,295,6.6,13.4,58,0.00,,,0.00,VWS V14.01,2013-02-21 16:11:00,
2013-02-21 11:12:00,27.8,14.0,29.95,North,359,8.8,16.8,56,0.00,,---,0.00,VWS V14.01,2013-02-21 16:12:00,
2013-02-21 11:13:00,27.9,14.4,29.95,NW,323,10.0,15.6,56,0.00,,,0.00,VWS V14.01,2013-02-21 16:13:00,
2013-02-21 11:14:00,27.8,13.9,29.95,NNW,333,8.7,14.7,55,0.00,,,0.00,VWS V14.01,2013-02-21 16:14:00,
2013-02-21 11:15:00,27.6,13.9,29.95,NNW,339,7.9,16.8,56,0.00,,,0.00,VWS V14.01,2013-02-21 16:15:00,
2013-02-21 11:16:00,27.8,14.5,29.95,NNW,328,8.3,10.6,57,0.00,,,0.00,VWS V14.01,2013-02-21 16:16:00,
2013-02-21 11:17:00,28.0,14.9,29.96,NNW,343,7.4,7.4,57,0.00,,---,0.00,VWS V14.01,2013-02-21 16:17:00,
2013-02-21 11:18:00,27.8,14.7,29.95,North,359,5.2,9.9,57,0.00,,,0.00,VWS V14.01,2013-02-21 16:18:00,
2013-02-21 11:19:00,27.8,14.3,29.96,NW,319,0.0,9.9,56,0.00,,,0.00,VWS V14.01,2013-02-21 16:19:00,
2013-02-21 11:20:00,28.0,14.8,29.96,NNE,15,11.2,11.4,57,0.00,,,0.00,VWS V14.01,2013-02-21 16:20:00,
2013-02-21 11:21:00,27.9,14.6,29.96,North,11,7.0,13.3,57,0.00,,,0.00,VWS V14.01,2013-02-21 16:21:00,
2013-02-21 11:22:00,28.3,14.3,29.96,WNW,284,7.0,9.6,55,0.00,,---,0.00,VWS V14.01,2013-02-21 16:22:00,
2013-02-21 11:23:00,28.1,14.6,29.96,NW,309,7.1,18.9,56,0.00,,,0.00,VWS V14.01,2013-02-21 16:23:00,
2013-02-21 11:24:00,28.2,14.2,29.96,WNW,287,7.5,15.6,55,0.00,,,0.00,VWS V14.01,2013-02-21 16:24:00,
2013-02-21 11:25:00,28.1,14.4,29.96,West,281,9.8,11.2,56,0.00,,,0.00,VWS V14.01,2013-02-21 16:25:00,
2013-02-21 11:26:00,28.2,14.6,29.96,WNW,288,9.1,11.0,56,0.00,,,0.00,VWS V14.01,2013-02-21 16:26:00,
2013-02-21 11:27:00,28.2,14.6,29.95,WNW,295,5.2,13.0,56,0.00,,,0.00,VWS V14.01,2013-02-21 16:27:00,
2013-02-21 11:28:00,28.1,14.0,29.96,NNW,329,8.5,10.4,55,0.00,,---,0.00,VWS V14.01,2013-02-21 16:28:00,
2013-02-21 11:29:00,28.0,14.0,29.96,North,4,7.2,17.2,55,0.00,,,0.00,VWS V14.01,2013-02-21 16:29:00,
2013-02-21 11:30:00,28.3,14.2,29.96,WNW,302,7.0,10.4,55,0.00,,,0.00,VWS V14.01,2013-02-21 16:30:00,
2013-02-21 11:31:00,28.3,14.8,29.96,North,359,6.4,8.1,56,0.00,,,0.00,VWS V14.01,2013-02-21 16:31:00,
2013-02-21 11:32:00,28.6,15.2,29.96,North,359,5.4,9.9,57,0.00,,,0.00,VWS V14.01,2013-02-21 16:32:00,
2013-02-21 11:33:00,28.7,14.8,29.96,NW,322,5.5,9.6,56,0.00,,---,0.00,VWS V14.01,2013-02-21 16:33:00,
2013-02-21 11:34:00,28.6,14.8,29.96,NW,305,5.2,13.1,56,0.00,,,0.00,VWS V14.01,2013-02-21 16:34:00,
2013-02-21 11:35:00,28.6,14.7,29.96,NNW,335,7.2,13.4,55,0.00,,,0.00,VWS V14.01,2013-02-21 16:35:00,
2013-02-21 11:36:00,28.7,15.1,29.96,WNW,297,8.0,13.4,56,0.00,,,0.00,VWS V14.01,2013-02-21 16:36:00,
2013-02-21 11:37:00,28.7,14.3,29.96,WNW,284,5.5,11.4,54,0.00,,,0.00,VWS V14.01,2013-02-21 16:37:00,
2013-02-21 11:38:00,28.4,14.1,29.96,WNW,302,0.0,11.1,54,0.00,,---,0.00,VWS V14.01,2013-02-21 16:38:00,
2013-02-21 11:39:00,28.3,13.8,29.96,NNW,339,11.1,15.0,54,0.00,,,0.00,VWS V14.01,2013-02-21 16:39:00,
2013-02-21 11:40:00,28.5,14.3,29.96,WNW,302,0.0,11.1,55,0.00,,,0.00,VWS V14.01,2013-02-21 16:40:00,
2013-02-21 11:41:00,28.5,15.1,29.96,NNE,15,4.9,8.9,57,0.00,,,0.00,VWS V14.01,2013-02-21 16:41:00,
2013-02-21 11:42:00,28.6,15.9,29.96,NW,314,10.3,13.2,58,0.00,,,0.00,VWS V14.01,2013-02-21 16:42:00,
2013-02-21 11:43:00,28.4,14.8,29.96,NW,305,7.0,12.4,56,0.00,,---,0.00,VWS V14.01,2013-02-21 16:43:00,
2013-02-21 11:44:00,28.6,14.6,29.95,NNW,329,11.5,16.2,55,0.00,,,0.00,VWS V14.01,2013-02-21 16:44:00,
2013-02-21 11:45:00,28.4,14.3,29.96,NW,304,9.8,12.4,55,0.00,,,0.00,VWS V14.01,2013-02-21 16:45:00,
2013-02-21 11:46:00,28.4,14.6,29.96,WNW,298,6.0,13.4,56,0.00,,,0.00,VWS V14.01,2013-02-21 16:46:00,
2013-02-21 11:47:00,28.6,14.4,29.95,WNW,295,8.3,12.8,55,0.00,,,0.00,VWS V14.01,2013-02-21 16:47:00,
2013-02-21 11:48:00,28.6,14.4,29.95,NNW,338,6.8,11.1,55,0.00,,---,0.00,VWS V14.01,2013-02-21 16:48:00,
2013-02-21 11:49:00,28.7,14.9,29.95,WNW,285,9.4,14.7,56,0.00,,,0.00,VWS V14.01,2013-02-21 16:49:00,
2013-02-21 11:50:00,28.8,14.7,29.95,WSW,243,5.2,11.1,55,0.00,,,0.00,VWS V14.01,2013-02-21 16:50:00,
2013-02-21 11:51:00,28.7,14.5,29.95,NW,311,7.2,8.8,55,0.00,,,0.00,VWS V14.01,2013-02-21 16:51:00,
2013-02-21 11:52:00,28.6,14.3,29.95,NNW,340,9.9,10.6,55,0.00,,,0.00,VWS V14.01,2013-02-21 16:52:00,
2013-02-21 11:53:00,29.1,15.8,29.95,NNE,13,4.4,12.4,57,0.00,,---,0.00,VWS V14.01,2013-02-21 16:53:00,
2013-02-21 11:54:00,28.8,14.7,29.95,NW,305,5.0,9.1,55,0.00,,,0.00,VWS V14.01,2013-02-21 16:54:00,
2013-02-21 11:55:00,29.1,15.5,29.95,North,359,2.6,12.4,56,0.00,,,0.00,VWS V14.01,2013-02-21 16:55:00,
2013-02-21 11:56:00,28.9,16.2,29.95,NNW,328,12.1,19.6,59,0.00,,,0.00,VWS V14.01,2013-02-21 16:56:00,
2013-02-21 11:57:00,29.1,14.9,29.95,NNW,346,7.8,13.7,55,0.00,,,0.00,VWS V14.01,2013-02-21 16:57:00,
2013-02-21 11:58:00,29.0,15.1,29.95,NW,307,8.2,10.1,56,0.00,,---,0.00,VWS V14.01,2013-02-21 16:58:00,
2013-02-21 11:59:00,29.1,14.6,29.95,NW,307,4.7,15.6,54,0.00,,,0.00,VWS V14.01,2013-02-21 16:59:00,
2013-02-21 12:00:00,28.9,15.2,29.95,NW,322,7.0,10.1,56,0.00,,,0.00,VWS V14.01,2013-02-21 17:00:00,
2013-02-21 12:01:00,28.9,14.4,29.95,NW,326,8.9,13.0,54,0.00,,,0.00,VWS V14.01,2013-02-21 17:01:00,
2013-02-21 12:02:00,28.7,14.4,29.95,NW,316,11.8,13.0,55,0.00,,,0.00,VWS V14.01,2013-02-21 17:02:00,
2013-02-21 12:03:00,29.0,15.3,29.95,NW,304,1.8,7.9,56,0.00,,---,0.00,VWS V14.01,2013-02-21 17:03:00,
2013-02-21 12:04:00,29.0,15.6,29.95,NNW,339,0.0,4.2,57,0.00,,,0.00,VWS V14.01,2013-02-21 17:04:00,
2013-02-21 12:05:00,29.0,15.3,29.95,NW,304,0.0,7.9,56,0.00,,,0.00,VWS V14.01,2013-02-21 17:05:00,
2013-02-21 12:06:00,29.1,14.7,29.95,West,277,9.4,11.2,54,0.00,,,0.00,VWS V14.01,2013-02-21 17:06:00,
2013-02-21 12:07:00,29.5,15.8,29.95,West,274,12.9,14.0,56,0.00,,,0.00,VWS V14.01,2013-02-21 17:07:00,
2013-02-21 12:08:00,29.4,15.8,29.95,WNW,294,10.5,10.7,56,0.00,,---,0.00,VWS V14.01,2013-02-21 17:08:00,
2013-02-21 12:09:00,29.2,14.4,29.95,WNW,292,8.3,13.5,54,0.00,,,0.00,VWS V14.01,2013-02-21 17:09:00,
2013-02-21 12:10:00,29.4,15.8,29.95,West,278,6.0,10.7,56,0.00,,,0.00,VWS V14.01,2013-02-21 17:10:00,
2013-02-21 12:11:00,29.6,15.7,29.95,West,281,9.9,13.6,56,0.00,,,0.00,VWS V14.01,2013-02-21 17:11:00,
2013-02-21 12:12:00,29.7,15.4,29.95,NNW,329,7.1,11.0,55,0.00,,,0.00,VWS V14.01,2013-02-21 17:12:00,
2013-02-21 12:13:00,29.8,15.3,29.95,NNW,330,7.2,7.6,54,0.00,,---,0.00,VWS V14.01,2013-02-21 17:13:00,
2013-02-21 12:14:00,29.8,15.4,29.95,North,359,4.8,5.8,54,0.00,,,0.00,VWS V14.01,2013-02-21 17:14:00,
2013-02-21 12:15:00,29.6,14.8,29.95,West,264,7.6,9.1,53,0.00,,,0.00,VWS V14.01,2013-02-21 17:15:00,
2013-02-21 12:16:00,29.7,14.7,29.95,NW,305,6.9,13.8,53,0.00,,,0.00,VWS V14.01,2013-02-21 17:16:00,
2013-02-21 12:17:00,29.7,14.9,29.95,North,359,6.8,13.3,54,0.00,,,0.00,VWS V14.01,2013-02-21 17:17:00,
2013-02-21 12:18:00,28.8,14.0,29.95,NNW,339,14.2,14.7,53,0.00,,---,0.00,VWS V14.01,2013-02-21 17:18:00,
2013-02-21 12:19:00,29.3,14.5,29.95,NNW,335,9.3,9.6,53,0.00,,,0.00,VWS V14.01,2013-02-21 17:19:00,
2013-02-21 12:20:00,28.9,13.9,29.94,NNW,333,11.7,16.3,53,0.00,,,0.00,VWS V14.01,2013-02-21 17:20:00,
2013-02-21 12:21:00,28.9,14.6,29.94,NW,315,9.8,14.7,54,0.00,,,0.00,VWS V14.01,2013-02-21 17:21:00,
2013-02-21 12:22:00,29.0,14.7,29.95,West,274,5.9,12.9,55,0.00,,,0.00,VWS V14.01,2013-02-21 17:22:00,
2013-02-21 12:23:00,29.1,14.9,29.95,NW,311,4.7,6.2,55,0.00,,---,0.00,VWS V14.01,2013-02-21 17:23:00,
2013-02-21 12:24:00,29.2,14.8,29.95,NNW,329,5.3,12.4,54,0.00,,,0.00,VWS V14.01,2013-02-21 17:24:00,
2013-02-21 12:25:00,29.1,14.6,29.95,North,349,6.1,20.0,54,0.00,,,0.00,VWS V14.01,2013-02-21 17:25:00,
2013-02-21 12:26:00,29.1,14.9,29.95,WNW,287,6.5,12.9,55,0.00,,,0.00,VWS V14.01,2013-02-21 17:26:00,
2013-02-21 12:27:00,29.2,14.6,29.95,WNW,292,5.0,15.8,54,0.00,,,0.00,VWS V14.01,2013-02-21 17:27:00,
2013-02-21 12:28:00,29.5,15.8,29.95,WNW,292,0.0,0.0,56,0.00,,---,0.00,VWS V14.01,2013-02-21 17:28:00,
2013-02-21 12:29:00,29.4,15.2,29.95,NNW,340,5.1,9.8,55,0.00,,,0.00,VWS V14.01,2013-02-21 17:29:00,
2013-02-21 12:30:00,29.5,15.6,29.95,WNW,292,0.0,11.7,56,0.00,,,0.00,VWS V14.01,2013-02-21 17:30:00,
2013-02-21 12:31:00,29.6,15.1,29.95,WNW,298,0.0,9.8,54,0.00,,,0.00,VWS V14.01,2013-02-21 17:31:00,
2013-02-21 12:32:00,29.8,16.2,29.95,NW,323,4.4,7.4,56,0.00,,,0.00,VWS V14.01,2013-02-21 17:32:00,
2013-02-21 12:33:00,29.9,15.5,29.95,NW,322,9.6,9.6,54,0.00,,---,0.00,VWS V14.01,2013-02-21 17:33:00,
2013-02-21 12:34:00,29.8,15.2,29.95,North,1,5.6,9.5,54,0.00,,,0.00,VWS V14.01,2013-02-21 17:34:00,
2013-02-21 12:35:00,29.8,15.4,29.95,NW,314,0.0,11.4,54,0.00,,,0.00,VWS V14.01,2013-02-21 17:35:00,
2013-02-21 12:36:00,29.8,15.1,29.95,WNW,294,8.2,15.8,54,0.00,,,0.00,VWS V14.01,2013-02-21 17:36:00,
2013-02-21 12:37:00,29.8,15.2,29.95,WSW,242,8.8,14.8,54,0.00,,,0.00,VWS V14.01,2013-02-21 17:37:00,
2013-02-21 12:38:00,29.9,15.5,29.95,WNW,291,5.7,8.2,54,0.00,,---,0.00,VWS V14.01,2013-02-21 17:38:00,
2013-02-21 12:39:00,29.8,15.4,29.94,NW,308,2.8,12.1,54,0.00,,,0.00,VWS V14.01,2013-02-21 17:39:00,
2013-02-21 12:40:00,30.0,15.9,29.95,NW,318,7.3,8.6,55,0.00,,,0.00,VWS V14.01,2013-02-21 17:40:00,
2013-02-21 12:41:00,30.0,15.0,29.95,NW,325,0.0,8.5,53,0.00,,,0.00,VWS V14.01,2013-02-21 17:41:00,
2013-02-21 12:42:00,30.1,15.8,29.94,NW,325,0.0,0.0,55,0.00,,,0.00,VWS V14.01,2013-02-21 17:42:00,
2013-02-21 12:43:00,30.7,16.7,29.95,NW,322,10.4,10.4,56,0.00,,---,0.00,VWS V14.01,2013-02-21 17:43:00,
2013-02-21 12:44:00,30.4,16.2,29.95,WNW,290,0.0,0.0,55,0.00,,,0.00,VWS V14.01,2013-02-21 17:44:00,
2013-02-21 12:45:00,30.7,16.9,29.95,NW,308,0.0,5.2,56,0.00,,,0.00,VWS V14.01,2013-02-21 17:45:00,
2013-02-21 12:46:00,30.6,15.6,29.94,WNW,290,2.4,12.3,53,0.00,,,0.00,VWS V14.01,2013-02-21 17:46:00,
2013-02-21 12:47:00,30.7,16.2,29.94,NW,318,1.8,11.7,54,0.00,,,0.00,VWS V14.01,2013-02-21 17:47:00,
2013-02-21 12:48:00,30.5,15.8,29.94,North,359,4.3,7.3,54,0.00,,---,0.00,VWS V14.01,2013-02-21 17:48:00,
2013-02-21 12:49:00,30.5,15.6,29.94,West,277,13.2,13.7,53,0.00,,,0.00,VWS V14.01,2013-02-21 17:49:00,
2013-02-21 12:50:00,30.6,15.7,29.94,WNW,291,6.8,13.2,53,0.00,,,0.00,VWS V14.01,2013-02-21 17:50:00,
2013-02-21 12:51:00,30.6,15.6,29.94,WNW,294,5.6,7.3,53,0.00,,,0.00,VWS V14.01,2013-02-21 17:51:00,
2013-02-21 12:52:00,30.6,15.5,29.94,West,273,7.2,11.1,53,0.00,,,0.00,VWS V14.01,2013-02-21 17:52:00,
2013-02-21 12:53:00,30.5,15.2,29.95,West,278,5.7,8.0,52,0.00,,---,0.00,VWS V14.01,2013-02-21 17:53:00,
2013-02-21 12:54:00,30.6,15.4,29.94,NW,309,7.8,16.7,53,0.00,,,0.00,VWS V14.01,2013-02-21 17:54:00,
2013-02-21 12:55:00,30.7,15.4,29.94,West,278,1.9,10.1,53,0.00,,,0.00,VWS V14.01,2013-02-21 17:55:00,
2013-02-21 12:56:00,30.4,15.2,29.94,NW,316,6.2,14.0,53,0.00,,,0.00,VWS V14.01,2013-02-21 17:56:00,
2013-02-21 12:57:00,30.6,15.7,29.94,WNW,295,6.6,10.9,53,0.00,,,0.00,VWS V14.01,2013-02-21 17:57:00,
2013-02-21 12:58:00,30.3,15.4,29.94,NNW,346,0.0,0.0,53,0.00,,---,0.00,VWS V14.01,2013-02-21 17:58:00,
2013-02-21 12:59:00,30.4,15.0,29.94,NW,325,5.0,10.1,52,0.00,,,0.00,VWS V14.01,2013-02-21 17:59:00,
2013-02-21 13:00:00,30.4,15.1,29.94,NNW,346,0.0,8.5,52,0.00,,,0.00,VWS V14.01,2013-02-21 18:00:00,
2013-02-21 13:01:00,30.5,15.5,29.94,NNE,17,9.3,9.6,53,0.00,,,0.00,VWS V14.01,2013-02-21 18:01:00,
2013-02-21 13:02:00,30.6,15.6,29.94,North,359,0.0,9.3,53,0.00,,,0.00,VWS V14.01,2013-02-21 18:02:00,
2013-02-21 13:03:00,31.1,15.9,29.94,North,8,0.0,6.3,53,0.00,,---,0.00,VWS V14.01,2013-02-21 18:03:00,
2013-02-21 13:04:00,30.9,15.9,29.94,North,350,7.2,8.8,53,0.00,,,0.00,VWS V14.01,2013-02-21 18:04:00,
2013-02-21 13:05:00,31.1,16.6,29.94,NNW,329,4.7,9.0,54,0.00,,,0.00,VWS V14.01,2013-02-21 18:05:00,
2013-02-21 13:06:00,30.9,15.2,29.94,NW,308,5.5,9.6,52,0.00,,,0.00,VWS V14.01,2013-02-21 18:06:00,
2013-02-21 13:07:00,31.0,15.4,29.94,NW,315,8.2,12.4,52,0.00,,,0.00,VWS V14.01,2013-02-21 18:07:00,
2013-02-21 13:08:00,31.0,15.1,29.94,North,4,2.1,5.8,51,0.00,,---,0.00,VWS V14.01,2013-02-21 18:08:00,
2013-02-21 13:09:00,31.1,15.9,29.94,WNW,287,0.0,3.4,53,0.00,,,0.00,VWS V14.01,2013-02-21 18:09:00,
2013-02-21 13:10:00,30.9,15.9,29.94,North,359,5.5,8.2,53,0.00,,,0.00,VWS V14.01,2013-02-21 18:10:00,
2013-02-21 13:11:00,31.1,16.2,29.94,North,7,3.1,5.9,54,0.00,,,0.00,VWS V14.01,2013-02-21 18:11:00,
2013-02-21 13:12:00,31.2,16.0,29.94,WSW,252,5.9,10.2,53,0.00,,,0.00,VWS V14.01,2013-02-21 18:12:00,
2013-02-21 13:13:00,31.3,15.7,29.94,WNW,298,0.0,0.0,52,0.00,,---,0.00,VWS V14.01,2013-02-21 18:13:00,
2013-02-21 13:14:00,31.2,15.6,29.94,WNW,290,0.0,14.7,52,0.00,,,0.00,VWS V14.01,2013-02-21 18:14:00,
2013-02-21 13:15:00,31.3,15.8,29.94,WNW,298,0.0,13.2,52,0.00,,,0.00,VWS V14.01,2013-02-21 18:15:00,
2013-02-21 13:16:00,31.3,15.4,29.94,WNW,298,0.0,0.0,51,0.00,,,0.00,VWS V14.01,2013-02-21 18:16:00,
2013-02-21 13:17:00,31.4,16.8,29.94,NNW,333,8.1,10.6,54,0.00,,,0.00,VWS V14.01,2013-02-21 18:17:00,
2013-02-21 13:18:00,31.1,15.2,29.94,NW,315,10.3,11.8,51,0.00,,---,0.00,VWS V14.01,2013-02-21 18:18:00,
2013-02-21 13:19:00,31.3,16.4,29.94,NW,314,6.3,10.9,54,0.00,,,0.00,VWS V14.01,2013-02-21 18:19:00,
2013-02-21 13:20:00,30.9,15.1,29.94,NNW,330,9.1,15.1,52,0.00,,,0.00,VWS V14.01,2013-02-21 18:20:00,
2013-02-21 13:21:00,30.9,15.3,29.94,North,356,11.8,13.3,52,0.00,,,0.00,VWS V14.01,2013-02-21 18:21:00,
2013-02-21 13:22:00,30.8,15.2,29.94,NW,318,3.5,12.7,52,0.00,,,0.00,VWS V14.01,2013-02-21 18:22:00,
2013-02-21 13:23:00,31.1,16.0,29.94,WNW,285,5.7,9.9,53,0.00,,---,0.00,VWS V14.01,2013-02-21 18:23:00,
2013-02-21 13:24:00,30.9,16.1,29.94,NNW,330,4.7,11.1,54,0.00,,,0.00,VWS V14.01,2013-02-21 18:24:00,
2013-02-21 13:25:00,31.1,16.7,29.94,WNW,301,8.7,15.3,55,0.00,,,0.00,VWS V14.01,2013-02-21 18:25:00,
2013-02-21 13:26:00,31.0,15.6,29.94,NNW,340,8.7,10.1,52,0.00,,,0.00,VWS V14.01,2013-02-21 18:26:00,
2013-02-21 13:27:00,31.1,16.1,29.94,NNW,336,13.9,14.0,53,0.00,,,0.00,VWS V14.01,2013-02-21 18:27:00,
2013-02-21 13:28:00,30.3,14.7,29.95,NNW,328,9.7,12.0,52,0.00,,---,0.00,VWS V14.01,2013-02-21 18:28:00,
2013-02-21 13:29:00,30.6,15.5,29.94,NW,318,8.5,14.5,53,0.00,,,0.00,VWS V14.01,2013-02-21 18:29:00,
2013-02-21 13:30:00,30.2,15.1,29.94,West,271,9.5,12.9,53,0.00,,,0.00,VWS V14.01,2013-02-21 18:30:00,
2013-02-21 13:31:00,30.3,15.0,29.94,NNW,333,7.8,12.0,52,0.00,,,0.00,VWS V14.01,2013-02-21 18:31:00,
2013-02-21 13:32:00,30.3,15.2,29.94,NW,305,6.9,13.0,53,0.00,,,0.00,VWS V14.01,2013-02-21 18:32:00,
2013-02-21 13:33:00,30.3,15.2,29.94,NNW,342,5.1,11.2,53,0.00,,,0.00,VWS V14.01,2013-02-21 18:33:00,
2013-02-21 13:34:00,30.1,15.4,29.94,North,359,0.0,5.7,54,0.00,,---,0.00,VWS V14.01,2013-02-21 18:34:00,
2013-02-21 13:35:00,29.9,14.8,29.94,North,359,2.8,10.5,53,0.00,,,0.00,VWS V14.01,2013-02-21 18:35:00,
2013-02-21 13:36:00,30.3,16.3,29.94,North,359,0.0,5.7,56,0.00,,,0.00,VWS V14.01,2013-02-21 18:36:00,
2013-02-21 13:37:00,30.5,15.6,29.94,NW,308,7.6,10.8,53,0.00,,,0.00,VWS V14.01,2013-02-21 18:37:00,
2013-02-21 13:38:00,30.7,15.4,29.94,West,263,4.3,14.1,52,0.00,,,0.00,VWS V14.01,2013-02-21 18:38:00,
2013-02-21 13:39:00,30.7,15.6,29.95,WNW,291,8.9,9.2,53,0.00,,---,0.00,VWS V14.01,2013-02-21 18:39:00,
2013-02-21 13:40:00,30.7,15.9,29.94,NNW,329,8.0,12.3,54,0.00,,,0.00,VWS V14.01,2013-02-21 18:40:00,
2013-02-21 13:41:00,30.9,15.9,29.94,NW,307,7.0,11.5,53,0.00,,,0.00,VWS V14.01,2013-02-21 18:41:00,
2013-02-21 13:42:00,30.9,15.6,29.94,West,278,11.6,15.5,53,0.00,,,0.00,VWS V14.01,2013-02-21 18:42:00,
2013-02-21 13:43:00,31.1,16.2,29.94,NW,319,7.0,11.6,54,0.00,,,0.00,VWS V14.01,2013-02-21 18:43:00,
2013-02-21 13:44:00,31.0,15.7,29.95,West,269,3.4,10.0,52,0.00,,---,0.00,VWS V14.01,2013-02-21 18:44:00,
2013-02-21 13:45:00,31.0,15.4,29.94,WNW,302,4.3,13.2,52,0.00,,,0.00,VWS V14.01,2013-02-21 18:45:00,
2013-02-21 13:46:00,31.0,15.6,29.95,West,269,0.0,10.0,52,0.00,,,0.00,VWS V14.01,2013-02-21 18:46:00,
2013-02-21 13:47:00,31.0,15.6,29.94,North,357,6.2,7.6,52,0.00,,,0.00,VWS V14.01,2013-02-21 18:47:00,
2013-02-21 13:48:00,31.0,15.9,29.95,SSE,167,6.5,10.8,53,0.00,,,0.00,VWS V14.01,2013-02-21 18:48:00,
2013-02-21 13:49:00,30.9,15.5,29.95,WNW,300,5.1,8.9,52,0.00,,---,0.00,VWS V14.01,2013-02-21 18:49:00,
2013-02-21 13:50:00,30.8,15.4,29.94,NNW,335,8.5,11.1,52,0.00,,,0.00,VWS V14.01,2013-02-21 18:50:00,
2013-02-21 13:51:00,31.0,16.0,29.95,WNW,300,5.0,8.9,53,0.00,,,0.00,VWS V14.01,2013-02-21 18:51:00,
2013-02-21 13:52:00,31.0,15.9,29.95,WNW,284,9.8,14.0,53,0.00,,,0.00,VWS V14.01,2013-02-21 18:52:00,
2013-02-21 13:53:00,31.1,16.0,29.95,NW,311,0.0,13.7,53,0.00,,,0.00,VWS V14.01,2013-02-21 18:53:00,
2013-02-21 13:54:00,30.7,15.2,29.95,North,359,6.0,10.0,52,0.00,,---,0.00,VWS V14.01,2013-02-21 18:54:00,
2013-02-21 13:55:00,31.1,15.4,29.95,North,359,8.8,16.0,52,0.00,,,0.00,VWS V14.01,2013-02-21 18:55:00,
2013-02-21 13:56:00,30.8,15.4,29.95,NNW,330,8.3,10.4,52,0.00,,,0.00,VWS V14.01,2013-02-21 18:56:00,
2013-02-21 13:57:00,30.8,15.2,29.95,North,7,4.7,9.9,52,0.00,,,0.00,VWS V14.01,2013-02-21 18:57:00,
2013-02-21 13:58:00,30.9,15.8,29.95,NW,322,5.7,6.3,53,0.00,,,0.00,VWS V14.01,2013-02-21 18:58:00,
2013-02-21 13:59:00,30.8,15.7,29.95,WNW,294,5.7,10.9,53,0.00,,---,0.00,VWS V14.01,2013-02-21 18:59:00,
2013-02-21 14:00:00,30.7,16.0,29.95,WNW,297,6.8,11.9,54,0.00,,,0.00,VWS V14.01,2013-02-21 19:00:00,
2013-02-21 14:01:00,30.8,16.0,29.95,NW,311,8.7,10.9,54,0.00,,,0.00,VWS V14.01,2013-02-21 19:01:00,
2013-02-21 14:02:00,30.6,15.3,29.95,NW,304,6.8,12.0,52,0.00,,,0.00,VWS V14.01,2013-02-21 19:02:00,
2013-02-21 14:03:00,30.6,15.4,29.95,NNW,329,5.6,10.4,53,0.00,,,0.00,VWS V14.01,2013-02-21 19:03:00,
2013-02-21 14:04:00,31.1,15.9,29.95,North,349,0.0,0.0,53,0.00,,---,0.00,VWS V14.01,2013-02-21 19:04:00,
2013-02-21 14:05:00,31.0,16.5,29.95,North,349,0.0,0.0,54,0.00,,,0.00,VWS V14.01,2013-02-21 19:05:00,
2013-02-21 14:06:00,31.1,15.9,29.95,North,349,4.6,4.6,53,0.00,,,0.00,VWS V14.01,2013-02-21 19:06:00,
2013-02-21 14:07:00,31.0,15.9,29.95,WNW,285,0.0,13.4,53,0.00,,,0.00,VWS V14.01,2013-02-21 19:07:00,
2013-02-21 14:08:00,31.3,16.2,29.95,WNW,302,6.6,8.5,53,0.00,,,0.00,VWS V14.01,2013-02-21 19:08:00,
2013-02-21 14:09:00,31.8,16.1,29.95,NW,325,0.0,9.5,52,0.00,,---,0.00,VWS V14.01,2013-02-21 19:09:00,
2013-02-21 14:10:00,31.8,16.4,29.95,NW,305,0.0,9.4,52,0.00,,,0.00,VWS V14.01,2013-02-21 19:10:00,
2013-02-21 14:11:00,31.9,16.3,29.95,West,281,6.2,10.6,52,0.00,,,0.00,VWS V14.01,2013-02-21 19:11:00,
2013-02-21 14:12:00,32.1,17.3,29.95,NW,312,0.0,10.4,54,0.00,,,0.00,VWS V14.01,2013-02-21 19:12:00,
2013-02-21 14:13:00,32.3,16.6,29.96,West,271,5.3,9.9,52,0.00,,,0.00,VWS V14.01,2013-02-21 19:13:00,
2013-02-21 14:14:00,32.5,16.9,29.96,West,267,10.4,10.4,52,0.00,,---,0.00,VWS V14.01,2013-02-21 19:14:00,
2013-02-21 14:15:00,32.5,16.4,29.96,WNW,300,0.0,9.7,51,0.00,,,0.00,VWS V14.01,2013-02-21 19:15:00,
2013-02-21 14:16:00,32.6,17.1,29.96,WNW,287,0.0,10.4,52,0.00,,,0.00,VWS V14.01,2013-02-21 19:16:00,
2013-02-21 14:17:00,32.4,17.2,29.96,NW,325,9.0,11.3,53,0.00,,,0.00,VWS V14.01,2013-02-21 19:17:00,
2013-02-21 14:18:00,32.1,16.1,29.96,NW,325,7.8,15.2,51,0.00,,,0.00,VWS V14.01,2013-02-21 19:18:00,
2013-02-21 14:19:00,31.8,16.2,29.96,WNW,301,0.0,3.4,52,0.00,,---,0.00,VWS V14.01,2013-02-21 19:19:00,
2013-02-21 14:20:00,31.8,15.8,29.95,North,359,3.0,10.8,51,0.00,,,0.00,VWS V14.01,2013-02-21 19:20:00,
2013-02-21 14:21:00,31.7,16.2,29.96,WNW,301,0.0,3.4,52,0.00,,,0.00,VWS V14.01,2013-02-21 19:21:00,
2013-02-21 14:22:00,31.6,16.1,29.96,WNW,294,5.8,9.6,52,0.00,,,0.00,VWS V14.01,2013-02-21 19:22:00,
2013-02-21 14:23:00,31.2,15.6,29.96,NNW,333,10.6,12.7,52,0.00,,,0.00,VWS V14.01,2013-02-21 19:23:00,
2013-02-21 14:24:00,31.0,15.8,29.96,North,359,0.0,13.3,53,0.00,,---,0.00,VWS V14.01,2013-02-21 19:24:00,
2013-02-21 14:25:00,31.0,15.9,29.96,WNW,297,0.0,6.6,53,0.00,,,0.00,VWS V14.01,2013-02-21 19:25:00,
2013-02-21 14:26:00,30.9,15.5,29.96,NW,308,9.5,13.3,52,0.00,,,0.00,VWS V14.01,2013-02-21 19:26:00,
2013-02-21 14:27:00,30.9,15.8,29.96,WSW,239,3.2,9.5,53,0.00,,,0.00,VWS V14.01,2013-02-21 19:27:00,
2013-02-21 14:28:00,30.9,15.8,29.96,West,271,4.2,10.8,53,0.00,,,0.00,VWS V14.01,2013-02-21 19:28:00,
2013-02-21 14:29:00,31.0,16.7,29.96,NNW,345,11.7,13.0,55,0.00,,---,0.00,VWS V14.01,2013-02-21 19:29:00,
2013-02-21 14:30:00,30.9,16.0,29.96,WNW,292,0.0,6.3,53,0.00,,,0.00,VWS V14.01,2013-02-21 19:30:00,
2013-02-21 14:31:00,30.9,16.6,29.96,NNW,336,9.3,13.0,55,0.00,,,0.00,VWS V14.01,2013-02-21 19:31:00,
2013-02-21 14:32:00,30.8,16.2,29.96,NW,311,5.7,12.5,54,0.00,,,0.00,VWS V14.01,2013-02-21 19:32:00,
2013-02-21 14:33:00,30.8,15.8,29.96,NW,318,10.8,15.4,53,0.00,,,0.00,VWS V14.01,2013-02-21 19:33:00,
2013-02-21 14:34:00,31.1,16.5,29.96,West,264,0.0,0.0,54,0.00,,---,0.00,VWS V14.01,2013-02-21 19:34:00,
2013-02-21 14:35:00,30.9,16.1,29.96,West,264,0.0,5.6,54,0.00,,,0.00,VWS V14.01,2013-02-21 19:35:00,
2013-02-21 14:36:00,31.1,16.5,29.96,WSW,238,2.3,2.3,54,0.00,,,0.00,VWS V14.01,2013-02-21 19:36:00,
2013-02-21 14:37:00,31.2,16.4,29.96,WSW,238,0.0,2.3,54,0.00,,,0.00,VWS V14.01,2013-02-21 19:37:00,
2013-02-21 14:38:00,31.2,15.8,29.96,WNW,288,0.0,4.5,52,0.00,,,0.00,VWS V14.01,2013-02-21 19:38:00,
2013-02-21 14:39:00,31.4,16.3,29.97,West,276,0.0,6.8,53,0.00,,---,0.00,VWS V14.01,2013-02-21 19:39:00,
2013-02-21 14:40:00,31.4,16.4,29.96,NW,319,0.0,6.3,53,0.00,,,0.00,VWS V14.01,2013-02-21 19:40:00,
2013-02-21 14:41:00,31.4,16.3,29.97,West,276,0.0,6.8,53,0.00,,,0.00,VWS V14.01,2013-02-21 19:41:00,
2013-02-21 14:42:00,31.3,15.9,29.97,North,11,9.4,15.9,52,0.00,,,0.00,VWS V14.01,2013-02-21 19:42:00,
2013-02-21 14:43:00,31.1,15.7,29.97,NNW,335,0.0,14.5,52,0.00,,,0.00,VWS V14.01,2013-02-21 19:43:00,
2013-02-21 14:44:00,30.9,16.6,29.97,NW,312,7.8,9.4,55,0.00,,---,0.00,VWS V14.01,2013-02-21 19:44:00,
2013-02-21 14:45:00,30.7,15.4,29.97,NNW,347,5.3,14.5,52,0.00,,,0.00,VWS V14.01,2013-02-21 19:45:00,
2013-02-21 14:46:00,30.9,16.6,29.97,NW,314,6.2,9.4,55,0.00,,,0.00,VWS V14.01,2013-02-21 19:46:00,
2013-02-21 14:47:00,30.9,16.0,29.97,NNW,335,9.6,11.3,54,0.00,,,0.00,VWS V14.01,2013-02-21 19:47:00,
2013-02-21 14:48:00,30.9,16.0,29.97,NNW,332,0.0,10.1,53,0.00,,,0.00,VWS V14.01,2013-02-21 19:48:00,
2013-02-21 14:49:00,31.0,16.2,29.97,NW,318,8.0,14.5,54,0.00,,---,0.00,VWS V14.01,2013-02-21 19:49:00,
2013-02-21 14:50:00,31.2,16.7,29.97,NE,39,0.0,8.3,54,0.00,,,0.00,VWS V14.01,2013-02-21 19:50:00,
2013-02-21 14:51:00,31.0,16.2,29.97,NW,304,5.3,14.5,54,0.00,,,0.00,VWS V14.01,2013-02-21 19:51:00,
2013-02-21 14:52:00,31.1,16.0,29.97,SW,222,8.2,11.4,53,0.00,,,0.00,VWS V14.01,2013-02-21 19:52:00,
2013-02-21 14:53:00,31.2,16.1,29.97,WNW,291,0.0,11.2,53,0.00,,,0.00,VWS V14.01,2013-02-21 19:53:00,
2013-02-21 14:54:00,31.6,17.2,29.97,North,0,0.0,0.0,55,0.00,,---,0.00,VWS V14.01,2013-02-21 19:54:00,
2013-02-21 14:55:00,31.4,16.5,29.97,North,0,0.0,7.8,54,0.00,,,0.00,VWS V14.01,2013-02-21 19:55:00,
2013-02-21 14:56:00,31.6,17.2,29.97,North,0,0.0,0.0,55,0.00,,,0.00,VWS V14.01,2013-02-21 19:56:00,
2013-02-21 14:57:00,31.7,16.3,29.97,NW,312,9.3,11.6,52,0.00,,,0.00,VWS V14.01,2013-02-21 19:57:00,
2013-02-21 14:58:00,31.6,16.0,29.98,NNW,340,11.4,11.4,52,0.00,,,0.00,VWS V14.01,2013-02-21 19:58:00,
2013-02-21 14:59:00,31.3,16.1,29.97,North,1,8.8,12.1,53,0.00,,---,0.00,VWS V14.01,2013-02-21 19:59:00,
2013-02-21 15:00:00,31.3,15.7,29.97,North,7,5.7,13.0,52,0.00,,,0.00,VWS V14.01,2013-02-21 20:00:00,
2013-02-21 15:01:00,31.3,16.1,29.97,North,1,8.8,12.1,53,0.00,,,0.00,VWS V14.01,2013-02-21 20:01:00,
2013-02-21 15:02:00,31.2,16.1,29.97,NNW,339,6.6,13.2,53,0.00,,,0.00,VWS V14.01,2013-02-21 20:02:00,
2013-02-21 15:03:00,31.1,15.9,29.97,WNW,292,7.2,10.1,53,0.00,,,0.00,VWS V14.01,2013-02-21 20:03:00,
2013-02-21 15:04:00,31.2,16.5,29.97,NW,315,7.9,11.3,54,0.00,,---,0.00,VWS V14.01,2013-02-21 20:04:00,
2013-02-21 15:05:00,31.2,16.5,29.97,West,276,11.3,12.1,54,0.00,,,0.00,VWS V14.01,2013-02-21 20:05:00,
2013-02-21 15:06:00,31.2,16.5,29.98,NW,315,7.9,11.3,54,0.00,,,0.00,VWS V14.01,2013-02-21 20:06:00,
2013-02-21 15:07:00,31.3,16.8,29.98,WNW,283,0.0,7.9,54,0.00,,,0.00,VWS V14.01,2013-02-21 20:07:00,
2013-02-21 15:08:00,31.5,17.4,29.98,WNW,300,0.0,4.2,55,0.00,,,0.00,VWS V14.01,2013-02-21 20:08:00,
2013-02-21 15:09:00,31.5,16.6,29.97,NNW,328,8.0,8.0,54,0.00,,---,0.00,VWS V14.01,2013-02-21 20:09:00,
2013-02-21 15:10:00,31.5,16.8,29.98,North,6,4.2,11.3,54,0.00,,,0.00,VWS V14.01,2013-02-21 20:10:00,
2013-02-21 15:11:00,31.5,16.6,29.98,NNW,335,7.8,9.3,54,0.00,,,0.00,VWS V14.01,2013-02-21 20:11:00,
2013-02-21 15:12:00,31.5,16.4,29.98,North,8,5.9,10.1,53,0.00,,,0.00,VWS V14.01,2013-02-21 20:12:00,
2013-02-21 15:13:00,31.3,16.4,29.98,NNE,14,9.1,11.9,54,0.00,,,0.00,VWS V14.01,2013-02-21 20:13:00,
2013-02-21 15:14:00,31.2,16.7,29.97,SW,233,3.4,4.5,54,0.00,,---,0.00,VWS V14.01,2013-02-21 20:14:00,
2013-02-21 15:15:00,31.3,16.6,29.98,NW,304,6.3,9.7,54,0.00,,,0.00,VWS V14.01,2013-02-21 20:15:00,
2013-02-21 15:16:00,31.2,16.7,29.98,SW,233,4.5,17.0,54,0.00,,,0.00,VWS V14.01,2013-02-21 20:16:00,
2013-02-21 15:17:00,31.1,16.4,29.98,NNW,342,5.3,15.0,54,0.00,,,0.00,VWS V14.01,2013-02-21 20:17:00,
2013-02-21 15:18:00,30.9,16.0,29.98,NNW,340,10.9,10.9,54,0.00,,,0.00,VWS V14.01,2013-02-21 20:18:00,
2013-02-21 15:19:00,31.1,16.4,29.97,NW,307,5.1,6.1,54,0.00,,---,0.00,VWS V14.01,2013-02-21 20:19:00,
2013-02-21 15:20:00,31.1,16.4,29.98,WSW,256,5.8,7.7,54,0.00,,,0.00,VWS V14.01,2013-02-21 20:20:00,
2013-02-21 15:21:00,31.1,16.5,29.98,NW,325,6.0,11.5,54,0.00,,,0.00,VWS V14.01,2013-02-21 20:21:00,
2013-02-21 15:22:00,31.1,16.6,29.98,North,7,4.2,9.2,54,0.00,,,0.00,VWS V14.01,2013-02-21 20:22:00,
2013-02-21 15:23:00,31.2,16.8,29.98,North,359,8.3,11.2,55,0.00,,,0.00,VWS V14.01,2013-02-21 20:23:00,
2013-02-21 15:24:00,31.3,17.3,29.98,NNW,339,9.5,10.9,56,0.00,,---,0.00,VWS V14.01,2013-02-21 20:24:00,
2013-02-21 15:25:00,31.4,16.7,29.98,North,359,0.0,6.0,54,0.00,,,0.00,VWS V14.01,2013-02-21 20:25:00,
2013-02-21 15:26:00,31.3,17.3,29.98,NNW,339,9.5,10.9,56,0.00,,,0.00,VWS V14.01,2013-02-21 20:26:00,
2013-02-21 15:27:00,31.3,16.8,29.98,North,4,6.0,10.4,54,0.00,,,0.00,VWS V14.01,2013-02-21 20:27:00,
2013-02-21 15:28:00,31.4,17.5,29.98,NNW,339,0.0,6.0,56,0.00,,,0.00,VWS V14.01,2013-02-21 20:28:00,
2013-02-21 15:29:00,31.2,16.2,29.99,NE,35,7.9,16.8,53,0.00,,---,0.00,VWS V14.01,2013-02-21 20:29:00,
2013-02-21 15:30:00,31.3,16.8,29.99,West,274,2.8,10.5,54,0.00,,,0.00,VWS V14.01,2013-02-21 20:30:00,
2013-02-21 15:31:00,31.2,16.2,29.99,NE,35,7.9,16.8,53,0.00,,,0.00,VWS V14.01,2013-02-21 20:31:00,
2013-02-21 15:32:00,31.1,16.5,29.99,NNW,342,9.5,12.9,54,0.00,,,0.00,VWS V14.01,2013-02-21 20:32:00,
2013-02-21 15:33:00,30.7,15.7,29.99,North,352,16.2,16.5,53,0.00,,,0.00,VWS V14.01,2013-02-21 20:33:00,
2013-02-21 15:34:00,29.9,16.0,29.99,North,10,4.7,17.1,56,0.00,,---,0.00,VWS V14.01,2013-02-21 20:34:00,
2013-02-21 15:35:00,30.0,16.1,29.99,North,350,17.1,23.4,56,0.00,,,0.00,VWS V14.01,2013-02-21 20:35:00,
2013-02-21 15:36:00,29.9,16.0,29.99,North,10,4.7,17.1,56,0.00,,,0.00,VWS V14.01,2013-02-21 20:36:00,
2013-02-21 15:37:00,29.8,16.2,29.99,NNW,335,7.6,14.8,56,0.00,,,0.00,VWS V14.01,2013-02-21 20:37:00,
2013-02-21 15:38:00,29.8,16.4,29.99,West,264,12.7,13.7,57,0.00,,,0.00,VWS V14.01,2013-02-21 20:38:00,
2013-02-21 15:39:00,30.0,16.6,30.00,WSW,242,5.9,9.8,57,0.00,,---,0.00,VWS V14.01,2013-02-21 20:39:00,
2013-02-21 15:40:00,29.8,16.7,30.00,WSW,243,5.6,13.0,58,0.00,,,0.00,VWS V14.01,2013-02-21 20:40:00,
2013-02-21 15:41:00,30.0,16.6,30.00,WSW,242,5.9,9.8,57,0.00,,,0.00,VWS V14.01,2013-02-21 20:41:00,
2013-02-21 15:42:00,29.8,16.4,30.00,WNW,288,14.3,14.3,57,0.00,,,0.00,VWS V14.01,2013-02-21 20:42:00,
2013-02-21 15:43:00,29.9,16.6,30.00,NNW,329,7.7,14.5,57,0.00,,,0.00,VWS V14.01,2013-02-21 20:43:00,
2013-02-21 15:44:00,29.8,16.4,30.00,WSW,249,3.4,9.7,57,0.00,,---,0.00,VWS V14.01,2013-02-21 20:44:00,
2013-02-21 15:45:00,30.0,16.7,30.00,NNW,336,13.4,20.4,57,0.00,,,0.00,VWS V14.01,2013-02-21 20:45:00,
2013-02-21 15:46:00,30.0,16.4,30.00,North,352,9.3,15.5,56,0.00,,,0.00,VWS V14.01,2013-02-21 20:46:00,
2013-02-21 15:47:00,30.0,16.9,30.00,North,349,8.3,11.4,58,0.00,,,0.00,VWS V14.01,2013-02-21 20:47:00,
2013-02-21 15:48:00,29.7,16.4,30.00,NW,316,3.5,18.2,57,0.00,,,0.00,VWS V14.01,2013-02-21 20:48:00,
2013-02-21 15:49:00,29.8,16.6,30.00,NNW,339,10.6,12.2,57,0.00,,---,0.00,VWS V14.01,2013-02-21 20:49:00,
2013-02-21 15:50:00,29.7,16.3,30.00,NNW,333,0.0,11.9,57,0.00,,,0.00,VWS V14.01,2013-02-21 20:50:00,
2013-02-21 15:51:00,29.7,16.5,30.00,NW,325,6.1,10.0,57,0.00,,,0.00,VWS V14.01,2013-02-21 20:51:00,
2013-02-21 15:52:00,29.8,16.5,30.00,NW,316,0.0,12.2,57,0.00,,,0.00,VWS V14.01,2013-02-21 20:52:00,
2013-02-21 15:53:00,29.7,16.4,30.00,NW,316,9.8,11.7,57,0.00,,,0.00,VWS V14.01,2013-02-21 20:53:00,
2013-02-21 15:54:00,29.9,16.8,30.00,West,280,4.7,8.0,58,0.00,,---,0.00,VWS V14.01,2013-02-21 20:54:00,
2013-02-21 15:55:00,29.5,16.1,30.00,North,4,8.6,12.7,57,0.00,,,0.00,VWS V14.01,2013-02-21 20:55:00,
2013-02-21 15:56:00,29.7,16.8,30.00,WNW,290,8.0,13.1,58,0.00,,,0.00,VWS V14.01,2013-02-21 20:56:00,
2013-02-21 15:57:00,29.5,16.3,30.00,NNW,330,8.1,20.3,57,0.00,,,0.00,VWS V14.01,2013-02-21 20:57:00,
2013-02-21 15:58:00,29.7,16.8,30.00,North,0,10.8,10.9,58,0.00,,,0.00,VWS V14.01,2013-02-21 20:58:00,
2013-02-21 15:59:00,29.5,16.2,30.00,NNE,13,9.0,12.3,57,0.00,,---,0.00,VWS V14.01,2013-02-21 20:59:00,
2013-02-21 16:00:00,29.7,16.8,30.00,NNW,336,8.0,13.2,58,0.00,,,0.00,VWS V14.01,2013-02-21 21:00:00,
2013-02-21 16:01:00,29.4,16.0,30.00,North,7,9.3,19.6,57,0.00,,,0.00,VWS V14.01,2013-02-21 21:01:00,
2013-02-21 16:02:00,29.5,16.6,30.00,NNW,329,12.4,12.4,58,0.00,,,0.00,VWS V14.01,2013-02-21 21:02:00,
2013-02-21 16:03:00,29.7,16.3,30.00,North,359,6.2,13.0,57,0.00,,,0.00,VWS V14.01,2013-02-21 21:03:00,
2013-02-21 16:04:00,29.7,16.8,30.01,NNW,328,11.7,11.7,58,0.00,,---,0.00,VWS V14.01,2013-02-21 21:04:00,
2013-02-21 16:05:00,29.8,16.5,30.01,NNE,15,0.0,8.1,57,0.00,,,0.00,VWS V14.01,2013-02-21 21:05:00,
2013-02-21 16:06:00,29.8,17.0,30.01,North,359,8.9,15.5,58,0.00,,,0.00,VWS V14.01,2013-02-21 21:06:00,
2013-02-21 16:07:00,29.8,16.5,30.01,WNW,298,5.3,11.7,57,0.00,,,0.00,VWS V14.01,2013-02-21 21:07:00,
2013-02-21 16:08:00,29.6,16.2,30.01,NNW,338,15.2,17.3,57,0.00,,,0.00,VWS V14.01,2013-02-21 21:08:00,
2013-02-21 16:09:00,29.6,16.6,30.01,NNW,338,3.4,10.3,58,0.00,,---,0.00,VWS V14.01,2013-02-21 21:09:00,
2013-02-21 16:10:00,29.6,16.2,30.01,NW,304,13.4,14.3,57,0.00,,,0.00,VWS V14.01,2013-02-21 21:10:00,
2013-02-21 16:11:00,29.5,16.3,30.01,North,359,9.0,17.5,57,0.00,,,0.00,VWS V14.01,2013-02-21 21:11:00,
2013-02-21 16:12:00,29.6,16.3,30.01,NW,312,10.8,11.2,57,0.00,,,0.00,VWS V14.01,2013-02-21 21:12:00,
2013-02-21 16:13:00,29.7,16.4,30.01,West,260,3.0,10.8,57,0.00,,,0.00,VWS V14.01,2013-02-21 21:13:00,
2013-02-21 16:14:00,29.8,16.4,30.01,SW,235,6.8,10.6,57,0.00,,,0.00,VWS V14.01,2013-02-21 21:14:00,
2013-02-21 16:15:00,29.7,16.1,30.02,NNW,335,4.3,12.9,56,0.00,,---,0.00,VWS V14.01,2013-02-21 21:15:00,
2013-02-21 16:16:00,29.9,16.6,30.01,WNW,295,5.4,14.5,57,0.00,,,0.00,VWS V14.01,2013-02-21 21:16:00,
2013-02-21 16:17:00,29.9,16.4,30.02,West,278,2.9,13.0,57,0.00,,,0.00,VWS V14.01,2013-02-21 21:17:00,
2013-02-21 16:18:00,29.6,16.2,30.01,WNW,287,12.2,12.2,57,0.00,,,0.00,VWS V14.01,2013-02-21 21:18:00,
2013-02-21 16:19:00,29.8,16.6,30.02,NW,319,0.0,14.1,57,0.00,,,0.00,VWS V14.01,2013-02-21 21:19:00,
2013-02-21 16:20:00,29.8,16.7,30.02,NNW,333,0.0,11.2,58,0.00,,---,0.00,VWS V14.01,2013-02-21 21:20:00,
2013-02-21 16:21:00,29.7,16.5,30.02,North,1,4.7,13.9,57,0.00,,,0.00,VWS V14.01,2013-02-21 21:21:00,
2013-02-21 16:22:00,29.7,16.5,30.02,North,359,0.0,11.2,58,0.00,,,0.00,VWS V14.01,2013-02-21 21:22:00,
2013-02-21 16:23:00,29.9,17.1,30.02,NNW,332,0.0,4.5,58,0.00,,,0.00,VWS V14.01,2013-02-21 21:23:00,
2013-02-21 16:24:00,29.9,16.8,30.02,NW,312,4.7,8.1,58,0.00,,,0.00,VWS V14.01,2013-02-21 21:24:00,
2013-02-21 16:25:00,30.0,16.8,30.03,North,359,0.0,10.0,57,0.00,,---,0.00,VWS V14.01,2013-02-21 21:25:00,
2013-02-21 16:26:00,30.2,17.2,30.02,NW,316,0.0,0.0,58,0.00,,,0.00,VWS V14.01,2013-02-21 21:26:00,
2013-02-21 16:27:00,30.1,17.1,30.03,North,359,0.0,10.0,58,0.00,,,0.00,VWS V14.01,2013-02-21 21:27:00,
2013-02-21 16:28:00,30.2,17.1,30.03,NNW,339,3.5,10.1,58,0.00,,,0.00,VWS V14.01,2013-02-21 21:28:00,
2013-02-21 16:29:00,30.1,17.0,30.03,NNW,329,0.0,9.5,58,0.00,,,0.00,VWS V14.01,2013-02-21 21:29:00,
2013-02-21 16:30:00,30.0,17.1,30.03,NNW,339,8.7,10.3,58,0.00,,---,0.00,VWS V14.01,2013-02-21 21:30:00,
2013-02-21 16:31:00,30.0,16.8,30.03,WNW,301,6.0,13.7,57,0.00,,,0.00,VWS V14.01,2013-02-21 21:31:00,
2013-02-21 16:32:00,29.9,16.6,30.03,North,352,0.0,10.3,57,0.00,,,0.00,VWS V14.01,2013-02-21 21:32:00,
2013-02-21 16:33:00,29.7,16.7,30.03,WNW,301,7.8,15.6,58,0.00,,,0.00,VWS V14.01,2013-02-21 21:33:00,
2013-02-21 16:34:00,29.8,16.7,30.03,NNW,345,5.3,12.9,58,0.00,,,0.00,VWS V14.01,2013-02-21 21:34:00,
2013-02-21 16:35:00,29.5,16.7,30.03,NNW,329,9.6,18.3,58,0.00,,---,0.00,VWS V14.01,2013-02-21 21:35:00,
2013-02-21 16:36:00,29.6,16.7,30.03,WSW,252,4.9,15.9,58,0.00,,,0.00,VWS V14.01,2013-02-21 21:36:00,
2013-02-21 16:37:00,29.5,16.7,30.03,WNW,288,5.2,18.3,58,0.00,,,0.00,VWS V14.01,2013-02-21 21:37:00,
2013-02-21 16:38:00,29.4,16.4,30.04,NNW,332,9.6,17.1,58,0.00,,,0.00,VWS V14.01,2013-02-21 21:38:00,
2013-02-21 16:39:00,29.3,16.4,30.04,NNW,340,10.6,12.8,58,0.00,,,0.00,VWS V14.01,2013-02-21 21:39:00,
2013-02-21 16:40:00,29.5,17.3,30.04,NNW,332,5.7,6.8,60,0.00,,---,0.00,VWS V14.01,2013-02-21 21:40:00,
2013-02-21 16:41:00,29.5,16.8,30.04,NNW,338,0.0,10.5,59,0.00,,,0.00,VWS V14.01,2013-02-21 21:41:00,
2013-02-21 16:42:00,29.5,17.0,30.04,NW,325,7.3,9.9,59,0.00,,,0.00,VWS V14.01,2013-02-21 21:42:00,
2013-02-21 16:43:00,29.6,16.9,30.04,NNW,342,0.0,7.3,59,0.00,,,0.00,VWS V14.01,2013-02-21 21:43:00,
2013-02-21 16:44:00,29.1,16.3,30.04,North,357,12.5,17.8,58,0.00,,,0.00,VWS V14.01,2013-02-21 21:44:00,
2013-02-21 16:45:00,28.8,16.1,30.04,NNW,340,12.7,16.5,58,0.00,,---,0.00,VWS V14.01,2013-02-21 21:45:00,
2013-02-21 16:46:00,29.1,16.8,30.05,NW,325,5.2,13.5,60,0.00,,,0.00,VWS V14.01,2013-02-21 21:46:00,
2013-02-21 16:47:00,28.9,16.2,30.04,NW,316,4.4,16.5,58,0.00,,,0.00,VWS V14.01,2013-02-21 21:47:00,
2013-02-21 16:48:00,28.8,16.1,30.04,NNW,333,9.2,14.6,58,0.00,,,0.00,VWS V14.01,2013-02-21 21:48:00,
2013-02-21 16:49:00,28.9,16.4,30.04,NNW,347,16.3,16.3,59,0.00,,,0.00,VWS V14.01,2013-02-21 21:49:00,
2013-02-21 16:50:00,28.6,16.6,30.05,NW,312,5.8,9.9,60,0.00,,---,0.00,VWS V14.01,2013-02-21 21:50:00,
2013-02-21 16:51:00,28.9,16.7,30.05,NNW,347,6.0,12.9,60,0.00,,,0.00,VWS V14.01,2013-02-21 21:51:00,
2013-02-21 16:52:00,28.7,16.7,30.05,North,359,7.8,9.9,60,0.00,,,0.00,VWS V14.01,2013-02-21 21:52:00,
2013-02-21 16:53:00,28.8,16.7,30.05,WSW,257,6.6,8.6,60,0.00,,,0.00,VWS V14.01,2013-02-21 21:53:00,
2013-02-21 16:54:00,28.7,16.5,30.05,NW,308,0.0,13.2,60,0.00,,,0.00,VWS V14.01,2013-02-21 21:54:00,
2013-02-21 16:55:00,28.6,16.8,30.05,North,4,0.0,3.3,61,0.00,,---,0.00,VWS V14.01,2013-02-21 21:55:00,
2013-02-21 16:56:00,28.4,16.3,30.05,North,4,3.3,17.0,60,0.00,,,0.00,VWS V14.01,2013-02-21 21:56:00,
2013-02-21 16:57:00,28.6,17.0,30.05,NW,308,6.6,8.1,61,0.00,,,0.00,VWS V14.01,2013-02-21 21:57:00,
2013-02-21 16:58:00,28.6,16.6,30.05,WNW,292,10.2,10.2,60,0.00,,,0.00,VWS V14.01,2013-02-21 21:58:00,
2013-02-21 16:59:00,28.3,16.2,30.05,North,3,7.9,13.4,60,0.00,,,0.00,VWS V14.01,2013-02-21 21:59:00,
2013-02-21 17:00:00,28.3,16.9,30.05,NNE,20,0.0,7.0,62,0.00,,---,0.00,VWS V14.01,2013-02-21 22:00:00,
2013-02-21 17:01:00,28.4,16.6,30.05,North,356,5.2,11.3,61,0.00,,,0.00,VWS V14.01,2013-02-21 22:01:00,
2013-02-21 17:02:00,28.3,17.2,30.05,NNE,20,0.0,7.0,63,0.00,,,0.00,VWS V14.01,2013-02-21 22:02:00,
2013-02-21 17:03:00,28.6,17.3,30.05,NNE,20,0.0,2.2,62,0.00,,,0.00,VWS V14.01,2013-02-21 22:03:00,
2013-02-21 17:04:00,28.5,16.9,30.05,WNW,295,4.5,6.2,61,0.00,,,0.00,VWS V14.01,2013-02-21 22:04:00,
2013-02-21 17:05:00,28.6,17.0,30.06,WNW,302,5.8,7.4,61,0.00,,---,0.00,VWS V14.01,2013-02-21 22:05:00,
2013-02-21 17:06:00,28.4,16.6,30.06,NNW,335,7.2,7.2,61,0.00,,,0.00,VWS V14.01,2013-02-21 22:06:00,
2013-02-21 17:07:00,28.6,17.0,30.06,NNW,336,5.0,7.4,61,0.00,,,0.00,VWS V14.01,2013-02-21 22:07:00,
2013-02-21 17:08:00,28.3,16.4,30.06,NNW,336,8.1,11.4,61,0.00,,,0.00,VWS V14.01,2013-02-21 22:08:00,
2013-02-21 17:09:00,28.4,16.8,30.06,NNW,342,0.0,8.3,61,0.00,,,0.00,VWS V14.01,2013-02-21 22:09:00,
2013-02-21 17:10:00,28.4,17.1,30.06,NNW,335,0.0,0.0,62,0.00,,---,0.00,VWS V14.01,2013-02-21 22:10:00,
2013-02-21 17:11:00,28.4,17.1,30.06,NNW,335,0.0,7.1,62,0.00,,,0.00,VWS V14.01,2013-02-21 22:11:00,
2013-02-21 17:12:00,28.4,17.2,30.06,NNW,335,0.0,0.0,62,0.00,,,0.00,VWS V14.01,2013-02-21 22:12:00,
2013-02-21 17:13:00,28.2,16.8,30.06,NNE,27,6.7,8.0,62,0.00,,,0.00,VWS V14.01,2013-02-21 22:13:00,
2013-02-21 17:14:00,27.9,16.4,30.06,NNW,339,6.0,12.6,61,0.00,,,0.00,VWS V14.01,2013-02-21 22:14:00,
2013-02-21 17:15:00,27.6,16.5,30.06,NNE,21,7.2,10.3,63,0.00,,---,0.00,VWS V14.01,2013-02-21 22:15:00,
2013-02-21 17:16:00,27.6,16.2,30.06,NNE,13,9.6,13.6,62,0.00,,,0.00,VWS V14.01,2013-02-21 22:16:00,
2013-02-21 17:17:00,27.6,16.5,30.06,NNE,15,6.8,10.3,63,0.00,,,0.00,VWS V14.01,2013-02-21 22:17:00,
2013-02-21 17:18:00,27.5,16.5,30.07,North,6,5.3,13.0,63,0.00,,,0.00,VWS V14.01,2013-02-21 22:18:00,
2013-02-21 17:19:00,27.6,16.8,30.07,NNE,13,0.0,9.3,63,0.00,,,0.00,VWS V14.01,2013-02-21 22:19:00,
2013-02-21 17:20:00,27.8,17.5,30.07,North,7,0.0,2.6,65,0.00,,---,0.00,VWS V14.01,2013-02-21 22:20:00,
2013-02-21 17:21:00,27.7,17.0,30.07,North,7,2.6,7.6,64,0.00,,,0.00,VWS V14.01,2013-02-21 22:21:00,
2013-02-21 17:22:00,27.6,17.3,30.07,NNW,345,3.4,3.4,65,0.00,,,0.00,VWS V14.01,2013-02-21 22:22:00,
2013-02-21 17:23:00,27.7,17.0,30.07,NW,308,0.0,6.3,64,0.00,,,0.00,VWS V14.01,2013-02-21 22:23:00,
2013-02-21 17:24:00,27.8,17.3,30.07,NW,308,0.0,0.0,64,0.00,,,0.00,VWS V14.01,2013-02-21 22:24:00,
2013-02-21 17:25:00,27.8,17.4,30.07,West,281,0.0,6.3,64,0.00,,---,0.00,VWS V14.01,2013-02-21 22:25:00,
2013-02-21 17:26:00,27.8,17.0,30.07,NNW,328,0.0,7.6,63,0.00,,,0.00,VWS V14.01,2013-02-21 22:26:00,
2013-02-21 17:27:00,27.8,17.4,30.07,West,281,7.0,7.0,64,0.00,,,0.00,VWS V14.01,2013-02-21 22:27:00,
2013-02-21 17:28:00,27.5,16.7,30.07,NW,315,8.8,14.6,63,0.00,,,0.00,VWS V14.01,2013-02-21 22:28:00,
2013-02-21 17:29:00,27.4,16.8,30.07,NW,307,6.1,11.9,64,0.00,,,0.00,VWS V14.01,2013-02-21 22:29:00,
2013-02-21 17:30:00,27.0,16.4,30.07,NNW,330,9.5,12.9,64,0.00,,---,0.00,VWS V14.01,2013-02-21 22:30:00,
2013-02-21 17:31:00,27.0,16.2,30.07,NNW,339,7.1,14.5,63,0.00,,,0.00,VWS V14.01,2013-02-21 22:31:00,
2013-02-21 17:32:00,27.1,16.5,30.07,NNW,330,9.8,12.9,64,0.00,,,0.00,VWS V14.01,2013-02-21 22:32:00,
2013-02-21 17:33:00,26.9,16.4,30.07,NW,318,12.5,13.2,64,0.00,,,0.00,VWS V14.01,2013-02-21 22:33:00,
2013-02-21 17:34:00,27.1,16.7,30.07,North,350,7.2,14.3,64,0.00,,,0.00,VWS V14.01,2013-02-21 22:34:00,
2013-02-21 17:35:00,26.9,16.8,30.07,NW,319,0.0,7.6,65,0.00,,---,0.00,VWS V14.01,2013-02-21 22:35:00,
2013-02-21 17:36:00,27.0,16.7,30.07,WSW,238,7.6,11.7,65,0.00,,,0.00,VWS V14.01,2013-02-21 22:36:00,
2013-02-21 17:37:00,26.9,16.8,30.07,NW,319,0.0,7.6,65,0.00,,,0.00,VWS V14.01,2013-02-21 22:37:00,
2013-02-21 17:38:00,27.1,17.2,30.07,NNW,328,8.4,8.8,66,0.00,,,0.00,VWS V14.01,2013-02-21 22:38:00,
2013-02-21 17:39:00,27.0,17.0,30.07,WNW,295,2.6,9.3,65,0.00,,,0.00,VWS V14.01,2013-02-21 22:39:00,
2013-02-21 17:40:00,27.0,16.9,30.08,NNE,13,0.0,9.5,65,0.00,,---,0.00,VWS V14.01,2013-02-21 22:40:00,
2013-02-21 17:41:00,27.0,17.0,30.08,WNW,301,6.0,8.7,66,0.00,,,0.00,VWS V14.01,2013-02-21 22:41:00,
2013-02-21 17:42:00,27.0,16.9,30.08,NNE,13,0.0,9.5,65,0.00,,,0.00,VWS V14.01,2013-02-21 22:42:00,
2013-02-21 17:43:00,26.9,17.2,30.08,North,359,6.3,9.9,66,0.00,,,0.00,VWS V14.01,2013-02-21 22:43:00,
2013-02-21 17:44:00,26.7,16.6,30.08,North,10,10.8,12.4,65,0.00,,,0.00,VWS V14.01,2013-02-21 22:44:00,
2013-02-21 17:45:00,26.9,16.9,30.08,WNW,291,7.2,10.6,66,0.00,,---,0.00,VWS V14.01,2013-02-21 22:45:00,
2013-02-21 17:46:00,26.8,16.9,30.08,NW,326,10.6,10.7,66,0.00,,,0.00,VWS V14.01,2013-02-21 22:46:00,
2013-02-21 17:47:00,26.9,16.9,30.08,WNW,291,7.2,10.6,66,0.00,,,0.00,VWS V14.01,2013-02-21 22:47:00,
2013-02-21 17:48:00,26.8,16.9,30.08,NNW,346,8.0,10.2,66,0.00,,,0.00,VWS V14.01,2013-02-21 22:48:00,
2013-02-21 17:49:00,26.8,16.9,30.07,North,4,0.0,9.4,66,0.00,,,0.00,VWS V14.01,2013-02-21 22:49:00,
2013-02-21 17:50:00,26.5,16.6,30.08,North,1,11.2,17.8,66,0.00,,---,0.00,VWS V14.01,2013-02-21 22:50:00,
2013-02-21 17:51:00,26.7,16.9,30.08,NNE,25,6.2,9.6,66,0.00,,,0.00,VWS V14.01,2013-02-21 22:51:00,
2013-02-21 17:52:00,26.5,16.6,30.08,North,1,11.2,17.8,66,0.00,,,0.00,VWS V14.01,2013-02-21 22:52:00,
2013-02-21 17:53:00,26.5,16.7,30.08,North,1,8.9,14.1,66,0.00,,,0.00,VWS V14.01,2013-02-21 22:53:00,
2013-02-21 17:54:00,26.5,16.5,30.08,NW,305,0.0,15.7,65,0.00,,,0.00,VWS V14.01,2013-02-21 22:54:00,
2013-02-21 17:55:00,26.6,17.1,30.08,WNW,285,0.0,4.2,67,0.00,,---,0.00,VWS V14.01,2013-02-21 22:55:00,
2013-02-21 17:56:00,26.4,16.7,30.08,NNW,346,4.2,9.2,66,0.00,,,0.00,VWS V14.01,2013-02-21 22:56:00,
2013-02-21 17:57:00,26.6,17.1,30.08,WNW,285,0.0,4.2,67,0.00,,,0.00,VWS V14.01,2013-02-21 22:57:00,
2013-02-21 17:58:00,26.5,16.7,30.08,NNW,336,7.3,10.8,66,0.00,,,0.00,VWS V14.01,2013-02-21 22:58:00,
2013-02-21 17:59:00,26.4,16.9,30.08,NNW,346,9.9,11.6,67,0.00,,,0.00,VWS V14.01,2013-02-21 22:59:00,
2013-02-21 18:00:00,26.3,16.7,30.08,North,350,6.5,8.7,67,0.00,,---,0.00,VWS V14.01,2013-02-21 23:00:00,
2013-02-21 18:01:00,26.4,16.6,30.08,NW,322,7.4,15.3,66,0.00,,,0.00,VWS V14.01,2013-02-21 23:01:00,
2013-02-21 18:02:00,26.3,16.7,30.08,North,350,6.5,8.7,67,0.00,,,0.00,VWS V14.01,2013-02-21 23:02:00,
2013-02-21 18:03:00,26.4,16.8,30.08,NW,315,7.7,7.7,67,0.00,,,0.00,VWS V14.01,2013-02-21 23:03:00,
2013-02-21 18:04:00,26.1,16.5,30.08,North,359,4.8,14.5,66,0.00,,,0.00,VWS V14.01,2013-02-21 23:04:00,
2013-02-21 18:05:00,26.1,16.8,30.08,NW,304,5.2,11.9,67,0.00,,---,0.00,VWS V14.01,2013-02-21 23:05:00,
2013-02-21 18:06:00,26.1,16.8,30.08,WNW,300,8.6,10.8,67,0.00,,,0.00,VWS V14.01,2013-02-21 23:06:00,
2013-02-21 18:07:00,26.1,16.8,30.08,NW,304,5.2,11.9,67,0.00,,,0.00,VWS V14.01,2013-02-21 23:07:00,
2013-02-21 18:08:00,26.1,17.0,30.08,WNW,290,5.9,11.1,68,0.00,,,0.00,VWS V14.01,2013-02-21 23:08:00,
2013-02-21 18:09:00,26.0,16.7,30.08,WNW,298,11.6,13.4,67,0.00,,,0.00,VWS V14.01,2013-02-21 23:09:00,
2013-02-21 18:10:00,25.9,16.8,30.08,NNW,339,5.3,13.0,68,0.00,,---,0.00,VWS V14.01,2013-02-21 23:10:00,
2013-02-21 18:11:00,26.0,16.8,30.08,NNW,336,11.6,12.8,68,0.00,,,0.00,VWS V14.01,2013-02-21 23:11:00,
2013-02-21 18:12:00,25.9,16.8,30.08,NNW,339,5.3,13.0,68,0.00,,,0.00,VWS V14.01,2013-02-21 23:12:00,
2013-02-21 18:13:00,25.9,17.0,30.08,West,270,11.1,14.0,68,0.00,,,0.00,VWS V14.01,2013-02-21 23:13:00,
2013-02-21 18:14:00,25.9,16.9,30.08,NW,326,9.3,11.1,68,0.00,,,0.00,VWS V14.01,2013-02-21 23:14:00,
2013-02-21 18:15:00,25.8,16.7,30.08,North,359,5.0,13.0,68,0.00,,---,0.00,VWS V14.01,2013-02-21 23:15:00,
2013-02-21 18:16:00,25.7,16.5,30.08,NW,325,11.5,15.5,68,0.00,,,0.00,VWS V14.01,2013-02-21 23:16:00,
2013-02-21 18:17:00,25.8,16.7,30.08,North,359,5.0,13.0,68,0.00,,,0.00,VWS V14.01,2013-02-21 23:17:00,
2013-02-21 18:18:00,25.9,17.1,30.08,NW,325,11.2,19.0,69,0.00,,,0.00,VWS V14.01,2013-02-21 23:18:00,
2013-02-21 18:19:00,25.7,16.8,30.08,North,354,10.1,12.3,68,0.00,,,0.00,VWS V14.01,2013-02-21 23:19:00,
2013-02-21 18:20:00,25.7,17.1,30.08,West,269,9.9,10.0,69,0.00,,---,0.00,VWS V14.01,2013-02-21 23:20:00,
2013-02-21 18:21:00,25.7,16.9,30.08,NNW,335,9.8,10.0,69,0.00,,,0.00,VWS V14.01,2013-02-21 23:21:00,
2013-02-21 18:22:00,25.7,17.0,30.08,NNW,329,8.3,13.9,69,0.00,,,0.00,VWS V14.01,2013-02-21 23:22:00,
2013-02-21 18:23:00,25.6,16.9,30.08,NNW,330,0.0,12.1,69,0.00,,,0.00,VWS V14.01,2013-02-21 23:23:00,
2013-02-21 18:24:00,25.6,16.8,30.09,NNW,330,6.9,13.4,69,0.00,,,0.00,VWS V14.01,2013-02-21 23:24:00,
2013-02-21 18:25:00,25.6,17.1,30.09,NW,309,6.3,6.8,70,0.00,,---,0.00,VWS V14.01,2013-02-21 23:25:00,
2013-02-21 18:26:00,25.5,16.8,30.09,NNW,329,8.8,9.1,69,0.00,,,0.00,VWS V14.01,2013-02-21 23:26:00,
2013-02-21 18:27:00,25.6,17.0,30.09,NNW,332,3.4,11.9,69,0.00,,,0.00,VWS V14.01,2013-02-21 23:27:00,
2013-02-21 18:28:00,25.5,16.9,30.09,West,259,6.8,11.7,69,0.00,,,0.00,VWS V14.01,2013-02-21 23:28:00,
2013-02-21 18:29:00,25.4,16.7,30.09,NNW,347,11.0,12.1,69,0.00,,,0.00,VWS V14.01,2013-02-21 23:29:00,
2013-02-21 18:30:00,25.1,16.5,30.09,NNE,14,5.3,12.0,70,0.00,,---,0.00,VWS V14.01,2013-02-21 23:30:00,
2013-02-21 18:31:00,25.4,16.9,30.09,NW,309,9.3,13.3,70,0.00,,,0.00,VWS V14.01,2013-02-21 23:31:00,
2013-02-21 18:32:00,25.2,16.7,30.09,WNW,287,12.0,21.3,70,0.00,,,0.00,VWS V14.01,2013-02-21 23:32:00,
2013-02-21 18:33:00,25.2,16.7,30.10,NNW,338,3.4,12.0,70,0.00,,,0.00,VWS V14.01,2013-02-21 23:33:00,
2013-02-21 18:34:00,25.3,16.8,30.10,NW,305,8.9,9.8,70,0.00,,,0.00,VWS V14.01,2013-02-21 23:34:00,
2013-02-21 18:35:00,25.1,16.8,30.10,NNW,336,10.1,12.9,70,0.00,,---,0.00,VWS V14.01,2013-02-21 23:35:00,
2013-02-21 18:36:00,25.3,17.0,30.10,WNW,291,1.4,10.3,70,0.00,,,0.00,VWS V14.01,2013-02-21 23:36:00,
2013-02-21 18:37:00,25.1,16.7,30.10,NW,321,9.3,12.1,70,0.00,,,0.00,VWS V14.01,2013-02-21 23:37:00,
2013-02-21 18:38:00,25.1,16.8,30.10,NW,307,8.1,12.9,70,0.00,,,0.00,VWS V14.01,2013-02-21 23:38:00,
2013-02-21 18:39:00,25.1,16.9,30.10,NNW,340,8.7,16.1,71,0.00,,,0.00,VWS V14.01,2013-02-21 23:39:00,
2013-02-21 18:40:00,25.0,17.2,30.10,WNW,292,11.1,12.1,72,0.00,,---,0.00,VWS V14.01,2013-02-21 23:40:00,
2013-02-21 18:41:00,25.0,16.7,30.10,NW,315,7.6,17.0,70,0.00,,,0.00,VWS V14.01,2013-02-21 23:41:00,
2013-02-21 18:42:00,25.0,16.8,30.10,NNW,333,7.6,11.1,71,0.00,,,0.00,VWS V14.01,2013-02-21 23:42:00,
2013-02-21 18:43:00,25.0,16.9,30.10,ENE,68,8.1,14.4,71,0.00,,,0.00,VWS V14.01,2013-02-21 23:43:00,
2013-02-21 18:44:00,24.9,16.8,30.10,NW,305,8.7,10.4,71,0.00,,,0.00,VWS V14.01,2013-02-21 23:44:00,
2013-02-21 18:45:00,24.8,16.8,30.10,NNW,342,6.8,8.0,71,0.00,,---,0.00,VWS V14.01,2013-02-21 23:45:00,
2013-02-21 18:46:00,24.8,16.7,30.10,NW,318,11.6,15.2,71,0.00,,,0.00,VWS V14.01,2013-02-21 23:46:00,
2013-02-21 18:47:00,24.7,16.6,30.10,North,357,7.1,12.4,71,0.00,,,0.00,VWS V14.01,2013-02-21 23:47:00,
2013-02-21 18:48:00,24.8,16.9,30.10,North,359,5.1,8.6,72,0.00,,,0.00,VWS V14.01,2013-02-21 23:48:00,
2013-02-21 18:49:00,24.8,16.9,30.10,NNW,335,4.5,8.6,72,0.00,,,0.00,VWS V14.01,2013-02-21 23:49:00,
2013-02-21 18:50:00,24.7,16.9,30.11,NNW,339,6.2,9.0,72,0.00,,---,0.00,VWS V14.01,2013-02-21 23:50:00,
2013-02-21 18:51:00,24.8,16.9,30.10,WNW,302,0.0,9.1,72,0.00,,,0.00,VWS V14.01,2013-02-21 23:51:00,
2013-02-21 18:52:00,24.8,17.2,30.10,NW,316,9.0,11.2,72,0.00,,,0.00,VWS V14.01,2013-02-21 23:52:00,
2013-02-21 18:53:00,24.8,16.9,30.11,North,359,0.0,9.0,72,0.00,,,0.00,VWS V14.01,2013-02-21 23:53:00,
2013-02-21 18:54:00,24.7,16.9,30.11,North,354,0.0,8.9,72,0.00,,,0.00,VWS V14.01,2013-02-21 23:54:00,
2013-02-21 18:55:00,24.8,17.0,30.12,North,354,1.6,1.6,72,0.00,,,0.00,VWS V14.01,2013-02-21 23:55:00,
2013-02-21 18:56:00,24.7,16.9,30.13,NNW,340,0.0,6.8,72,0.00,,---,0.00,VWS V14.01,2013-02-21 23:56:00,
2013-02-21 18:57:00,24.7,16.9,30.12,NNW,347,5.3,8.4,72,0.00,,,0.00,VWS V14.01,2013-02-21 23:57:00,
2013-02-21 18:58:00,24.7,17.1,30.12,NNW,340,0.0,6.8,72,0.00,,,0.00,VWS V14.01,2013-02-21 23:58:00,
2013-02-21 18:59:00,24.8,17.3,30.12,NW,325,7.0,8.0,73,0.00,,,0.00,VWS V14.01,2013-02-21 23:59:00,
2013-02-21 19:00:00,24.7,17.0,30.12,NNW,339,4.5,11.5,72,0.00,,,0.00,VWS V14.01,2013-02-22 00:00:00,
2013-02-21 19:01:00,24.5,16.8,30.13,North,6,10.9,10.9,72,0.00,,---,0.00,VWS V14.01,2013-02-22 00:01:00,
2013-02-21 19:02:00,24.6,16.8,30.12,NNE,15,7.7,13.4,72,0.00,,,0.00,VWS V14.01,2013-02-22 00:02:00,
2013-02-21 19:03:00,24.5,16.8,30.12,North,354,6.3,11.6,72,0.00,,,0.00,VWS V14.01,2013-02-22 00:03:00,
2013-02-21 19:04:00,24.6,16.9,30.12,North,353,5.9,10.1,72,0.00,,,0.00,VWS V14.01,2013-02-22 00:04:00,
2013-02-21 19:05:00,24.5,17.0,30.12,NNW,330,6.5,8.0,73,0.00,,,0.00,VWS V14.01,2013-02-22 00:05:00,
2013-02-21 19:06:00,24.5,17.0,30.11,NNW,339,0.0,8.6,73,0.00,,---,0.00,VWS V14.01,2013-02-22 00:06:00,
2013-02-21 19:07:00,24.5,17.0,30.12,NNW,336,7.8,10.9,73,0.00,,,0.00,VWS V14.01,2013-02-22 00:07:00,
2013-02-21 19:08:00,24.5,16.9,30.11,NNW,340,11.7,11.7,72,0.00,,,0.00,VWS V14.01,2013-02-22 00:08:00,
2013-02-21 19:09:00,24.4,17.0,30.11,North,354,8.4,14.7,73,0.00,,,0.00,VWS V14.01,2013-02-22 00:09:00,
2013-02-21 19:10:00,24.4,17.0,30.10,North,1,6.0,14.9,73,0.00,,,0.00,VWS V14.01,2013-02-22 00:10:00,
2013-02-21 19:11:00,24.4,17.0,30.10,NNW,347,5.0,10.2,73,0.00,,---,0.00,VWS V14.01,2013-02-22 00:11:00,
2013-02-21 19:12:00,24.4,17.1,30.10,NNW,329,10.2,10.2,73,0.00,,,0.00,VWS V14.01,2013-02-22 00:12:00,
2013-02-21 19:13:00,24.4,17.1,30.10,NNW,347,3.4,10.2,73,0.00,,,0.00,VWS V14.01,2013-02-22 00:13:00,
2013-02-21 19:14:00,24.4,17.1,30.10,North,353,6.5,9.4,73,0.00,,,0.00,VWS V14.01,2013-02-22 00:14:00,
2013-02-21 19:15:00,24.4,17.1,30.11,NW,323,0.0,8.9,73,0.00,,,0.00,VWS V14.01,2013-02-22 00:15:00,
2013-02-21 19:16:00,24.4,17.1,30.12,NNW,342,3.3,3.3,73,0.00,,---,0.00,VWS V14.01,2013-02-22 00:16:00,
2013-02-21 19:17:00,24.5,17.4,30.12,NW,319,0.0,10.1,74,0.00,,,0.00,VWS V14.01,2013-02-22 00:17:00,
2013-02-21 19:18:00,24.4,17.4,30.12,North,10,7.3,10.0,74,0.00,,,0.00,VWS V14.01,2013-02-22 00:18:00,
2013-02-21 19:19:00,24.4,17.1,30.12,WSW,242,0.0,8.7,73,0.00,,,0.00,VWS V14.01,2013-02-22 00:19:00,
2013-02-21 19:20:00,24.5,17.1,30.12,WSW,242,0.0,0.0,73,0.00,,,0.00,VWS V14.01,2013-02-22 00:20:00,
2013-02-21 19:21:00,24.4,17.0,30.13,NNW,338,4.2,8.5,73,0.00,,---,0.00,VWS V14.01,2013-02-22 00:21:00,
2013-02-21 19:22:00,24.5,17.4,30.13,North,1,7.7,11.5,74,0.00,,,0.00,VWS V14.01,2013-02-22 00:22:00,
2013-02-21 19:23:00,24.4,17.1,30.13,WNW,294,4.8,8.5,73,0.00,,,0.00,VWS V14.01,2013-02-22 00:23:00,
2013-02-21 19:24:00,24.5,17.2,30.13,NNW,338,0.0,8.0,73,0.00,,,0.00,VWS V14.01,2013-02-22 00:24:00,
2013-02-21 19:25:00,24.5,17.2,30.13,West,271,7.1,10.3,73,0.00,,,0.00,VWS V14.01,2013-02-22 00:25:00,
2013-02-21 19:26:00,24.3,17.1,30.14,NNW,343,7.3,10.0,74,0.00,,---,0.00,VWS V14.01,2013-02-22 00:26:00,
2013-02-21 19:27:00,24.3,16.9,30.14,WNW,295,6.3,12.0,73,0.00,,,0.00,VWS V14.01,2013-02-22 00:27:00,
2013-02-21 19:28:00,24.3,16.9,30.14,North,6,6.8,10.0,73,0.00,,,0.00,VWS V14.01,2013-02-22 00:28:00,
2013-02-21 19:29:00,24.3,17.0,30.14,NNW,333,7.6,8.0,73,0.00,,,0.00,VWS V14.01,2013-02-22 00:29:00,
2013-02-21 19:30:00,24.4,17.2,30.14,NNE,20,0.0,7.6,74,0.00,,,0.00,VWS V14.01,2013-02-22 00:30:00,
2013-02-21 19:31:00,24.2,17.1,30.14,NNW,347,7.2,10.1,74,0.00,,---,0.00,VWS V14.01,2013-02-22 00:31:00,
2013-02-21 19:32:00,24.3,17.0,30.14,NE,39,8.0,9.5,73,0.00,,,0.00,VWS V14.01,2013-02-22 00:32:00,
2013-02-21 19:33:00,24.1,16.8,30.14,North,4,8.1,10.8,73,0.00,,,0.00,VWS V14.01,2013-02-22 00:33:00,
2013-02-21 19:34:00,24.1,16.9,30.14,NNW,339,9.3,11.8,74,0.00,,,0.00,VWS V14.01,2013-02-22 00:34:00,
2013-02-21 19:35:00,24.2,17.1,30.14,NNE,14,5.7,10.1,74,0.00,,,0.00,VWS V14.01,2013-02-22 00:35:00,
2013-02-21 19:36:00,24.1,17.2,30.14,NNW,347,7.1,7.1,75,0.00,,---,0.00,VWS V14.01,2013-02-22 00:36:00,
2013-02-21 19:37:00,24.2,17.2,30.14,NNW,346,0.0,5.8,74,0.00,,,0.00,VWS V14.01,2013-02-22 00:37:00,
2013-02-21 19:38:00,24.1,17.1,30.14,NNW,346,5.0,8.6,74,0.00,,,0.00,VWS V14.01,2013-02-22 00:38:00,
2013-02-21 19:39:00,24.2,17.1,30.14,NNW,329,0.0,6.4,74,0.00,,,0.00,VWS V14.01,2013-02-22 00:39:00,
2013-02-21 19:40:00,24.3,17.2,30.14,NNW,329,0.0,0.0,74,0.00,,,0.00,VWS V14.01,2013-02-22 00:40:00,
2013-02-21 19:41:00,24.3,17.4,30.15,NNW,329,0.0,0.0,74,0.00,,---,0.00,VWS V14.01,2013-02-22 00:41:00,
2013-02-21 19:42:00,24.3,17.4,30.15,NNW,329,0.0,0.0,74,0.00,,,0.00,VWS V14.01,2013-02-22 00:42:00,
2013-02-21 19:43:00,24.3,17.3,30.15,NNW,329,0.0,0.0,74,0.00,,,0.00,VWS V14.01,2013-02-22 00:43:00,
2013-02-21 19:44:00,24.4,17.6,30.15,NNW,329,0.0,0.0,75,0.00,,,0.00,VWS V14.01,2013-02-22 00:44:00,
2013-02-21 19:45:00,24.3,17.2,30.15,North,4,8.8,10.3,74,0.00,,,0.00,VWS V14.01,2013-02-22 00:45:00,
2013-02-21 19:46:00,24.3,17.3,30.15,NNW,336,0.0,5.8,74,0.00,,---,0.00,VWS V14.01,2013-02-22 00:46:00,
2013-02-21 19:47:00,24.3,17.1,30.16,NNW,335,3.5,7.7,74,0.00,,,0.00,VWS V14.01,2013-02-22 00:47:00,
2013-02-21 19:48:00,24.3,17.2,30.16,NW,316,8.3,9.2,74,0.00,,,0.00,VWS V14.01,2013-02-22 00:48:00,
2013-02-21 19:49:00,24.2,17.1,30.16,NW,326,5.0,9.3,74,0.00,,,0.00,VWS V14.01,2013-02-22 00:49:00,
2013-02-21 19:50:00,24.3,17.2,30.16,North,359,0.0,8.1,74,0.00,,,0.00,VWS V14.01,2013-02-22 00:50:00,
2013-02-21 19:51:00,24.2,17.1,30.17,NNE,30,0.0,4.2,74,0.00,,---,0.00,VWS V14.01,2013-02-22 00:51:00,
2013-02-21 19:52:00,24.2,17.0,30.16,NNE,30,4.2,7.5,74,0.00,,,0.00,VWS V14.01,2013-02-22 00:52:00,
2013-02-21 19:53:00,24.3,17.2,30.17,NNE,30,0.0,4.2,74,0.00,,,0.00,VWS V14.01,2013-02-22 00:53:00,
2013-02-21 19:54:00,24.3,17.3,30.17,NNE,30,0.0,2.1,74,0.00,,,0.00,VWS V14.01,2013-02-22 00:54:00,
2013-02-21 19:55:00,24.3,17.1,30.17,WNW,285,0.0,9.4,74,0.00,,,0.00,VWS V14.01,2013-02-22 00:55:00,
2013-02-21 19:56:00,24.2,17.2,30.17,NNE,21,6.6,9.7,74,0.00,,---,0.00,VWS V14.01,2013-02-22 00:56:00,
2013-02-21 19:57:00,24.3,17.3,30.17,North,1,4.5,4.5,74,0.00,,,0.00,VWS V14.01,2013-02-22 00:57:00,
2013-02-21 19:58:00,24.1,17.1,30.17,NW,319,7.1,9.7,74,0.00,,,0.00,VWS V14.01,2013-02-22 00:58:00,
2013-02-21 19:59:00,24.1,17.1,30.17,NW,325,6.4,9.8,74,0.00,,,0.00,VWS V14.01,2013-02-22 00:59:00,
2013-02-21 20:00:00,24.1,17.0,30.17,NW,316,7.8,12.0,74,0.00,,,0.00,VWS V14.01,2013-02-22 01:00:00,
2013-02-21 20:01:00,23.9,16.9,30.18,North,8,10.7,10.7,74,0.00,,---,0.00,VWS V14.01,2013-02-22 01:01:00,
2013-02-21 20:02:00,24.0,16.9,30.17,West,281,0.0,9.1,74,0.00,,,0.00,VWS V14.01,2013-02-22 01:02:00,
2013-02-21 20:03:00,23.8,16.9,30.17,North,4,8.3,10.8,74,0.00,,,0.00,VWS V14.01,2013-02-22 01:03:00,
2013-02-21 20:04:00,23.8,16.8,30.18,North,359,6.6,14.0,74,0.00,,,0.00,VWS V14.01,2013-02-22 01:04:00,
2013-02-21 20:05:00,23.7,16.7,30.18,NNW,339,0.0,10.5,74,0.00,,,0.00,VWS V14.01,2013-02-22 01:05:00,
2013-02-21 20:06:00,23.7,17.2,30.18,NW,307,0.0,9.4,76,0.00,,---,0.00,VWS V14.01,2013-02-22 01:06:00,
2013-02-21 20:07:00,23.6,16.9,30.18,NW,319,6.3,10.8,75,0.00,,,0.00,VWS V14.01,2013-02-22 01:07:00,
2013-02-21 20:08:00,23.7,17.1,30.18,NNW,336,5.7,9.4,76,0.00,,,0.00,VWS V14.01,2013-02-22 01:08:00,
2013-02-21 20:09:00,23.7,17.0,30.19,NNW,345,0.0,6.6,75,0.00,,,0.00,VWS V14.01,2013-02-22 01:09:00,
2013-02-21 20:10:00,23.7,17.0,30.19,NNW,335,4.7,9.3,75,0.00,,,0.00,VWS V14.01,2013-02-22 01:10:00,
2013-02-21 20:11:00,23.5,16.9,30.19,North,352,8.1,13.2,75,0.00,,---,0.00,VWS V14.01,2013-02-22 01:11:00,
2013-02-21 20:12:00,23.7,17.0,30.19,North,0,0.0,11.4,75,0.00,,,0.00,VWS V14.01,2013-02-22 01:12:00,
2013-02-21 20:13:00,23.4,16.7,30.19,NNW,328,7.7,13.2,75,0.00,,,0.00,VWS V14.01,2013-02-22 01:13:00,
2013-02-21 20:14:00,23.6,17.0,30.19,West,278,0.0,10.4,75,0.00,,,0.00,VWS V14.01,2013-02-22 01:14:00,
2013-02-21 20:15:00,23.5,17.0,30.20,WNW,287,0.0,6.0,76,0.00,,,0.00,VWS V14.01,2013-02-22 01:15:00,
2013-02-21 20:16:00,23.6,17.1,30.20,WNW,295,0.0,0.0,76,0.00,,---,0.00,VWS V14.01,2013-02-22 01:16:00,
2013-02-21 20:17:00,23.6,16.9,30.20,WNW,295,0.0,4.9,75,0.00,,,0.00,VWS V14.01,2013-02-22 01:17:00,
2013-02-21 20:18:00,23.6,17.1,30.20,WNW,295,0.0,0.0,76,0.00,,,0.00,VWS V14.01,2013-02-22 01:18:00,
2013-02-21 20:19:00,23.6,17.1,30.19,WNW,295,0.0,0.0,76,0.00,,,0.00,VWS V14.01,2013-02-22 01:19:00,
2013-02-21 20:20:00,23.7,17.2,30.19,WNW,295,0.0,0.0,76,0.00,,,0.00,VWS V14.01,2013-02-22 01:20:00,
2013-02-21 20:21:00,23.7,17.1,30.19,NNW,338,0.0,0.0,75,0.00,,---,0.00,VWS V14.01,2013-02-22 01:21:00,
2013-02-21 20:22:00,23.7,17.2,30.19,NNW,338,0.0,0.0,76,0.00,,,0.00,VWS V14.01,2013-02-22 01:22:00,
2013-02-21 20:23:00,23.7,17.1,30.19,NNW,338,0.0,0.0,75,0.00,,,0.00,VWS V14.01,2013-02-22 01:23:00,
2013-02-21 20:24:00,23.7,17.0,30.19,NNW,338,0.0,0.0,75,0.00,,,0.00,VWS V14.01,2013-02-22 01:24:00,
2013-02-21 20:25:00,23.7,17.1,30.19,NNW,338,0.0,3.3,76,0.00,,,0.00,VWS V14.01,2013-02-22 01:25:00,
2013-02-21 20:26:00,23.8,17.0,30.19,NW,319,0.0,0.0,75,0.00,,---,0.00,VWS V14.01,2013-02-22 01:26:00,
2013-02-21 20:27:00,23.8,17.1,30.19,NW,319,0.0,6.1,75,0.00,,,0.00,VWS V14.01,2013-02-22 01:27:00,
2013-02-21 20:28:00,23.8,17.0,30.19,NW,319,0.0,0.0,75,0.00,,,0.00,VWS V14.01,2013-02-22 01:28:00,
2013-02-21 20:29:00,23.8,17.1,30.20,NW,319,0.0,0.0,75,0.00,,,0.00,VWS V14.01,2013-02-22 01:29:00,
2013-02-21 20:30:00,23.8,17.2,30.19,NW,319,0.0,0.0,75,0.00,,,0.00,VWS V14.01,2013-02-22 01:30:00,
2013-02-21 20:31:00,23.7,17.0,30.20,NW,322,0.0,8.0,75,0.00,,---,0.00,VWS V14.01,2013-02-22 01:31:00,
2013-02-21 20:32:00,23.8,17.0,30.20,WNW,300,0.0,6.6,75,0.00,,,0.00,VWS V14.01,2013-02-22 01:32:00,
2013-02-21 20:33:00,23.7,17.0,30.20,NW,322,0.0,8.0,75,0.00,,,0.00,VWS V14.01,2013-02-22 01:33:00,
2013-02-21 20:34:00,23.6,16.9,30.20,North,8,7.5,8.8,75,0.00,,,0.00,VWS V14.01,2013-02-22 01:34:00,
2013-02-21 20:35:00,23.6,17.0,30.20,North,356,0.0,8.2,75,0.00,,,0.00,VWS V14.01,2013-02-22 01:35:00,
2013-02-21 20:36:00,23.6,17.2,30.20,North,356,0.0,0.0,76,0.00,,---,0.00,VWS V14.01,2013-02-22 01:36:00,
2013-02-21 20:37:00,23.6,17.1,30.20,North,356,0.0,0.0,76,0.00,,,0.00,VWS V14.01,2013-02-22 01:37:00,
2013-02-21 20:38:00,23.6,17.2,30.20,North,356,0.0,0.0,76,0.00,,,0.00,VWS V14.01,2013-02-22 01:38:00,
2013-02-21 20:39:00,23.5,17.2,30.20,North,356,7.9,8.6,76,0.00,,,0.00,VWS V14.01,2013-02-22 01:39:00,
2013-02-21 20:40:00,23.4,17.0,30.20,WNW,291,5.2,9.2,76,0.00,,,0.00,VWS V14.01,2013-02-22 01:40:00,
2013-02-21 20:41:00,23.2,17.0,30.20,North,357,8.6,9.1,77,0.00,,---,0.00,VWS V14.01,2013-02-22 01:41:00,
2013-02-21 20:42:00,23.3,16.9,30.20,NW,304,0.0,12.3,76,0.00,,,0.00,VWS V14.01,2013-02-22 01:42:00,
2013-02-21 20:43:00,23.2,17.0,30.20,NNW,328,8.5,9.1,77,0.00,,,0.00,VWS V14.01,2013-02-22 01:43:00,
2013-02-21 20:44:00,23.2,16.9,30.21,NNW,336,6.8,9.0,76,0.00,,,0.00,VWS V14.01,2013-02-22 01:44:00,
2013-02-21 20:45:00,23.3,17.0,30.21,NW,312,4.5,7.9,77,0.00,,,0.00,VWS V14.01,2013-02-22 01:45:00,
2013-02-21 20:46:00,23.3,17.4,30.21,West,264,7.6,8.7,78,0.00,,---,0.00,VWS V14.01,2013-02-22 01:46:00,
2013-02-21 20:47:00,23.3,17.1,30.21,North,4,0.0,8.9,77,0.00,,,0.00,VWS V14.01,2013-02-22 01:47:00,
2013-02-21 20:48:00,23.3,17.4,30.21,West,263,8.7,9.3,78,0.00,,,0.00,VWS V14.01,2013-02-22 01:48:00,
2013-02-21 20:49:00,23.3,17.3,30.21,NNW,330,0.0,8.7,78,0.00,,,0.00,VWS V14.01,2013-02-22 01:49:00,
2013-02-21 20:50:00,23.3,17.2,30.21,NNW,329,0.0,5.3,77,0.00,,,0.00,VWS V14.01,2013-02-22 01:50:00,
2013-02-21 20:51:00,23.3,17.4,30.21,NW,318,7.0,7.0,78,0.00,,---,0.00,VWS V14.01,2013-02-22 01:51:00,
2013-02-21 20:52:00,23.2,17.2,30.21,WNW,285,3.4,6.7,77,0.00,,,0.00,VWS V14.01,2013-02-22 01:52:00,
2013-02-21 20:53:00,23.3,17.4,30.21,NNW,336,6.7,6.8,78,0.00,,,0.00,VWS V14.01,2013-02-22 01:53:00,
2013-02-21 20:54:00,23.2,17.2,30.21,West,277,2.9,8.1,77,0.00,,,0.00,VWS V14.01,2013-02-22 01:54:00,
2013-02-21 20:55:00,23.2,17.2,30.21,NNW,336,6.5,8.6,78,0.00,,,0.00,VWS V14.01,2013-02-22 01:55:00,
2013-02-21 20:56:00,23.2,17.3,30.22,West,273,0.0,5.5,78,0.00,,---,0.00,VWS V14.01,2013-02-22 01:56:00,
2013-02-21 20:57:00,23.2,17.3,30.22,NNW,343,0.0,4.9,78,0.00,,,0.00,VWS V14.01,2013-02-22 01:57:00,
2013-02-21 20:58:00,23.2,17.3,30.22,West,273,0.0,5.5,78,0.00,,,0.00,VWS V14.01,2013-02-22 01:58:00,
2013-02-21 20:59:00,23.2,17.4,30.22,West,273,0.0,0.0,78,0.00,,,0.00,VWS V14.01,2013-02-22 01:59:00,
2013-02-21 21:00:00,23.2,17.4,30.22,West,273,0.0,0.0,78,0.00,,,0.00,VWS V14.01,2013-02-22 02:00:00,
2013-02-21 21:01:00,23.2,17.2,30.22,WNW,298,0.0,4.7,78,0.00,,---,0.00,VWS V14.01,2013-02-22 02:01:00,
2013-02-21 21:02:00,23.1,17.1,30.22,NW,319,4.5,8.5,77,0.00,,,0.00,VWS V14.01,2013-02-22 02:02:00,
2013-02-21 21:03:00,23.2,17.2,30.22,WNW,298,0.0,4.7,78,0.00,,,0.00,VWS V14.01,2013-02-22 02:03:00,
2013-02-21 21:04:00,23.2,17.4,30.23,WNW,298,0.0,0.0,78,0.00,,,0.00,VWS V14.01,2013-02-22 02:04:00,
2013-02-21 21:05:00,23.2,17.3,30.23,WNW,298,0.0,0.0,78,0.00,,,0.00,VWS V14.01,2013-02-22 02:05:00,
2013-02-21 21:06:00,23.3,17.4,30.22,WNW,298,0.0,0.0,78,0.00,,---,0.00,VWS V14.01,2013-02-22 02:06:00,
2013-02-21 21:07:00,23.2,17.3,30.22,WNW,298,0.0,0.0,78,0.00,,,0.00,VWS V14.01,2013-02-22 02:07:00,
2013-02-21 21:08:00,23.3,17.4,30.22,WNW,298,0.0,0.0,78,0.00,,,0.00,VWS V14.01,2013-02-22 02:08:00,
2013-02-21 21:09:00,23.1,17.2,30.23,WNW,298,0.0,3.4,78,0.00,,,0.00,VWS V14.01,2013-02-22 02:09:00,
2013-02-21 21:10:00,23.2,17.5,30.23,NW,325,5.0,7.3,78,0.00,,,0.00,VWS V14.01,2013-02-22 02:10:00,
2013-02-21 21:11:00,23.2,17.4,30.24,NW,315,0.0,2.2,78,0.00,,---,0.00,VWS V14.01,2013-02-22 02:11:00,
2013-02-21 21:12:00,23.2,17.4,30.23,NW,315,2.2,8.7,78,0.00,,,0.00,VWS V14.01,2013-02-22 02:12:00,
2013-02-21 21:13:00,23.2,17.4,30.24,NW,315,0.0,2.2,78,0.00,,,0.00,VWS V14.01,2013-02-22 02:13:00,
2013-02-21 21:14:00,23.3,17.4,30.24,NW,315,0.0,0.0,78,0.00,,,0.00,VWS V14.01,2013-02-22 02:14:00,
2013-02-21 21:15:00,23.2,17.4,30.24,North,352,7.0,9.6,78,0.00,,,0.00,VWS V14.01,2013-02-22 02:15:00,
2013-02-21 21:16:00,23.2,17.5,30.24,NW,316,0.0,7.3,78,0.00,,---,0.00,VWS V14.01,2013-02-22 02:16:00,
2013-02-21 21:17:00,23.2,17.7,30.24,North,359,0.0,0.0,79,0.00,,,0.00,VWS V14.01,2013-02-22 02:17:00,
2013-02-21 21:18:00,23.2,17.5,30.24,NW,316,0.0,7.3,78,0.00,,,0.00,VWS V14.01,2013-02-22 02:18:00,
2013-02-21 21:19:00,23.3,17.6,30.24,NNE,15,5.5,7.8,78,0.00,,,0.00,VWS V14.01,2013-02-22 02:19:00,
2013-02-21 21:20:00,23.2,17.3,30.24,NNE,20,4.2,7.6,78,0.00,,,0.00,VWS V14.01,2013-02-22 02:20:00,
2013-02-21 21:21:00,23.0,17.2,30.24,NNW,342,2.7,7.9,78,0.00,,---,0.00,VWS V14.01,2013-02-22 02:21:00,
2013-02-21 21:22:00,23.0,17.2,30.24,North,4,5.9,10.2,78,0.00,,,0.00,VWS V14.01,2013-02-22 02:22:00,
2013-02-21 21:23:00,23.0,17.2,30.24,NNW,342,2.7,7.9,78,0.00,,,0.00,VWS V14.01,2013-02-22 02:23:00,
2013-02-21 21:24:00,23.1,17.4,30.24,North,357,3.5,10.4,78,0.00,,,0.00,VWS V14.01,2013-02-22 02:24:00,
2013-02-21 21:25:00,23.1,17.3,30.23,NNW,342,4.7,5.2,78,0.00,,,0.00,VWS V14.01,2013-02-22 02:25:00,
2013-02-21 21:26:00,23.0,17.6,30.24,NNW,340,4.4,7.4,79,0.00,,---,0.00,VWS V14.01,2013-02-22 02:26:00,
2013-02-21 21:27:00,23.1,17.7,30.24,North,11,0.0,3.4,79,0.00,,,0.00,VWS V14.01,2013-02-22 02:27:00,
2013-02-21 21:28:00,23.0,17.6,30.24,NNW,340,4.4,7.4,79,0.00,,,0.00,VWS V14.01,2013-02-22 02:28:00,
2013-02-21 21:29:00,23.0,17.5,30.24,WNW,285,0.0,7.8,79,0.00,,,0.00,VWS V14.01,2013-02-22 02:29:00,
2013-02-21 21:30:00,23.1,17.5,30.24,West,278,0.0,8.6,79,0.00,,,0.00,VWS V14.01,2013-02-22 02:30:00,
2013-02-21 21:31:00,23.0,17.6,30.24,NW,312,7.3,9.3,80,0.00,,---,0.00,VWS V14.01,2013-02-22 02:31:00,
2013-02-21 21:32:00,23.1,17.7,30.24,NNW,332,6.1,7.6,79,0.00,,,0.00,VWS V14.01,2013-02-22 02:32:00,
2013-02-21 21:33:00,23.0,17.6,30.24,NW,312,7.3,9.3,80,0.00,,,0.00,VWS V14.01,2013-02-22 02:33:00,
2013-02-21 21:34:00,23.0,17.6,30.24,WNW,298,8.4,9.2,79,0.00,,,0.00,VWS V14.01,2013-02-22 02:34:00,
2013-02-21 21:35:00,23.1,17.6,30.24,NNW,332,6.6,8.4,79,0.00,,,0.00,VWS V14.01,2013-02-22 02:35:00,
2013-02-21 21:36:00,23.1,17.5,30.23,NW,319,3.4,8.9,79,0.00,,---,0.00,VWS V14.01,2013-02-22 02:36:00,
2013-02-21 21:37:00,23.0,17.5,30.24,NW,318,7.4,9.1,79,0.00,,,0.00,VWS V14.01,2013-02-22 02:37:00,
2013-02-21 21:38:00,23.1,17.5,30.23,NW,319,3.4,8.9,79,0.00,,,0.00,VWS V14.01,2013-02-22 02:38:00,
2013-02-21 21:39:00,23.1,17.5,30.23,NW,315,3.3,7.9,79,0.00,,,0.00,VWS V14.01,2013-02-22 02:39:00,
2013-02-21 21:40:00,23.1,17.5,30.23,West,280,4.2,8.5,79,0.00,,,0.00,VWS V14.01,2013-02-22 02:40:00,
2013-02-21 21:41:00,23.1,17.5,30.23,North,350,6.0,7.2,79,0.00,,---,0.00,VWS V14.01,2013-02-22 02:41:00,
2013-02-21 21:42:00,23.2,17.6,30.23,NNW,336,5.5,9.9,79,0.00,,,0.00,VWS V14.01,2013-02-22 02:42:00,
2013-02-21 21:43:00,23.1,17.5,30.23,North,350,6.0,7.2,79,0.00,,,0.00,VWS V14.01,2013-02-22 02:43:00,
2013-02-21 21:44:00,23.0,17.4,30.24,North,349,4.5,10.4,79,0.00,,,0.00,VWS V14.01,2013-02-22 02:44:00,
2013-02-21 21:45:00,23.1,17.5,30.24,NNW,336,4.6,7.8,79,0.00,,,0.00,VWS V14.01,2013-02-22 02:45:00,
2013-02-21 21:46:00,23.1,17.7,30.25,NW,318,0.0,9.2,79,0.00,,---,0.00,VWS V14.01,2013-02-22 02:46:00,
2013-02-21 21:47:00,23.1,17.5,30.24,West,273,5.1,7.5,79,0.00,,,0.00,VWS V14.01,2013-02-22 02:47:00,
2013-02-21 21:48:00,23.1,17.7,30.25,NW,318,0.0,9.2,79,0.00,,,0.00,VWS V14.01,2013-02-22 02:48:00,
2013-02-21 21:49:00,23.1,17.5,30.25,NNW,332,5.4,8.5,79,0.00,,,0.00,VWS V14.01,2013-02-22 02:49:00,
2013-02-21 21:50:00,23.1,17.5,30.25,NNW,329,9.2,10.0,79,0.00,,,0.00,VWS V14.01,2013-02-22 02:50:00,
2013-02-21 21:51:00,23.1,17.7,30.25,North,3,4.1,5.6,79,0.00,,---,0.00,VWS V14.01,2013-02-22 02:51:00,
2013-02-21 21:52:00,23.1,17.6,30.24,NNW,340,5.1,7.3,79,0.00,,,0.00,VWS V14.01,2013-02-22 02:52:00,
2013-02-21 21:53:00,23.1,17.7,30.25,North,3,4.1,5.6,79,0.00,,,0.00,VWS V14.01,2013-02-22 02:53:00,
2013-02-21 21:54:00,23.2,17.8,30.25,North,7,0.0,4.5,79,0.00,,,0.00,VWS V14.01,2013-02-22 02:54:00,
2013-02-21 21:55:00,23.2,17.8,30.25,North,7,0.0,0.0,79,0.00,,,0.00,VWS V14.01,2013-02-22 02:55:00,
2013-02-21 21:56:00,23.1,17.6,30.25,NNE,13,5.1,8.2,79,0.00,,---,0.00,VWS V14.01,2013-02-22 02:56:00,
2013-02-21 21:57:00,23.2,17.8,30.25,North,7,0.0,0.0,80,0.00,,,0.00,VWS V14.01,2013-02-22 02:57:00,
2013-02-21 21:58:00,23.1,17.6,30.25,NNE,13,5.1,8.2,79,0.00,,,0.00,VWS V14.01,2013-02-22 02:58:00,
2013-02-21 21:59:00,23.2,17.8,30.25,NNE,15,0.0,5.4,80,0.00,,,0.00,VWS V14.01,2013-02-22 02:59:00,
2013-02-21 22:00:00,23.2,17.8,30.25,North,356,3.2,6.4,79,0.00,,,0.00,VWS V14.01,2013-02-22 03:00:00,
2013-02-21 22:01:00,23.1,17.8,30.25,NNW,330,6.2,6.2,80,0.00,,---,0.00,VWS V14.01,2013-02-22 03:01:00,
2013-02-21 22:02:00,23.2,17.8,30.25,NNW,345,5.4,6.6,80,0.00,,,0.00,VWS V14.01,2013-02-22 03:02:00,
2013-02-21 22:03:00,23.1,17.8,30.25,NNW,330,6.2,6.2,80,0.00,,,0.00,VWS V14.01,2013-02-22 03:03:00,
2013-02-21 22:04:00,23.1,17.7,30.25,NNE,25,3.2,11.6,80,0.00,,,0.00,VWS V14.01,2013-02-22 03:04:00,
2013-02-21 22:05:00,23.0,17.7,30.25,NNW,343,9.5,9.5,80,0.00,,,0.00,VWS V14.01,2013-02-22 03:05:00,
2013-02-21 22:06:00,22.9,17.7,30.25,North,359,5.5,9.4,80,0.00,,---,0.00,VWS V14.01,2013-02-22 03:06:00,
2013-02-21 22:07:00,22.9,17.7,30.25,NE,34,0.0,6.0,80,0.00,,,0.00,VWS V14.01,2013-02-22 03:07:00,
2013-02-21 22:08:00,22.9,17.7,30.25,North,359,5.5,9.4,80,0.00,,,0.00,VWS V14.01,2013-02-22 03:08:00,
2013-02-21 22:09:00,22.8,17.6,30.25,NNW,328,6.8,11.9,80,0.00,,,0.00,VWS V14.01,2013-02-22 03:09:00,
2013-02-21 22:10:00,22.9,17.7,30.25,WSW,256,0.0,8.1,80,0.00,,,0.00,VWS V14.01,2013-02-22 03:10:00,
2013-02-21 22:11:00,22.7,17.6,30.24,NNW,346,6.8,10.3,80,0.00,,---,0.00,VWS V14.01,2013-02-22 03:11:00,
2013-02-21 22:12:00,22.8,17.7,30.25,North,359,5.7,7.4,80,0.00,,,0.00,VWS V14.01,2013-02-22 03:12:00,
2013-02-21 22:13:00,22.7,17.6,30.24,NNW,346,6.8,10.3,80,0.00,,,0.00,VWS V14.01,2013-02-22 03:13:00,
2013-02-21 22:14:00,22.7,17.6,30.25,NNW,333,5.4,10.2,80,0.00,,,0.00,VWS V14.01,2013-02-22 03:14:00,
2013-02-21 22:15:00,22.7,17.6,30.25,North,349,0.0,7.8,81,0.00,,,0.00,VWS V14.01,2013-02-22 03:15:00,
2013-02-21 22:16:00,22.7,17.7,30.25,NW,316,4.3,8.0,81,0.00,,---,0.00,VWS V14.01,2013-02-22 03:16:00,
2013-02-21 22:17:00,22.7,17.7,30.25,North,359,7.3,7.5,81,0.00,,,0.00,VWS V14.01,2013-02-22 03:17:00,
2013-02-21 22:18:00,22.7,17.7,30.25,NW,316,4.3,8.0,81,0.00,,,0.00,VWS V14.01,2013-02-22 03:18:00,
2013-02-21 22:19:00,22.7,17.8,30.24,North,7,5.3,5.9,81,0.00,,,0.00,VWS V14.01,2013-02-22 03:19:00,
2013-02-21 22:20:00,22.6,17.7,30.24,NNW,338,6.4,10.7,81,0.00,,,0.00,VWS V14.01,2013-02-22 03:20:00,
2013-02-21 22:21:00,22.5,17.9,30.24,NNW,343,0.0,7.1,82,0.00,,---,0.00,VWS V14.01,2013-02-22 03:21:00,
2013-02-21 22:22:00,22.6,17.8,30.25,NW,321,5.8,7.8,82,0.00,,,0.00,VWS V14.01,2013-02-22 03:22:00,
2013-02-21 22:23:00,22.5,17.9,30.24,NNW,343,0.0,7.1,82,0.00,,,0.00,VWS V14.01,2013-02-22 03:23:00,
2013-02-21 22:24:00,22.4,17.6,30.24,West,277,4.5,8.7,82,0.00,,,0.00,VWS V14.01,2013-02-22 03:24:00,
2013-02-21 22:25:00,22.4,17.6,30.25,NW,321,5.6,7.8,82,0.00,,,0.00,VWS V14.01,2013-02-22 03:25:00,
2013-02-21 22:26:00,22.4,17.8,30.25,NNW,333,5.2,5.2,82,0.00,,---,0.00,VWS V14.01,2013-02-22 03:26:00,
2013-02-21 22:27:00,22.4,17.6,30.25,NNW,336,2.5,10.1,82,0.00,,,0.00,VWS V14.01,2013-02-22 03:27:00,
2013-02-21 22:28:00,22.4,17.8,30.25,NNW,333,5.2,5.2,82,0.00,,,0.00,VWS V14.01,2013-02-22 03:28:00,
2013-02-21 22:29:00,22.5,17.8,30.25,NW,319,4.7,6.2,82,0.00,,,0.00,VWS V14.01,2013-02-22 03:29:00,
2013-02-21 22:30:00,22.5,17.7,30.25,NW,312,0.0,4.7,81,0.00,,,0.00,VWS V14.01,2013-02-22 03:30:00,
2013-02-21 22:31:00,22.4,17.8,30.25,NW,312,0.0,0.0,82,0.00,,---,0.00,VWS V14.01,2013-02-22 03:31:00,
2013-02-21 22:32:00,22.4,17.7,30.25,NW,312,0.0,0.0,82,0.00,,,0.00,VWS V14.01,2013-02-22 03:32:00,
2013-02-21 22:33:00,22.4,17.8,30.25,NW,312,0.0,0.0,82,0.00,,,0.00,VWS V14.01,2013-02-22 03:33:00,
2013-02-21 22:34:00,22.4,17.8,30.25,NW,312,0.0,0.0,82,0.00,,,0.00,VWS V14.01,2013-02-22 03:34:00,
2013-02-21 22:35:00,22.4,17.8,30.25,NW,312,0.0,0.0,82,0.00,,,0.00,VWS V14.01,2013-02-22 03:35:00,
2013-02-21 22:36:00,22.3,17.7,30.26,NW,325,0.0,5.3,82,0.00,,---,0.00,VWS V14.01,2013-02-22 03:36:00,
2013-02-21 22:37:00,22.3,17.7,30.25,North,11,5.3,9.1,82,0.00,,,0.00,VWS V14.01,2013-02-22 03:37:00,
2013-02-21 22:38:00,22.3,17.7,30.26,NW,325,0.0,5.3,82,0.00,,,0.00,VWS V14.01,2013-02-22 03:38:00,
2013-02-21 22:39:00,22.3,17.8,30.26,NW,318,7.9,8.0,83,0.00,,,0.00,VWS V14.01,2013-02-22 03:39:00,
2013-02-21 22:40:00,22.3,17.7,30.26,NNW,340,6.3,9.4,82,0.00,,,0.00,VWS V14.01,2013-02-22 03:40:00,
2013-02-21 22:41:00,22.3,17.7,30.26,NNW,332,0.0,4.7,82,0.00,,---,0.00,VWS V14.01,2013-02-22 03:41:00,
2013-02-21 22:42:00,22.2,17.6,30.26,WNW,287,0.0,4.2,82,0.00,,,0.00,VWS V14.01,2013-02-22 03:42:00,
2013-02-21 22:43:00,22.3,17.7,30.26,NNW,332,0.0,4.7,82,0.00,,,0.00,VWS V14.01,2013-02-22 03:43:00,
2013-02-21 22:44:00,22.3,17.8,30.26,NNW,332,0.0,0.0,83,0.00,,,0.00,VWS V14.01,2013-02-22 03:44:00,
2013-02-21 22:45:00,22.3,18.0,30.26,NNW,332,0.0,0.0,83,0.00,,,0.00,VWS V14.01,2013-02-22 03:45:00,
2013-02-21 22:46:00,22.3,17.8,30.26,NNW,346,7.5,7.7,82,0.00,,---,0.00,VWS V14.01,2013-02-22 03:46:00,
2013-02-21 22:47:00,22.2,17.8,30.26,NNW,340,4.8,4.8,83,0.00,,,0.00,VWS V14.01,2013-02-22 03:47:00,
2013-02-21 22:48:00,22.3,17.8,30.26,NNW,346,7.5,7.7,82,0.00,,,0.00,VWS V14.01,2013-02-22 03:48:00,
2013-02-21 22:49:00,22.1,17.6,30.26,North,353,5.0,7.6,83,0.00,,,0.00,VWS V14.01,2013-02-22 03:49:00,
2013-02-21 22:50:00,22.1,17.6,30.26,NNW,340,3.2,6.5,83,0.00,,,0.00,VWS V14.01,2013-02-22 03:50:00,
2013-02-21 22:51:00,22.1,17.7,30.26,NW,321,0.0,4.8,83,0.00,,---,0.00,VWS V14.01,2013-02-22 03:51:00,
2013-02-21 22:52:00,22.1,17.6,30.26,NW,308,0.0,5.8,83,0.00,,,0.00,VWS V14.01,2013-02-22 03:52:00,
2013-02-21 22:53:00,22.1,17.7,30.26,NW,321,0.0,4.8,83,0.00,,,0.00,VWS V14.01,2013-02-22 03:53:00,
2013-02-21 22:54:00,22.1,17.6,30.26,NNW,340,6.3,7.6,83,0.00,,,0.00,VWS V14.01,2013-02-22 03:54:00,
2013-02-21 22:55:00,22.1,17.7,30.26,West,278,4.6,7.7,83,0.00,,,0.00,VWS V14.01,2013-02-22 03:55:00,
2013-02-21 22:56:00,22.1,17.7,30.27,NNW,342,8.8,8.8,83,0.00,,---,0.00,VWS V14.01,2013-02-22 03:56:00,
2013-02-21 22:57:00,22.1,17.7,30.26,NNW,329,0.0,7.5,83,0.00,,,0.00,VWS V14.01,2013-02-22 03:57:00,
2013-02-21 22:58:00,22.1,17.7,30.27,NNW,342,8.8,8.8,83,0.00,,,0.00,VWS V14.01,2013-02-22 03:58:00,
2013-02-21 22:59:00,22.0,17.6,30.27,NNW,335,0.0,11.9,83,0.00,,,0.00,VWS V14.01,2013-02-22 03:59:00,
2013-02-21 23:00:00,22.0,17.6,30.27,WNW,291,7.5,10.3,83,0.00,,,0.00,VWS V14.01,2013-02-22 04:00:00,
2013-02-21 23:01:00,22.0,17.7,30.27,NW,314,0.0,4.8,83,0.00,,---,0.00,VWS V14.01,2013-02-22 04:01:00,
2013-02-21 23:02:00,22.0,17.6,30.27,NW,314,4.8,7.8,83,0.00,,,0.00,VWS V14.01,2013-02-22 04:02:00,
2013-02-21 23:03:00,22.0,17.7,30.27,NW,314,0.0,4.8,83,0.00,,,0.00,VWS V14.01,2013-02-22 04:03:00,
2013-02-21 23:04:00,22.0,17.7,30.27,NW,314,0.0,0.0,83,0.00,,,0.00,VWS V14.01,2013-02-22 04:04:00,
2013-02-21 23:05:00,22.0,17.7,30.27,NNW,340,7.2,9.9,83,0.00,,,0.00,VWS V14.01,2013-02-22 04:05:00,
2013-02-21 23:06:00,22.0,17.8,30.27,NW,314,0.0,0.0,84,0.00,,---,0.00,VWS V14.01,2013-02-22 04:06:00,
2013-02-21 23:07:00,21.9,17.5,30.27,NW,314,0.0,9.4,83,0.00,,,0.00,VWS V14.01,2013-02-22 04:07:00,
2013-02-21 23:08:00,22.0,17.8,30.27,NW,314,0.0,0.0,84,0.00,,,0.00,VWS V14.01,2013-02-22 04:08:00,
2013-02-21 23:09:00,22.0,17.7,30.27,WNW,285,0.0,5.5,83,0.00,,,0.00,VWS V14.01,2013-02-22 04:09:00,
2013-02-21 23:10:00,22.0,17.7,30.27,NNW,346,7.3,7.8,83,0.00,,,0.00,VWS V14.01,2013-02-22 04:10:00,
2013-02-21 23:11:00,22.0,17.6,30.27,NW,311,0.0,2.7,83,0.00,,---,0.00,VWS V14.01,2013-02-22 04:11:00,
2013-02-21 23:12:00,22.0,17.7,30.27,NW,311,0.0,6.3,83,0.00,,,0.00,VWS V14.01,2013-02-22 04:12:00,
2013-02-21 23:13:00,22.0,17.6,30.27,NW,311,0.0,2.7,83,0.00,,,0.00,VWS V14.01,2013-02-22 04:13:00,
2013-02-21 23:14:00,22.0,17.7,30.27,North,0,0.0,5.5,83,0.00,,,0.00,VWS V14.01,2013-02-22 04:14:00,
2013-02-21 23:15:00,21.9,17.5,30.26,North,0,0.0,0.0,83,0.00,,,0.00,VWS V14.01,2013-02-22 04:15:00,
2013-02-21 23:16:00,21.9,17.6,30.26,WNW,284,0.0,5.5,83,0.00,,---,0.00,VWS V14.01,2013-02-22 04:16:00,
2013-02-21 23:17:00,21.9,17.6,30.26,NNE,14,3.0,5.6,83,0.00,,,0.00,VWS V14.01,2013-02-22 04:17:00,
2013-02-21 23:18:00,21.9,17.6,30.26,WNW,284,0.0,5.5,83,0.00,,,0.00,VWS V14.01,2013-02-22 04:18:00,
2013-02-21 23:19:00,21.9,17.7,30.26,WNW,290,4.3,8.3,84,0.00,,,0.00,VWS V14.01,2013-02-22 04:19:00,
2013-02-21 23:20:00,21.9,17.6,30.26,WNW,295,0.0,4.7,83,0.00,,,0.00,VWS V14.01,2013-02-22 04:20:00,
2013-02-21 23:21:00,22.0,17.7,30.27,North,6,0.0,9.4,83,0.00,,---,0.00,VWS V14.01,2013-02-22 04:21:00,
2013-02-21 23:22:00,21.9,17.7,30.27,NNW,330,8.6,9.7,84,0.00,,,0.00,VWS V14.01,2013-02-22 04:22:00,
2013-02-21 23:23:00,22.0,17.7,30.27,North,6,0.0,9.4,83,0.00,,,0.00,VWS V14.01,2013-02-22 04:23:00,
2013-02-21 23:24:00,22.0,17.8,30.27,North,6,0.0,0.0,83,0.00,,,0.00,VWS V14.01,2013-02-22 04:24:00,
2013-02-21 23:25:00,21.9,17.6,30.27,North,7,6.4,9.8,83,0.00,,,0.00,VWS V14.01,2013-02-22 04:25:00,
2013-02-21 23:26:00,21.9,17.6,30.27,North,8,6.2,9.3,83,0.00,,---,0.00,VWS V14.01,2013-02-22 04:26:00,
2013-02-21 23:27:00,21.9,17.6,30.27,North,0,5.4,9.4,83,0.00,,,0.00,VWS V14.01,2013-02-22 04:27:00,
2013-02-21 23:28:00,21.9,17.6,30.27,North,8,6.2,9.3,83,0.00,,,0.00,VWS V14.01,2013-02-22 04:28:00,
2013-02-21 23:29:00,21.9,17.6,30.27,NW,322,7.9,8.3,83,0.00,,,0.00,VWS V14.01,2013-02-22 04:29:00,
2013-02-21 23:30:00,21.9,17.6,30.27,North,350,4.9,8.3,83,0.00,,,0.00,VWS V14.01,2013-02-22 04:30:00,
2013-02-21 23:31:00,21.9,17.6,30.27,NNE,31,8.8,10.9,83,0.00,,---,0.00,VWS V14.01,2013-02-22 04:31:00,
2013-02-21 23:32:00,21.9,17.6,30.27,NNW,338,3.5,7.6,83,0.00,,,0.00,VWS V14.01,2013-02-22 04:32:00,
2013-02-21 23:33:00,21.9,17.6,30.27,NNE,31,8.8,10.9,83,0.00,,,0.00,VWS V14.01,2013-02-22 04:33:00,
2013-02-21 23:34:00,21.8,17.5,30.27,North,6,6.5,8.9,83,0.00,,,0.00,VWS V14.01,2013-02-22 04:34:00,
2013-02-21 23:35:00,21.8,17.5,30.27,NNW,328,8.5,11.1,83,0.00,,,0.00,VWS V14.01,2013-02-22 04:35:00,
2013-02-21 23:36:00,21.9,17.7,30.27,WNW,285,0.0,0.0,84,0.00,,---,0.00,VWS V14.01,2013-02-22 04:36:00,
2013-02-21 23:37:00,22.0,17.8,30.27,NE,39,4.4,10.6,83,0.00,,,0.00,VWS V14.01,2013-02-22 04:37:00,
2013-02-21 23:38:00,22.0,17.8,30.27,WNW,285,0.0,4.9,84,0.00,,,0.00,VWS V14.01,2013-02-22 04:38:00,
2013-02-21 23:39:00,22.1,18.1,30.27,North,0,0.0,5.5,84,0.00,,,0.00,VWS V14.01,2013-02-22 04:39:00,
2013-02-21 23:40:00,22.0,17.8,30.28,North,356,4.7,7.6,83,0.00,,,0.00,VWS V14.01,2013-02-22 04:40:00,
2013-02-21 23:41:00,22.0,17.7,30.28,NNW,330,8.0,10.3,83,0.00,,---,0.00,VWS V14.01,2013-02-22 04:41:00,
2013-02-21 23:42:00,22.1,17.9,30.28,NNE,32,3.4,6.3,84,0.00,,,0.00,VWS V14.01,2013-02-22 04:42:00,
2013-02-21 23:43:00,22.0,17.7,30.28,NNW,330,8.0,10.3,83,0.00,,,0.00,VWS V14.01,2013-02-22 04:43:00,
2013-02-21 23:44:00,22.1,17.7,30.28,NNE,15,0.0,9.7,83,0.00,,,0.00,VWS V14.01,2013-02-22 04:44:00,
2013-02-21 23:45:00,22.2,17.9,30.28,NNE,15,0.0,0.0,83,0.00,,,0.00,VWS V14.01,2013-02-22 04:45:00,
2013-02-21 23:46:00,22.3,17.8,30.28,North,7,0.0,8.1,82,0.00,,---,0.00,VWS V14.01,2013-02-22 04:46:00,
2013-02-21 23:47:00,22.3,17.9,30.28,NNE,15,2.7,2.7,83,0.00,,,0.00,VWS V14.01,2013-02-22 04:47:00,
2013-02-21 23:48:00,22.3,17.8,30.28,North,7,0.0,8.1,82,0.00,,,0.00,VWS V14.01,2013-02-22 04:48:00,
2013-02-21 23:49:00,22.3,17.8,30.28,North,7,0.0,0.0,82,0.00,,,0.00,VWS V14.01,2013-02-22 04:49:00,
2013-02-21 23:50:00,22.4,18.0,30.28,ENE,68,0.0,5.2,83,0.00,,,0.00,VWS V14.01,2013-02-22 04:50:00,
2013-02-21 23:51:00,22.4,17.8,30.28,West,260,0.0,5.8,82,0.00,,---,0.00,VWS V14.01,2013-02-22 04:51:00,
2013-02-21 23:52:00,22.4,17.8,30.28,North,6,0.0,10.0,82,0.00,,,0.00,VWS V14.01,2013-02-22 04:52:00,
2013-02-21 23:53:00,22.4,17.8,30.28,West,260,0.0,5.8,82,0.00,,,0.00,VWS V14.01,2013-02-22 04:53:00,
2013-02-21 23:54:00,22.4,17.8,30.29,NNW,329,3.3,3.3,82,0.00,,,0.00,VWS V14.01,2013-02-22 04:54:00,
2013-02-21 23:55:00,22.4,17.9,30.28,NNW,329,0.0,3.3,82,0.00,,,0.00,VWS V14.01,2013-02-22 04:55:00,
2013-02-21 23:56:00,22.5,17.8,30.28,WNW,284,0.0,6.6,82,0.00,,---,0.00,VWS V14.01,2013-02-22 04:56:00,
2013-02-21 23:57:00,22.4,17.7,30.28,North,0,0.0,6.9,82,0.00,,,0.00,VWS V14.01,2013-02-22 04:57:00,
2013-02-21 23:58:00,22.5,17.8,30.28,WNW,284,0.0,6.6,82,0.00,,,0.00,VWS V14.01,2013-02-22 04:58:00,
2013-02-21 23:59:00,22.4,17.7,30.28,NNW,345,7.3,11.2,82,0.00,,,0.00,VWS V14.01,2013-02-22 04:59:00,